Time,TemperatureF,DewpointF,PressureIn,WindDirection,WindDirectionDegrees,WindSpeedMPH,WindSpeedGustMPH,Humidity,HourlyPrecipIn,Conditions,Clouds,dailyrainin,SoftwareType,DateUTC
2013-04-30 00:00:00,49.5,48.1,30.19,SE,146,1.0,5.0,95,0.00,,,0.10,VWS V14.01,2013-04-30 04:00:00,
2013-04-30 00:01:00,49.5,48.1,30.19,SE,146,2.0,3.0,95,0.00,,,0.00,VWS V14.01,2013-04-30 04:01:00,
2013-04-30 00:02:00,49.5,48.1,30.19,SE,146,1.0,3.0,95,0.00,,,0.00,VWS V14.01,2013-04-30 04:02:00,
2013-04-30 00:03:00,49.5,48.1,30.19,SE,146,0.0,3.0,95,0.00,,,0.00,VWS V14.01,2013-04-30 04:03:00,
2013-04-30 00:04:00,49.5,48.1,30.19,SE,146,0.0,3.0,95,0.00,,,0.00,VWS V14.01,2013-04-30 04:04:00,
2013-04-30 00:05:00,49.5,48.1,30.19,SE,146,5.0,5.0,95,0.00,,,0.00,VWS V14.01,2013-04-30 04:05:00,
2013-04-30 00:06:00,49.5,48.1,30.19,ESE,121,0.0,5.0,95,0.00,,,0.00,VWS V14.01,2013-04-30 04:06:00,
2013-04-30 00:07:00,49.5,48.1,30.19,ESE,121,2.0,5.0,95,0.00,,,0.00,VWS V14.01,2013-04-30 04:07:00,
2013-04-30 00:08:00,49.5,48.1,30.19,ESE,121,2.0,5.0,95,0.00,,,0.00,VWS V14.01,2013-04-30 04:08:00,
2013-04-30 00:09:00,49.5,48.1,30.19,ESE,121,3.0,5.0,95,0.00,,,0.00,VWS V14.01,2013-04-30 04:09:00,
2013-04-30 00:10:00,49.5,48.1,30.19,ESE,121,0.0,5.0,95,0.00,,,0.00,VWS V14.01,2013-04-30 04:10:00,
2013-04-30 00:11:00,49.5,48.1,30.19,ENE,65,2.0,3.0,95,0.00,,,0.00,VWS V14.01,2013-04-30 04:11:00,
2013-04-30 00:12:00,49.5,48.1,30.19,ENE,66,0.0,3.0,95,0.00,,,0.00,VWS V14.01,2013-04-30 04:12:00,
2013-04-30 00:13:00,49.5,48.1,30.19,ENE,66,0.0,3.0,95,0.00,,,0.00,VWS V14.01,2013-04-30 04:13:00,
2013-04-30 00:14:00,49.5,48.1,30.19,ENE,66,0.0,3.0,95,0.00,,,0.00,VWS V14.01,2013-04-30 04:14:00,
2013-04-30 00:15:00,49.5,48.1,30.19,ENE,66,0.0,3.0,95,0.00,,,0.00,VWS V14.01,2013-04-30 04:15:00,
2013-04-30 00:16:00,49.5,48.1,30.19,East,84,5.0,5.0,95,0.00,,,0.00,VWS V14.01,2013-04-30 04:16:00,
2013-04-30 00:17:00,49.5,48.1,30.19,SE,134,0.0,5.0,95,0.00,,,0.00,VWS V14.01,2013-04-30 04:17:00,
2013-04-30 00:18:00,49.5,48.1,30.19,SE,134,0.0,5.0,95,0.00,,,0.00,VWS V14.01,2013-04-30 04:18:00,
2013-04-30 00:19:00,49.5,48.1,30.19,SE,134,0.0,5.0,95,0.00,,,0.00,VWS V14.01,2013-04-30 04:19:00,
2013-04-30 00:20:00,49.5,48.1,30.19,SE,134,2.0,5.0,95,0.00,,,0.00,VWS V14.01,2013-04-30 04:20:00,
2013-04-30 00:21:00,49.5,48.1,30.19,SE,134,0.0,2.0,95,0.00,,,0.00,VWS V14.01,2013-04-30 04:21:00,
2013-04-30 00:22:00,49.5,48.1,30.19,SE,134,3.0,3.0,95,0.00,,,0.00,VWS V14.01,2013-04-30 04:22:00,
2013-04-30 00:23:00,49.5,48.1,30.19,SE,134,1.0,4.0,95,0.00,,,0.00,VWS V14.01,2013-04-30 04:23:00,
2013-04-30 00:24:00,49.5,48.1,30.19,SE,134,0.0,4.0,95,0.00,,,0.00,VWS V14.01,2013-04-30 04:24:00,
2013-04-30 00:25:00,49.5,48.1,30.19,SE,134,2.0,4.0,95,0.00,,,0.00,VWS V14.01,2013-04-30 04:25:00,
2013-04-30 00:26:00,49.5,48.1,30.19,SE,134,0.0,4.0,95,0.00,,,0.00,VWS V14.01,2013-04-30 04:26:00,
2013-04-30 00:27:00,49.5,48.1,30.19,SE,134,1.0,4.0,95,0.00,,,0.00,VWS V14.01,2013-04-30 04:27:00,
2013-04-30 00:28:00,49.5,48.1,30.19,SSE,155,5.0,5.0,95,0.00,,,0.00,VWS V14.01,2013-04-30 04:28:00,
2013-04-30 00:29:00,49.5,48.1,30.19,SSE,153,0.0,5.0,95,0.00,,,0.00,VWS V14.01,2013-04-30 04:29:00,
2013-04-30 00:30:00,49.5,48.1,30.19,SSE,153,0.0,5.0,95,0.00,,,0.00,VWS V14.01,2013-04-30 04:30:00,
2013-04-30 00:31:00,49.5,48.1,30.19,SSE,153,0.0,1.0,95,0.00,,,0.00,VWS V14.01,2013-04-30 04:31:00,
2013-04-30 00:32:00,49.5,48.1,30.19,ESE,111,2.0,5.0,95,0.00,,,0.00,VWS V14.01,2013-04-30 04:32:00,
2013-04-30 00:33:00,49.5,48.1,30.19,ESE,112,0.0,5.0,95,0.00,,,0.00,VWS V14.01,2013-04-30 04:33:00,
2013-04-30 00:34:00,49.5,48.1,30.19,ESE,112,0.0,5.0,95,0.00,,,0.00,VWS V14.01,2013-04-30 04:34:00,
2013-04-30 00:35:00,49.5,48.1,30.19,ESE,112,0.0,5.0,95,0.00,,,0.00,VWS V14.01,2013-04-30 04:35:00,
2013-04-30 00:36:00,49.5,48.1,30.19,ENE,69,1.0,5.0,95,0.00,,,0.00,VWS V14.01,2013-04-30 04:36:00,
2013-04-30 00:37:00,49.5,48.1,30.19,SE,140,3.0,5.0,95,0.00,,,0.00,VWS V14.01,2013-04-30 04:37:00,
2013-04-30 00:38:00,49.5,48.1,30.19,SE,140,5.0,5.0,95,0.00,,,0.00,VWS V14.01,2013-04-30 04:38:00,
2013-04-30 00:39:00,49.5,48.1,30.19,SE,141,0.0,5.0,95,0.00,,,0.00,VWS V14.01,2013-04-30 04:39:00,
2013-04-30 00:40:00,49.5,48.1,30.19,SE,140,0.0,5.0,95,0.00,,,0.00,VWS V14.01,2013-04-30 04:40:00,
2013-04-30 00:41:00,49.5,48.1,30.19,SE,141,0.0,1.0,95,0.00,,,0.00,VWS V14.01,2013-04-30 04:41:00,
2013-04-30 00:42:00,49.5,48.1,30.19,SE,141,0.0,1.0,95,0.00,,,0.00,VWS V14.01,2013-04-30 04:42:00,
2013-04-30 00:43:00,49.5,48.1,30.19,SE,140,2.0,3.0,95,0.00,,,0.00,VWS V14.01,2013-04-30 04:43:00,
2013-04-30 00:44:00,49.5,48.1,30.19,SSE,153,6.0,7.0,95,0.00,,,0.00,VWS V14.01,2013-04-30 04:44:00,
2013-04-30 00:45:00,49.5,48.1,30.19,SSE,150,0.0,7.0,95,0.00,,,0.00,VWS V14.01,2013-04-30 04:45:00,
2013-04-30 00:46:00,49.5,48.1,30.19,SSE,150,0.0,7.0,95,0.00,,,0.00,VWS V14.01,2013-04-30 04:46:00,
2013-04-30 00:47:00,49.5,48.1,30.19,SSE,155,5.0,7.0,95,0.00,,,0.00,VWS V14.01,2013-04-30 04:47:00,
2013-04-30 00:48:00,49.5,48.1,30.19,SSE,155,0.0,7.0,95,0.00,,,0.00,VWS V14.01,2013-04-30 04:48:00,
2013-04-30 00:49:00,49.5,48.1,30.19,SSE,155,0.0,7.0,95,0.00,,,0.00,VWS V14.01,2013-04-30 04:49:00,
2013-04-30 00:50:00,49.5,48.1,30.19,SSE,155,0.0,7.0,95,0.00,,,0.00,VWS V14.01,2013-04-30 04:50:00,
2013-04-30 00:51:00,49.5,48.1,30.19,SSE,155,4.0,4.0,95,0.00,,,0.00,VWS V14.01,2013-04-30 04:51:00,
2013-04-30 00:52:00,49.5,48.1,30.19,SSE,155,0.0,4.0,95,0.00,,,0.00,VWS V14.01,2013-04-30 04:52:00,
2013-04-30 00:53:00,49.5,48.1,30.19,SSE,155,2.0,4.0,95,0.00,,,0.00,VWS V14.01,2013-04-30 04:53:00,
2013-04-30 00:54:00,49.5,48.1,30.19,SSE,150,0.0,5.0,95,0.00,,,0.00,VWS V14.01,2013-04-30 04:54:00,
2013-04-30 00:55:00,49.5,48.1,30.19,SSE,150,3.0,5.0,95,0.00,,,0.00,VWS V14.01,2013-04-30 04:55:00,
2013-04-30 00:56:00,49.5,48.1,30.19,SE,138,2.0,5.0,95,0.00,,,0.00,VWS V14.01,2013-04-30 04:56:00,
2013-04-30 00:57:00,49.5,48.1,30.19,SE,138,0.0,5.0,95,0.00,,,0.00,VWS V14.01,2013-04-30 04:57:00,
2013-04-30 00:58:00,49.5,48.1,30.19,SE,138,1.0,5.0,95,0.00,,,0.00,VWS V14.01,2013-04-30 04:58:00,
2013-04-30 00:59:00,49.4,48.0,30.19,SE,140,0.0,5.0,95,0.00,,,0.00,VWS V14.01,2013-04-30 04:59:00,
2013-04-30 01:00:00,49.5,48.1,30.18,SE,140,0.0,5.0,95,0.00,,,0.00,VWS V14.01,2013-04-30 05:00:00,
2013-04-30 01:01:00,49.5,48.1,30.18,SSE,154,5.0,7.0,95,0.00,,,0.00,VWS V14.01,2013-04-30 05:01:00,
2013-04-30 01:02:00,49.5,48.1,30.18,ESE,115,0.0,7.0,95,0.00,,,0.00,VWS V14.01,2013-04-30 05:02:00,
2013-04-30 01:03:00,49.5,48.1,30.18,South,178,1.0,7.0,95,0.00,,,0.00,VWS V14.01,2013-04-30 05:03:00,
2013-04-30 01:04:00,49.5,48.1,30.18,South,178,0.0,7.0,95,0.00,,,0.00,VWS V14.01,2013-04-30 05:04:00,
2013-04-30 01:05:00,49.5,48.1,30.18,South,173,0.0,7.0,95,0.00,,,0.00,VWS V14.01,2013-04-30 05:05:00,
2013-04-30 01:06:00,49.5,48.1,30.18,South,173,0.0,7.0,95,0.00,,,0.00,VWS V14.01,2013-04-30 05:06:00,
2013-04-30 01:07:00,49.5,48.1,30.18,South,171,3.0,7.0,95,0.00,,,0.00,VWS V14.01,2013-04-30 05:07:00,
2013-04-30 01:08:00,49.5,48.1,30.18,SSE,167,3.0,7.0,95,0.00,,,0.00,VWS V14.01,2013-04-30 05:08:00,
2013-04-30 01:09:00,49.5,48.1,30.18,ENE,68,1.0,7.0,95,0.00,,,0.00,VWS V14.01,2013-04-30 05:09:00,
2013-04-30 01:10:00,49.5,48.1,30.18,SE,145,2.0,7.0,95,0.00,,,0.00,VWS V14.01,2013-04-30 05:10:00,
2013-04-30 01:11:00,49.5,48.1,30.18,SE,145,0.0,2.0,95,0.00,,,0.00,VWS V14.01,2013-04-30 05:11:00,
2013-04-30 01:12:00,49.5,48.1,30.18,SE,145,0.0,2.0,95,0.00,,,0.00,VWS V14.01,2013-04-30 05:12:00,
2013-04-30 01:13:00,49.5,48.1,30.18,SE,145,0.0,2.0,95,0.00,,,0.00,VWS V14.01,2013-04-30 05:13:00,
2013-04-30 01:14:00,49.5,48.1,30.18,SE,145,4.0,4.0,95,0.00,,,0.00,VWS V14.01,2013-04-30 05:14:00,
2013-04-30 01:15:00,49.5,48.1,30.19,SE,137,3.0,5.0,95,0.00,,,0.00,VWS V14.01,2013-04-30 05:15:00,
2013-04-30 01:16:00,49.5,48.1,30.19,SSE,157,4.0,5.0,95,0.00,,,0.00,VWS V14.01,2013-04-30 05:16:00,
2013-04-30 01:17:00,49.5,48.1,30.19,SSE,157,0.0,5.0,95,0.00,,,0.00,VWS V14.01,2013-04-30 05:17:00,
2013-04-30 01:18:00,49.5,48.1,30.19,SSE,157,3.0,5.0,95,0.00,,,0.00,VWS V14.01,2013-04-30 05:18:00,
2013-04-30 01:19:00,49.5,48.1,30.19,SSE,157,0.0,5.0,95,0.00,,,0.00,VWS V14.01,2013-04-30 05:19:00,
2013-04-30 01:20:00,49.5,48.1,30.19,SSE,157,0.0,5.0,95,0.00,,,0.00,VWS V14.01,2013-04-30 05:20:00,
2013-04-30 01:21:00,49.5,48.1,30.19,SSE,157,2.0,3.0,95,0.00,,,0.00,VWS V14.01,2013-04-30 05:21:00,
2013-04-30 01:22:00,49.5,48.1,30.19,SSE,157,1.0,3.0,95,0.00,,,0.00,VWS V14.01,2013-04-30 05:22:00,
2013-04-30 01:23:00,49.5,48.1,30.19,SSE,157,0.0,3.0,95,0.00,,,0.00,VWS V14.01,2013-04-30 05:23:00,
2013-04-30 01:24:00,49.5,48.1,30.19,SSE,157,3.0,3.0,95,0.00,,,0.00,VWS V14.01,2013-04-30 05:24:00,
2013-04-30 01:25:00,49.5,48.1,30.19,SE,138,5.0,6.0,95,0.00,,,0.00,VWS V14.01,2013-04-30 05:25:00,
2013-04-30 01:26:00,49.5,48.1,30.19,SE,138,0.0,6.0,95,0.00,,,0.00,VWS V14.01,2013-04-30 05:26:00,
2013-04-30 01:27:00,49.5,48.1,30.19,SE,138,0.0,6.0,95,0.00,,,0.00,VWS V14.01,2013-04-30 05:27:00,
2013-04-30 01:28:00,49.5,48.1,30.19,SE,138,0.0,6.0,95,0.00,,,0.00,VWS V14.01,2013-04-30 05:28:00,
2013-04-30 01:29:00,49.5,48.1,30.19,SE,138,0.0,6.0,95,0.00,,,0.00,VWS V14.01,2013-04-30 05:29:00,
2013-04-30 01:30:00,49.5,48.1,30.18,SE,138,1.0,6.0,95,0.00,,,0.00,VWS V14.01,2013-04-30 05:30:00,
2013-04-30 01:31:00,49.5,48.1,30.18,SE,138,0.0,2.0,95,0.00,,,0.00,VWS V14.01,2013-04-30 05:31:00,
2013-04-30 01:32:00,49.5,48.1,30.18,SE,138,0.0,2.0,95,0.00,,,0.00,VWS V14.01,2013-04-30 05:32:00,
2013-04-30 01:33:00,49.5,48.1,30.18,SE,138,0.0,2.0,95,0.00,,,0.00,VWS V14.01,2013-04-30 05:33:00,
2013-04-30 01:34:00,49.5,48.1,30.18,SE,138,0.0,2.0,95,0.00,,,0.00,VWS V14.01,2013-04-30 05:34:00,
2013-04-30 01:35:00,49.5,48.1,30.18,SE,138,1.0,2.0,95,0.00,,,0.00,VWS V14.01,2013-04-30 05:35:00,
2013-04-30 01:36:00,49.5,48.1,30.18,ESE,120,1.0,3.0,95,0.00,,,0.00,VWS V14.01,2013-04-30 05:36:00,
2013-04-30 01:37:00,49.5,48.1,30.18,NE,46,2.0,4.0,95,0.00,,,0.00,VWS V14.01,2013-04-30 05:37:00,
2013-04-30 01:38:00,49.5,48.1,30.18,NE,46,3.0,4.0,95,0.00,,,0.00,VWS V14.01,2013-04-30 05:38:00,
2013-04-30 01:39:00,49.5,48.1,30.18,SSE,153,4.0,5.0,95,0.00,,,0.00,VWS V14.01,2013-04-30 05:39:00,
2013-04-30 01:40:00,49.5,48.1,30.18,SE,143,2.0,5.0,95,0.00,,,0.00,VWS V14.01,2013-04-30 05:40:00,
2013-04-30 01:41:00,49.5,48.1,30.18,SE,143,0.0,3.0,95,0.00,,,0.00,VWS V14.01,2013-04-30 05:41:00,
2013-04-30 01:42:00,49.5,48.1,30.18,SSE,155,4.0,5.0,95,0.00,,,0.00,VWS V14.01,2013-04-30 05:42:00,
2013-04-30 01:43:00,49.5,48.1,30.18,SSE,155,3.0,5.0,95,0.00,,,0.00,VWS V14.01,2013-04-30 05:43:00,
2013-04-30 01:44:00,49.4,48.0,30.18,South,182,2.0,5.0,95,0.00,,,0.00,VWS V14.01,2013-04-30 05:44:00,
2013-04-30 01:45:00,49.4,48.0,30.19,South,182,2.0,5.0,95,0.00,,,0.00,VWS V14.01,2013-04-30 05:45:00,
2013-04-30 01:46:00,49.4,48.0,30.19,SSE,147,3.0,5.0,95,0.00,,,0.00,VWS V14.01,2013-04-30 05:46:00,
2013-04-30 01:47:00,49.4,48.0,30.19,ESE,121,1.0,5.0,95,0.00,,,0.00,VWS V14.01,2013-04-30 05:47:00,
2013-04-30 01:48:00,49.4,48.0,30.19,ESE,121,1.0,5.0,95,0.00,,,0.00,VWS V14.01,2013-04-30 05:48:00,
2013-04-30 01:49:00,49.4,48.0,30.19,ESE,121,3.0,5.0,95,0.00,,,0.00,VWS V14.01,2013-04-30 05:49:00,
2013-04-30 01:50:00,49.4,48.0,30.19,East,98,0.0,5.0,95,0.00,,,0.00,VWS V14.01,2013-04-30 05:50:00,
2013-04-30 01:51:00,49.4,48.0,30.19,East,98,0.0,0.0,95,0.00,,,0.00,VWS V14.01,2013-04-30 05:51:00,
2013-04-30 01:52:00,49.4,48.0,30.19,East,98,0.0,0.0,95,0.00,,,0.00,VWS V14.01,2013-04-30 05:52:00,
2013-04-30 01:53:00,49.4,48.0,30.19,East,98,0.0,0.0,95,0.00,,,0.00,VWS V14.01,2013-04-30 05:53:00,
2013-04-30 01:54:00,49.4,48.0,30.19,East,98,0.0,0.0,95,0.00,,,0.00,VWS V14.01,2013-04-30 05:54:00,
2013-04-30 01:55:00,49.4,48.0,30.19,East,98,2.0,2.0,95,0.00,,,0.00,VWS V14.01,2013-04-30 05:55:00,
2013-04-30 01:56:00,49.4,48.0,30.19,East,101,3.0,3.0,95,0.00,,,0.00,VWS V14.01,2013-04-30 05:56:00,
2013-04-30 01:57:00,49.4,48.0,30.19,ESE,102,2.0,3.0,95,0.00,,,0.00,VWS V14.01,2013-04-30 05:57:00,
2013-04-30 01:58:00,49.4,48.0,30.19,SSE,148,1.0,4.0,95,0.01,,,0.01,VWS V14.01,2013-04-30 05:58:00,
2013-04-30 01:59:00,49.3,47.9,30.19,SSE,149,5.0,6.0,95,0.01,,,0.01,VWS V14.01,2013-04-30 05:59:00,
2013-04-30 02:00:00,49.3,47.9,30.18,SSE,149,0.0,6.0,95,0.01,,,0.01,VWS V14.01,2013-04-30 06:00:00,
2013-04-30 02:01:00,49.3,47.9,30.18,SSE,149,0.0,2.0,95,0.01,,,0.01,VWS V14.01,2013-04-30 06:01:00,
2013-04-30 02:02:00,49.3,47.9,30.18,SSE,149,0.0,2.0,95,0.01,,,0.01,VWS V14.01,2013-04-30 06:02:00,
2013-04-30 02:03:00,49.3,47.9,30.18,SSE,149,3.0,3.0,95,0.01,,,0.01,VWS V14.01,2013-04-30 06:03:00,
2013-04-30 02:04:00,49.3,47.9,30.18,SW,215,2.0,5.0,95,0.01,,,0.01,VWS V14.01,2013-04-30 06:04:00,
2013-04-30 02:05:00,49.2,47.8,30.18,SSW,213,2.0,5.0,95,0.01,,,0.01,VWS V14.01,2013-04-30 06:05:00,
2013-04-30 02:06:00,49.2,47.8,30.18,SE,131,4.0,7.0,95,0.01,,,0.01,VWS V14.01,2013-04-30 06:06:00,
2013-04-30 02:07:00,49.2,47.8,30.18,SE,127,1.0,7.0,95,0.01,,,0.01,VWS V14.01,2013-04-30 06:07:00,
2013-04-30 02:08:00,49.2,47.8,30.18,SE,127,3.0,7.0,95,0.01,,,0.01,VWS V14.01,2013-04-30 06:08:00,
2013-04-30 02:09:00,49.2,47.8,30.18,SE,126,3.0,7.0,95,0.01,,,0.01,VWS V14.01,2013-04-30 06:09:00,
2013-04-30 02:10:00,49.2,47.8,30.18,SE,132,3.0,7.0,95,0.01,,,0.01,VWS V14.01,2013-04-30 06:10:00,
2013-04-30 02:11:00,49.1,47.7,30.18,SE,132,0.0,2.0,95,0.01,,,0.01,VWS V14.01,2013-04-30 06:11:00,
2013-04-30 02:12:00,49.1,47.7,30.18,SE,132,1.0,2.0,95,0.01,,,0.01,VWS V14.01,2013-04-30 06:12:00,
2013-04-30 02:13:00,49.1,47.7,30.18,SE,132,0.0,3.0,95,0.01,,,0.01,VWS V14.01,2013-04-30 06:13:00,
2013-04-30 02:14:00,49.1,47.7,30.18,SE,132,0.0,3.0,95,0.01,,,0.01,VWS V14.01,2013-04-30 06:14:00,
2013-04-30 02:15:00,49.1,47.7,30.18,SE,140,3.0,5.0,95,0.01,,,0.01,VWS V14.01,2013-04-30 06:15:00,
2013-04-30 02:16:00,49.1,47.7,30.18,SE,140,3.0,5.0,95,0.01,,,0.01,VWS V14.01,2013-04-30 06:16:00,
2013-04-30 02:17:00,49.1,47.7,30.18,SE,140,0.0,5.0,95,0.01,,,0.01,VWS V14.01,2013-04-30 06:17:00,
2013-04-30 02:18:00,49.1,47.7,30.18,SE,137,3.0,5.0,95,0.01,,,0.01,VWS V14.01,2013-04-30 06:18:00,
2013-04-30 02:19:00,49.1,47.7,30.18,SE,137,2.0,5.0,95,0.01,,,0.01,VWS V14.01,2013-04-30 06:19:00,
2013-04-30 02:20:00,49.1,47.7,30.18,SE,136,0.0,5.0,95,0.01,,,0.01,VWS V14.01,2013-04-30 06:20:00,
2013-04-30 02:21:00,49.0,47.6,30.18,SE,137,2.0,2.0,95,0.01,,,0.01,VWS V14.01,2013-04-30 06:21:00,
2013-04-30 02:22:00,49.0,47.6,30.18,SE,137,4.0,4.0,95,0.01,,,0.01,VWS V14.01,2013-04-30 06:22:00,
2013-04-30 02:23:00,49.0,47.6,30.18,SSE,160,3.0,5.0,95,0.01,,,0.01,VWS V14.01,2013-04-30 06:23:00,
2013-04-30 02:24:00,49.0,47.6,30.18,SSE,160,0.0,5.0,95,0.01,,,0.01,VWS V14.01,2013-04-30 06:24:00,
2013-04-30 02:25:00,49.0,47.6,30.18,SSE,160,0.0,5.0,95,0.01,,,0.01,VWS V14.01,2013-04-30 06:25:00,
2013-04-30 02:26:00,49.0,47.6,30.18,SSE,160,1.0,5.0,95,0.01,,,0.01,VWS V14.01,2013-04-30 06:26:00,
2013-04-30 02:27:00,49.0,47.6,30.18,SSE,159,1.0,5.0,95,0.01,,,0.01,VWS V14.01,2013-04-30 06:27:00,
2013-04-30 02:28:00,49.0,47.6,30.18,SSE,160,2.0,5.0,95,0.01,,,0.01,VWS V14.01,2013-04-30 06:28:00,
2013-04-30 02:29:00,48.9,47.5,30.18,SSE,160,0.0,5.0,95,0.01,,,0.01,VWS V14.01,2013-04-30 06:29:00,
2013-04-30 02:30:00,49.0,47.6,30.18,SSE,160,3.0,5.0,95,0.01,,,0.01,VWS V14.01,2013-04-30 06:30:00,
2013-04-30 02:31:00,48.9,47.5,30.18,SSE,160,0.0,3.0,95,0.01,,,0.01,VWS V14.01,2013-04-30 06:31:00,
2013-04-30 02:32:00,48.9,47.5,30.18,SSE,159,0.0,3.0,95,0.01,,,0.01,VWS V14.01,2013-04-30 06:32:00,
2013-04-30 02:33:00,48.9,47.5,30.18,SSE,155,2.0,3.0,95,0.01,,,0.01,VWS V14.01,2013-04-30 06:33:00,
2013-04-30 02:34:00,48.9,47.5,30.18,SSE,155,0.0,3.0,95,0.01,,,0.01,VWS V14.01,2013-04-30 06:34:00,
2013-04-30 02:35:00,48.9,47.5,30.18,SSE,155,0.0,3.0,95,0.01,,,0.01,VWS V14.01,2013-04-30 06:35:00,
2013-04-30 02:36:00,48.9,47.5,30.18,SSE,155,2.0,3.0,95,0.01,,,0.01,VWS V14.01,2013-04-30 06:36:00,
2013-04-30 02:37:00,48.9,47.5,30.18,SSE,148,2.0,6.0,95,0.01,,,0.01,VWS V14.01,2013-04-30 06:37:00,
2013-04-30 02:38:00,48.9,47.5,30.18,SSE,148,0.0,6.0,95,0.01,,,0.01,VWS V14.01,2013-04-30 06:38:00,
2013-04-30 02:39:00,48.9,47.5,30.18,SE,142,5.0,6.0,95,0.01,,,0.01,VWS V14.01,2013-04-30 06:39:00,
2013-04-30 02:40:00,48.8,47.4,30.18,SE,135,2.0,6.0,95,0.01,,,0.01,VWS V14.01,2013-04-30 06:40:00,
2013-04-30 02:41:00,48.8,47.4,30.18,SE,135,0.0,0.0,95,0.01,,,0.01,VWS V14.01,2013-04-30 06:41:00,
2013-04-30 02:42:00,48.8,47.4,30.18,SE,135,0.0,0.0,95,0.01,,,0.01,VWS V14.01,2013-04-30 06:42:00,
2013-04-30 02:43:00,48.8,47.4,30.18,SE,135,0.0,0.0,95,0.01,,,0.01,VWS V14.01,2013-04-30 06:43:00,
2013-04-30 02:44:00,48.8,47.4,30.18,SE,135,3.0,3.0,95,0.01,,,0.01,VWS V14.01,2013-04-30 06:44:00,
2013-04-30 02:45:00,48.8,47.4,30.19,SE,135,0.0,3.0,95,0.01,,,0.01,VWS V14.01,2013-04-30 06:45:00,
2013-04-30 02:46:00,48.8,47.4,30.19,SE,135,0.0,3.0,95,0.01,,,0.01,VWS V14.01,2013-04-30 06:46:00,
2013-04-30 02:47:00,48.8,47.4,30.19,SE,135,0.0,3.0,95,0.01,,,0.01,VWS V14.01,2013-04-30 06:47:00,
2013-04-30 02:48:00,48.8,47.4,30.19,SE,135,2.0,3.0,95,0.01,,,0.01,VWS V14.01,2013-04-30 06:48:00,
2013-04-30 02:49:00,48.8,47.4,30.19,SE,135,3.0,4.0,95,0.01,,,0.01,VWS V14.01,2013-04-30 06:49:00,
2013-04-30 02:50:00,48.8,47.4,30.19,SE,136,3.0,4.0,95,0.01,,,0.01,VWS V14.01,2013-04-30 06:50:00,
2013-04-30 02:51:00,48.8,47.4,30.19,SE,135,3.0,4.0,95,0.01,,,0.01,VWS V14.01,2013-04-30 06:51:00,
2013-04-30 02:52:00,48.8,47.4,30.19,SE,135,2.0,4.0,95,0.01,,,0.01,VWS V14.01,2013-04-30 06:52:00,
2013-04-30 02:53:00,48.8,47.4,30.19,SE,136,2.0,4.0,95,0.01,,,0.01,VWS V14.01,2013-04-30 06:53:00,
2013-04-30 02:54:00,48.8,47.4,30.19,SE,136,4.0,4.0,95,0.01,,,0.01,VWS V14.01,2013-04-30 06:54:00,
2013-04-30 02:55:00,48.8,47.4,30.19,SE,136,0.0,4.0,95,0.01,,,0.01,VWS V14.01,2013-04-30 06:55:00,
2013-04-30 02:56:00,48.8,47.4,30.19,SE,136,0.0,4.0,95,0.01,,,0.01,VWS V14.01,2013-04-30 06:56:00,
2013-04-30 02:57:00,48.8,47.4,30.19,SE,136,0.0,4.0,95,0.01,,,0.01,VWS V14.01,2013-04-30 06:57:00,
2013-04-30 02:58:00,48.8,47.4,30.19,SE,129,3.0,4.0,95,0.01,,,0.01,VWS V14.01,2013-04-30 06:58:00,
2013-04-30 02:59:00,48.8,47.4,30.19,SE,129,2.0,4.0,95,0.01,,,0.01,VWS V14.01,2013-04-30 06:59:00,
2013-04-30 03:00:00,48.8,47.4,30.19,SE,129,0.0,4.0,95,0.01,,,0.01,VWS V14.01,2013-04-30 07:00:00,
2013-04-30 03:01:00,48.8,47.4,30.19,SE,129,0.0,2.0,95,0.00,,,0.01,VWS V14.01,2013-04-30 07:01:00,
2013-04-30 03:02:00,48.8,47.4,30.19,SE,130,4.0,4.0,95,0.00,,,0.01,VWS V14.01,2013-04-30 07:02:00,
2013-04-30 03:03:00,48.8,47.4,30.19,SE,130,0.0,4.0,95,0.00,,,0.01,VWS V14.01,2013-04-30 07:03:00,
2013-04-30 03:04:00,48.8,47.4,30.19,SE,130,2.0,4.0,95,0.00,,,0.01,VWS V14.01,2013-04-30 07:04:00,
2013-04-30 03:05:00,48.8,47.4,30.19,SE,130,0.0,4.0,95,0.00,,,0.01,VWS V14.01,2013-04-30 07:05:00,
2013-04-30 03:06:00,48.8,47.4,30.19,SE,130,1.0,4.0,95,0.00,,,0.01,VWS V14.01,2013-04-30 07:06:00,
2013-04-30 03:07:00,48.8,47.4,30.19,SE,130,0.0,4.0,95,0.00,,,0.01,VWS V14.01,2013-04-30 07:07:00,
2013-04-30 03:08:00,48.8,47.4,30.19,SE,130,1.0,4.0,95,0.00,,,0.01,VWS V14.01,2013-04-30 07:08:00,
2013-04-30 03:09:00,48.8,47.4,30.19,SE,130,0.0,4.0,95,0.00,,,0.01,VWS V14.01,2013-04-30 07:09:00,
2013-04-30 03:10:00,48.8,47.4,30.19,SE,130,2.0,4.0,95,0.00,,,0.01,VWS V14.01,2013-04-30 07:10:00,
2013-04-30 03:11:00,48.8,47.4,30.19,SE,130,2.0,3.0,95,0.00,,,0.01,VWS V14.01,2013-04-30 07:11:00,
2013-04-30 03:12:00,48.8,47.4,30.19,SE,141,5.0,5.0,95,0.00,,,0.01,VWS V14.01,2013-04-30 07:12:00,
2013-04-30 03:13:00,48.8,47.4,30.19,SE,143,0.0,5.0,95,0.00,,,0.01,VWS V14.01,2013-04-30 07:13:00,
2013-04-30 03:14:00,48.8,47.4,30.19,SE,143,0.0,5.0,95,0.00,,,0.01,VWS V14.01,2013-04-30 07:14:00,
2013-04-30 03:15:00,48.8,47.4,30.19,SE,143,0.0,5.0,95,0.00,,,0.01,VWS V14.01,2013-04-30 07:15:00,
2013-04-30 03:16:00,48.8,47.4,30.19,SE,143,0.0,5.0,95,0.00,,,0.01,VWS V14.01,2013-04-30 07:16:00,
2013-04-30 03:17:00,48.8,47.4,30.19,SE,143,0.0,5.0,95,0.00,,,0.01,VWS V14.01,2013-04-30 07:17:00,
2013-04-30 03:18:00,48.8,47.4,30.19,SE,143,0.0,5.0,95,0.00,,,0.01,VWS V14.01,2013-04-30 07:18:00,
2013-04-30 03:19:00,48.8,47.4,30.19,SE,143,0.0,5.0,95,0.00,,,0.01,VWS V14.01,2013-04-30 07:19:00,
2013-04-30 03:20:00,48.8,47.4,30.19,SE,143,2.0,5.0,95,0.00,,,0.01,VWS V14.01,2013-04-30 07:20:00,
2013-04-30 03:21:00,48.8,47.4,30.19,SE,143,0.0,3.0,95,0.00,,,0.01,VWS V14.01,2013-04-30 07:21:00,
2013-04-30 03:22:00,48.8,47.4,30.19,SE,143,0.0,3.0,95,0.00,,,0.01,VWS V14.01,2013-04-30 07:22:00,
2013-04-30 03:23:00,48.8,47.4,30.19,SE,143,0.0,3.0,95,0.00,,,0.01,VWS V14.01,2013-04-30 07:23:00,
2013-04-30 03:24:00,48.8,47.4,30.19,SE,143,0.0,3.0,95,0.00,,,0.01,VWS V14.01,2013-04-30 07:24:00,
2013-04-30 03:25:00,48.8,47.4,30.19,SE,143,0.0,3.0,95,0.00,,,0.01,VWS V14.01,2013-04-30 07:25:00,
2013-04-30 03:26:00,48.8,47.4,30.19,SE,143,2.0,3.0,95,0.00,,,0.01,VWS V14.01,2013-04-30 07:26:00,
2013-04-30 03:27:00,48.8,47.4,30.19,SE,143,0.0,3.0,95,0.00,,,0.01,VWS V14.01,2013-04-30 07:27:00,
2013-04-30 03:28:00,48.8,47.4,30.19,SE,143,0.0,3.0,95,0.00,,,0.01,VWS V14.01,2013-04-30 07:28:00,
2013-04-30 03:29:00,48.8,47.4,30.19,SE,143,0.0,3.0,95,0.00,,,0.01,VWS V14.01,2013-04-30 07:29:00,
2013-04-30 03:30:00,48.8,47.4,30.19,SE,143,0.0,3.0,95,0.00,,,0.01,VWS V14.01,2013-04-30 07:30:00,
2013-04-30 03:31:00,48.8,47.4,30.19,SE,143,0.0,0.0,95,0.00,,,0.01,VWS V14.01,2013-04-30 07:31:00,
2013-04-30 03:32:00,48.8,47.4,30.19,SE,143,2.0,2.0,95,0.00,,,0.01,VWS V14.01,2013-04-30 07:32:00,
2013-04-30 03:33:00,48.8,47.4,30.19,East,85,6.0,6.0,95,0.00,,,0.01,VWS V14.01,2013-04-30 07:33:00,
2013-04-30 03:34:00,48.8,47.4,30.19,ESE,116,1.0,6.0,95,0.00,,,0.01,VWS V14.01,2013-04-30 07:34:00,
2013-04-30 03:35:00,48.8,47.4,30.19,ESE,116,1.0,6.0,95,0.00,,,0.01,VWS V14.01,2013-04-30 07:35:00,
2013-04-30 03:36:00,48.8,47.4,30.19,ESE,122,1.0,6.0,95,0.00,,,0.01,VWS V14.01,2013-04-30 07:36:00,
2013-04-30 03:37:00,48.8,47.4,30.19,ESE,122,0.0,6.0,95,0.00,,,0.01,VWS V14.01,2013-04-30 07:37:00,
2013-04-30 03:38:00,48.8,47.4,30.19,ESE,122,1.0,6.0,95,0.00,,,0.01,VWS V14.01,2013-04-30 07:38:00,
2013-04-30 03:39:00,48.8,47.4,30.19,ESE,122,0.0,6.0,95,0.00,,,0.01,VWS V14.01,2013-04-30 07:39:00,
2013-04-30 03:40:00,48.8,47.4,30.19,ESE,122,0.0,6.0,95,0.00,,,0.01,VWS V14.01,2013-04-30 07:40:00,
2013-04-30 03:41:00,48.8,47.4,30.19,ESE,122,3.0,3.0,95,0.00,,,0.01,VWS V14.01,2013-04-30 07:41:00,
2013-04-30 03:42:00,48.8,47.4,30.19,ESE,122,0.0,3.0,95,0.00,,,0.01,VWS V14.01,2013-04-30 07:42:00,
2013-04-30 03:43:00,48.8,47.4,30.19,ESE,117,1.0,3.0,95,0.00,,,0.01,VWS V14.01,2013-04-30 07:43:00,
2013-04-30 03:44:00,48.8,47.4,30.19,ESE,117,2.0,3.0,95,0.00,,,0.01,VWS V14.01,2013-04-30 07:44:00,
2013-04-30 03:45:00,48.8,47.4,30.19,ESE,118,0.0,3.0,95,0.00,,,0.01,VWS V14.01,2013-04-30 07:45:00,
2013-04-30 03:46:00,48.8,47.4,30.19,ESE,117,0.0,3.0,95,0.00,,,0.01,VWS V14.01,2013-04-30 07:46:00,
2013-04-30 03:47:00,48.8,47.4,30.19,East,89,3.0,3.0,95,0.00,,,0.01,VWS V14.01,2013-04-30 07:47:00,
2013-04-30 03:48:00,48.7,47.3,30.19,East,82,2.0,3.0,95,0.00,,,0.01,VWS V14.01,2013-04-30 07:48:00,
2013-04-30 03:49:00,48.7,47.3,30.19,East,83,2.0,3.0,95,0.00,,,0.01,VWS V14.01,2013-04-30 07:49:00,
2013-04-30 03:50:00,48.8,47.4,30.19,East,88,0.0,3.0,95,0.00,,,0.01,VWS V14.01,2013-04-30 07:50:00,
2013-04-30 03:51:00,48.7,47.3,30.19,East,88,1.0,2.0,95,0.00,,,0.01,VWS V14.01,2013-04-30 07:51:00,
2013-04-30 03:52:00,48.8,47.4,30.19,East,89,2.0,2.0,95,0.00,,,0.01,VWS V14.01,2013-04-30 07:52:00,
2013-04-30 03:53:00,48.8,47.4,30.19,East,90,3.0,5.0,95,0.00,,,0.01,VWS V14.01,2013-04-30 07:53:00,
2013-04-30 03:54:00,48.8,47.4,30.19,East,83,3.0,5.0,95,0.00,,,0.01,VWS V14.01,2013-04-30 07:54:00,
2013-04-30 03:55:00,48.8,47.4,30.19,ENE,78,3.0,5.0,95,0.00,,,0.01,VWS V14.01,2013-04-30 07:55:00,
2013-04-30 03:56:00,48.7,47.3,30.19,ENE,77,3.0,5.0,95,0.00,,,0.01,VWS V14.01,2013-04-30 07:56:00,
2013-04-30 03:57:00,48.7,47.3,30.19,ENE,78,0.0,5.0,95,0.00,,,0.01,VWS V14.01,2013-04-30 07:57:00,
2013-04-30 03:58:00,48.7,47.3,30.19,ENE,78,2.0,5.0,95,0.00,,,0.01,VWS V14.01,2013-04-30 07:58:00,
2013-04-30 03:59:00,48.7,47.3,30.19,ENE,78,0.0,5.0,95,0.00,,,0.01,VWS V14.01,2013-04-30 07:59:00,
2013-04-30 04:00:00,48.7,47.3,30.19,ENE,78,1.0,5.0,95,0.00,,,0.01,VWS V14.01,2013-04-30 08:00:00,
2013-04-30 04:01:00,48.7,47.3,30.19,ESE,108,2.0,6.0,95,0.00,,,0.01,VWS V14.01,2013-04-30 08:01:00,
2013-04-30 04:02:00,48.7,47.3,30.19,ESE,106,1.0,6.0,95,0.00,,,0.01,VWS V14.01,2013-04-30 08:02:00,
2013-04-30 04:03:00,48.7,47.3,30.19,ESE,106,0.0,6.0,95,0.00,,,0.01,VWS V14.01,2013-04-30 08:03:00,
2013-04-30 04:04:00,48.7,47.3,30.19,ESE,106,0.0,6.0,95,0.00,,,0.01,VWS V14.01,2013-04-30 08:04:00,
2013-04-30 04:05:00,48.7,47.3,30.19,ESE,106,0.0,6.0,95,0.00,,,0.01,VWS V14.01,2013-04-30 08:05:00,
2013-04-30 04:06:00,48.7,47.3,30.19,ESE,106,0.0,6.0,95,0.00,,,0.01,VWS V14.01,2013-04-30 08:06:00,
2013-04-30 04:07:00,48.7,47.3,30.19,ESE,106,1.0,6.0,95,0.00,,,0.01,VWS V14.01,2013-04-30 08:07:00,
2013-04-30 04:08:00,48.7,47.3,30.19,ESE,106,0.0,6.0,95,0.00,,,0.01,VWS V14.01,2013-04-30 08:08:00,
2013-04-30 04:09:00,48.7,47.3,30.19,ESE,106,1.0,6.0,95,0.00,,,0.01,VWS V14.01,2013-04-30 08:09:00,
2013-04-30 04:10:00,48.7,47.3,30.19,ESE,102,3.0,6.0,95,0.00,,,0.01,VWS V14.01,2013-04-30 08:10:00,
2013-04-30 04:11:00,48.7,47.6,30.19,East,96,0.0,3.0,96,0.00,,,0.01,VWS V14.01,2013-04-30 08:11:00,
2013-04-30 04:12:00,48.8,47.7,30.19,East,92,5.0,5.0,96,0.00,,,0.01,VWS V14.01,2013-04-30 08:12:00,
2013-04-30 04:13:00,48.8,47.7,30.19,East,92,5.0,5.0,96,0.00,,,0.01,VWS V14.01,2013-04-30 08:13:00,
2013-04-30 04:14:00,48.8,47.7,30.19,East,94,2.0,5.0,96,0.00,,,0.01,VWS V14.01,2013-04-30 08:14:00,
2013-04-30 04:15:00,48.8,47.7,30.19,East,94,1.0,5.0,96,0.00,,,0.01,VWS V14.01,2013-04-30 08:15:00,
2013-04-30 04:16:00,48.8,47.7,30.19,East,94,2.0,5.0,96,0.00,,,0.01,VWS V14.01,2013-04-30 08:16:00,
2013-04-30 04:17:00,48.8,47.7,30.19,East,94,2.0,5.0,96,0.00,,,0.01,VWS V14.01,2013-04-30 08:17:00,
2013-04-30 04:18:00,48.8,47.7,30.19,East,94,0.0,5.0,96,0.00,,,0.01,VWS V14.01,2013-04-30 08:18:00,
2013-04-30 04:19:00,48.8,47.7,30.19,East,94,1.0,5.0,96,0.00,,,0.01,VWS V14.01,2013-04-30 08:19:00,
2013-04-30 04:20:00,48.8,47.7,30.19,East,94,2.0,5.0,96,0.00,,,0.01,VWS V14.01,2013-04-30 08:20:00,
2013-04-30 04:21:00,48.8,47.7,30.19,East,94,2.0,3.0,96,0.00,,,0.01,VWS V14.01,2013-04-30 08:21:00,
2013-04-30 04:22:00,48.8,47.7,30.19,East,94,0.0,3.0,96,0.00,,,0.01,VWS V14.01,2013-04-30 08:22:00,
2013-04-30 04:23:00,48.8,47.7,30.19,East,94,0.0,3.0,96,0.00,,,0.01,VWS V14.01,2013-04-30 08:23:00,
2013-04-30 04:24:00,48.8,47.7,30.19,East,94,0.0,3.0,96,0.00,,,0.01,VWS V14.01,2013-04-30 08:24:00,
2013-04-30 04:25:00,48.8,47.7,30.19,East,94,0.0,3.0,96,0.00,,,0.01,VWS V14.01,2013-04-30 08:25:00,
2013-04-30 04:26:00,48.8,47.7,30.19,East,94,0.0,3.0,96,0.00,,,0.01,VWS V14.01,2013-04-30 08:26:00,
2013-04-30 04:27:00,48.8,47.7,30.19,East,94,0.0,3.0,96,0.00,,,0.01,VWS V14.01,2013-04-30 08:27:00,
2013-04-30 04:28:00,48.8,47.7,30.19,East,94,2.0,3.0,96,0.00,,,0.01,VWS V14.01,2013-04-30 08:28:00,
2013-04-30 04:29:00,48.8,47.7,30.19,East,94,1.0,3.0,96,0.00,,,0.01,VWS V14.01,2013-04-30 08:29:00,
2013-04-30 04:30:00,48.8,47.7,30.19,East,94,2.0,3.0,96,0.00,,,0.01,VWS V14.01,2013-04-30 08:30:00,
2013-04-30 04:31:00,48.8,47.7,30.19,East,88,0.0,3.0,96,0.00,,,0.01,VWS V14.01,2013-04-30 08:31:00,
2013-04-30 04:32:00,48.8,47.7,30.19,East,88,0.0,3.0,96,0.00,,,0.01,VWS V14.01,2013-04-30 08:32:00,
2013-04-30 04:33:00,48.8,47.7,30.19,East,88,1.0,3.0,96,0.00,,,0.01,VWS V14.01,2013-04-30 08:33:00,
2013-04-30 04:34:00,48.8,47.7,30.19,East,88,1.0,3.0,96,0.00,,,0.01,VWS V14.01,2013-04-30 08:34:00,
2013-04-30 04:35:00,48.8,47.7,30.19,East,88,3.0,3.0,96,0.00,,,0.01,VWS V14.01,2013-04-30 08:35:00,
2013-04-30 04:36:00,48.8,47.7,30.19,East,88,0.0,3.0,96,0.00,,,0.01,VWS V14.01,2013-04-30 08:36:00,
2013-04-30 04:37:00,48.8,47.7,30.19,East,88,0.0,3.0,96,0.00,,,0.01,VWS V14.01,2013-04-30 08:37:00,
2013-04-30 04:38:00,48.8,47.7,30.19,East,88,0.0,3.0,96,0.00,,,0.01,VWS V14.01,2013-04-30 08:38:00,
2013-04-30 04:39:00,48.8,47.7,30.19,East,88,2.0,3.0,96,0.00,,,0.01,VWS V14.01,2013-04-30 08:39:00,
2013-04-30 04:40:00,48.8,47.7,30.19,East,88,2.0,3.0,96,0.00,,,0.01,VWS V14.01,2013-04-30 08:40:00,
2013-04-30 04:41:00,48.8,47.7,30.19,East,88,0.0,3.0,96,0.00,,,0.01,VWS V14.01,2013-04-30 08:41:00,
2013-04-30 04:42:00,48.7,47.6,30.19,East,88,2.0,3.0,96,0.00,,,0.01,VWS V14.01,2013-04-30 08:42:00,
2013-04-30 04:43:00,48.7,47.6,30.19,East,88,2.0,3.0,96,0.00,,,0.01,VWS V14.01,2013-04-30 08:43:00,
2013-04-30 04:44:00,48.7,47.6,30.19,East,88,0.0,3.0,96,0.00,,,0.01,VWS V14.01,2013-04-30 08:44:00,
2013-04-30 04:45:00,48.7,47.6,30.20,East,88,2.0,3.0,96,0.00,,,0.01,VWS V14.01,2013-04-30 08:45:00,
2013-04-30 04:46:00,48.7,47.6,30.20,East,88,2.0,3.0,96,0.00,,,0.01,VWS V14.01,2013-04-30 08:46:00,
2013-04-30 04:47:00,48.7,47.6,30.20,East,88,0.0,3.0,96,0.00,,,0.01,VWS V14.01,2013-04-30 08:47:00,
2013-04-30 04:48:00,48.7,47.6,30.20,East,88,0.0,3.0,96,0.00,,,0.01,VWS V14.01,2013-04-30 08:48:00,
2013-04-30 04:49:00,48.8,47.7,30.20,East,88,0.0,3.0,96,0.00,,,0.01,VWS V14.01,2013-04-30 08:49:00,
2013-04-30 04:50:00,48.7,47.6,30.20,East,88,0.0,3.0,96,0.00,,,0.01,VWS V14.01,2013-04-30 08:50:00,
2013-04-30 04:51:00,48.7,47.6,30.20,East,88,0.0,2.0,96,0.00,,,0.01,VWS V14.01,2013-04-30 08:51:00,
2013-04-30 04:52:00,48.7,47.6,30.20,East,87,2.0,3.0,96,0.00,,,0.01,VWS V14.01,2013-04-30 08:52:00,
2013-04-30 04:53:00,48.7,47.6,30.20,East,87,1.0,3.0,96,0.00,,,0.01,VWS V14.01,2013-04-30 08:53:00,
2013-04-30 04:54:00,48.7,47.6,30.20,East,87,0.0,3.0,96,0.00,,,0.01,VWS V14.01,2013-04-30 08:54:00,
2013-04-30 04:55:00,48.7,47.6,30.20,East,87,1.0,3.0,96,0.00,,,0.01,VWS V14.01,2013-04-30 08:55:00,
2013-04-30 04:56:00,48.7,47.6,30.20,East,84,5.0,5.0,96,0.00,,,0.01,VWS V14.01,2013-04-30 08:56:00,
2013-04-30 04:57:00,48.7,47.6,30.20,East,95,1.0,5.0,96,0.00,,,0.01,VWS V14.01,2013-04-30 08:57:00,
2013-04-30 04:58:00,48.7,47.6,30.20,East,95,2.0,5.0,96,0.00,,,0.01,VWS V14.01,2013-04-30 08:58:00,
2013-04-30 04:59:00,48.7,47.6,30.20,East,95,0.0,5.0,96,0.00,,,0.01,VWS V14.01,2013-04-30 08:59:00,
2013-04-30 05:00:00,48.7,47.6,30.20,East,95,1.0,5.0,96,0.00,,,0.01,VWS V14.01,2013-04-30 09:00:00,
2013-04-30 05:01:00,48.7,47.6,30.20,East,95,1.0,2.0,96,0.00,,,0.01,VWS V14.01,2013-04-30 09:01:00,
2013-04-30 05:02:00,48.7,47.6,30.20,East,95,1.0,2.0,96,0.00,,,0.01,VWS V14.01,2013-04-30 09:02:00,
2013-04-30 05:03:00,48.8,47.7,30.20,East,95,2.0,3.0,96,0.00,,,0.01,VWS V14.01,2013-04-30 09:03:00,
2013-04-30 05:04:00,48.8,47.7,30.20,East,95,1.0,3.0,96,0.00,,,0.01,VWS V14.01,2013-04-30 09:04:00,
2013-04-30 05:05:00,48.8,47.7,30.20,East,95,1.0,3.0,96,0.00,,,0.01,VWS V14.01,2013-04-30 09:05:00,
2013-04-30 05:06:00,48.7,47.6,30.20,East,95,0.0,3.0,96,0.00,,,0.01,VWS V14.01,2013-04-30 09:06:00,
2013-04-30 05:07:00,48.7,47.6,30.20,East,95,0.0,3.0,96,0.00,,,0.01,VWS V14.01,2013-04-30 09:07:00,
2013-04-30 05:08:00,48.8,47.7,30.20,East,95,0.0,3.0,96,0.00,,,0.01,VWS V14.01,2013-04-30 09:08:00,
2013-04-30 05:09:00,48.8,47.7,30.20,East,95,1.0,3.0,96,0.00,,,0.01,VWS V14.01,2013-04-30 09:09:00,
2013-04-30 05:10:00,48.8,47.7,30.20,East,95,0.0,3.0,96,0.00,,,0.01,VWS V14.01,2013-04-30 09:10:00,
2013-04-30 05:11:00,48.8,47.7,30.20,East,95,0.0,0.0,96,0.00,,,0.01,VWS V14.01,2013-04-30 09:11:00,
2013-04-30 05:12:00,48.8,47.7,30.20,East,95,0.0,5.0,96,0.00,,,0.01,VWS V14.01,2013-04-30 09:12:00,
2013-04-30 05:13:00,48.8,47.7,30.20,East,95,0.0,5.0,96,0.00,,,0.01,VWS V14.01,2013-04-30 09:13:00,
2013-04-30 05:14:00,48.8,47.7,30.20,East,95,1.0,5.0,96,0.00,,,0.01,VWS V14.01,2013-04-30 09:14:00,
2013-04-30 05:15:00,48.8,47.7,30.20,East,95,0.0,5.0,96,0.00,,,0.01,VWS V14.01,2013-04-30 09:15:00,
2013-04-30 05:16:00,48.8,47.7,30.20,East,95,2.0,5.0,96,0.00,,,0.01,VWS V14.01,2013-04-30 09:16:00,
2013-04-30 05:17:00,48.8,47.7,30.20,East,95,0.0,5.0,96,0.00,,,0.01,VWS V14.01,2013-04-30 09:17:00,
2013-04-30 05:18:00,48.8,47.7,30.20,East,95,0.0,5.0,96,0.00,,,0.01,VWS V14.01,2013-04-30 09:18:00,
2013-04-30 05:19:00,48.7,47.6,30.20,East,95,0.0,5.0,96,0.00,,,0.01,VWS V14.01,2013-04-30 09:19:00,
2013-04-30 05:20:00,48.8,47.7,30.20,East,95,0.0,5.0,96,0.00,,,0.01,VWS V14.01,2013-04-30 09:20:00,
2013-04-30 05:21:00,48.8,47.7,30.20,SE,136,2.0,4.0,96,0.00,,,0.01,VWS V14.01,2013-04-30 09:21:00,
2013-04-30 05:22:00,48.8,47.7,30.20,SE,134,1.0,4.0,96,0.00,,,0.01,VWS V14.01,2013-04-30 09:22:00,
2013-04-30 05:23:00,48.8,47.7,30.20,SE,124,2.0,4.0,96,0.00,,,0.01,VWS V14.01,2013-04-30 09:23:00,
2013-04-30 05:24:00,48.8,47.7,30.20,ESE,119,1.0,4.0,96,0.00,,,0.01,VWS V14.01,2013-04-30 09:24:00,
2013-04-30 05:25:00,48.8,47.7,30.20,ESE,118,2.0,4.0,96,0.00,,,0.01,VWS V14.01,2013-04-30 09:25:00,
2013-04-30 05:26:00,48.7,47.6,30.20,ESE,118,0.0,4.0,96,0.00,,,0.01,VWS V14.01,2013-04-30 09:26:00,
2013-04-30 05:27:00,48.8,47.7,30.20,ESE,118,0.0,4.0,96,0.00,,,0.01,VWS V14.01,2013-04-30 09:27:00,
2013-04-30 05:28:00,48.7,47.6,30.20,SE,128,1.0,4.0,96,0.00,,,0.01,VWS V14.01,2013-04-30 09:28:00,
2013-04-30 05:29:00,48.7,47.6,30.20,NE,45,2.0,4.0,96,0.00,,,0.01,VWS V14.01,2013-04-30 09:29:00,
2013-04-30 05:30:00,48.7,47.6,30.21,NE,45,1.0,4.0,96,0.00,,,0.01,VWS V14.01,2013-04-30 09:30:00,
2013-04-30 05:31:00,48.8,47.7,30.21,NE,45,0.0,2.0,96,0.00,,,0.01,VWS V14.01,2013-04-30 09:31:00,
2013-04-30 05:32:00,48.7,47.6,30.21,NE,45,0.0,2.0,96,0.00,,,0.01,VWS V14.01,2013-04-30 09:32:00,
2013-04-30 05:33:00,48.7,47.6,30.21,NE,45,0.0,2.0,96,0.00,,,0.01,VWS V14.01,2013-04-30 09:33:00,
2013-04-30 05:34:00,48.7,47.6,30.21,NE,45,0.0,2.0,96,0.00,,,0.01,VWS V14.01,2013-04-30 09:34:00,
2013-04-30 05:35:00,48.7,47.6,30.21,SSE,149,0.0,6.0,96,0.00,,,0.01,VWS V14.01,2013-04-30 09:35:00,
2013-04-30 05:36:00,48.7,47.6,30.21,ENE,77,5.0,6.0,96,0.00,,,0.01,VWS V14.01,2013-04-30 09:36:00,
2013-04-30 05:37:00,48.7,47.6,30.21,ENE,76,1.0,6.0,96,0.00,,,0.01,VWS V14.01,2013-04-30 09:37:00,
2013-04-30 05:38:00,48.7,47.6,30.21,ENE,76,0.0,6.0,96,0.00,,,0.01,VWS V14.01,2013-04-30 09:38:00,
2013-04-30 05:39:00,48.7,47.6,30.21,ENE,76,0.0,6.0,96,0.00,,,0.01,VWS V14.01,2013-04-30 09:39:00,
2013-04-30 05:40:00,48.7,47.6,30.21,SSE,161,2.0,6.0,96,0.00,,,0.01,VWS V14.01,2013-04-30 09:40:00,
2013-04-30 05:41:00,48.8,47.7,30.21,SSE,161,0.0,2.0,96,0.00,,,0.01,VWS V14.01,2013-04-30 09:41:00,
2013-04-30 05:42:00,48.8,47.7,30.21,ESE,110,2.0,4.0,96,0.00,,,0.01,VWS V14.01,2013-04-30 09:42:00,
2013-04-30 05:43:00,48.8,47.7,30.21,ESE,109,3.0,4.0,96,0.00,,,0.01,VWS V14.01,2013-04-30 09:43:00,
2013-04-30 05:44:00,48.7,47.6,30.21,ESE,110,0.0,4.0,96,0.00,,,0.01,VWS V14.01,2013-04-30 09:44:00,
2013-04-30 05:45:00,48.8,47.7,30.22,ESE,109,0.0,4.0,96,0.00,,,0.01,VWS V14.01,2013-04-30 09:45:00,
2013-04-30 05:46:00,48.7,47.6,30.22,ESE,109,0.0,4.0,96,0.00,,,0.01,VWS V14.01,2013-04-30 09:46:00,
2013-04-30 05:47:00,48.8,47.7,30.22,ESE,109,0.0,4.0,96,0.00,,,0.01,VWS V14.01,2013-04-30 09:47:00,
2013-04-30 05:48:00,48.8,47.7,30.22,ESE,109,0.0,4.0,96,0.00,,,0.01,VWS V14.01,2013-04-30 09:48:00,
2013-04-30 05:49:00,48.8,47.7,30.22,ESE,109,0.0,4.0,96,0.00,,,0.01,VWS V14.01,2013-04-30 09:49:00,
2013-04-30 05:50:00,48.8,47.7,30.22,ESE,109,2.0,4.0,96,0.00,,,0.01,VWS V14.01,2013-04-30 09:50:00,
2013-04-30 05:51:00,48.8,47.7,30.22,SE,134,2.0,4.0,96,0.00,,,0.01,VWS V14.01,2013-04-30 09:51:00,
2013-04-30 05:52:00,48.8,47.7,30.22,ESE,121,2.0,7.0,96,0.00,,,0.01,VWS V14.01,2013-04-30 09:52:00,
2013-04-30 05:53:00,48.8,47.7,30.22,ESE,119,3.0,7.0,96,0.00,,,0.01,VWS V14.01,2013-04-30 09:53:00,
2013-04-30 05:54:00,48.8,47.7,30.22,ESE,118,2.0,7.0,96,0.00,,,0.01,VWS V14.01,2013-04-30 09:54:00,
2013-04-30 05:55:00,48.8,47.7,30.22,ESE,119,0.0,7.0,96,0.00,,,0.01,VWS V14.01,2013-04-30 09:55:00,
2013-04-30 05:56:00,48.8,47.7,30.22,ESE,119,0.0,7.0,96,0.00,,,0.01,VWS V14.01,2013-04-30 09:56:00,
2013-04-30 05:57:00,48.8,47.7,30.22,ESE,119,2.0,7.0,96,0.00,,,0.01,VWS V14.01,2013-04-30 09:57:00,
2013-04-30 05:58:00,48.8,47.7,30.22,ESE,119,0.0,7.0,96,0.00,,,0.01,VWS V14.01,2013-04-30 09:58:00,
2013-04-30 05:59:00,48.8,47.7,30.22,ESE,119,0.0,7.0,96,0.00,,,0.01,VWS V14.01,2013-04-30 09:59:00,
2013-04-30 06:00:00,48.8,47.7,30.22,ESE,119,4.0,7.0,96,0.00,,,0.01,VWS V14.01,2013-04-30 10:00:00,
2013-04-30 06:01:00,48.8,47.7,30.22,ESE,119,0.0,2.0,96,0.00,,,0.01,VWS V14.01,2013-04-30 10:01:00,
2013-04-30 06:02:00,48.8,47.7,30.22,ESE,119,0.0,2.0,96,0.00,,,0.01,VWS V14.01,2013-04-30 10:02:00,
2013-04-30 06:03:00,48.8,47.7,30.22,ESE,119,0.0,2.0,96,0.00,,,0.01,VWS V14.01,2013-04-30 10:03:00,
2013-04-30 06:04:00,48.8,47.7,30.22,ESE,119,3.0,3.0,96,0.00,,,0.01,VWS V14.01,2013-04-30 10:04:00,
2013-04-30 06:05:00,48.8,47.7,30.22,ESE,106,3.0,4.0,96,0.00,,,0.01,VWS V14.01,2013-04-30 10:05:00,
2013-04-30 06:06:00,48.8,47.7,30.22,ESE,106,0.0,4.0,96,0.00,,,0.01,VWS V14.01,2013-04-30 10:06:00,
2013-04-30 06:07:00,48.8,47.7,30.22,ESE,106,0.0,4.0,96,0.00,,,0.01,VWS V14.01,2013-04-30 10:07:00,
2013-04-30 06:08:00,48.8,47.7,30.22,ESE,106,1.0,4.0,96,0.00,,,0.01,VWS V14.01,2013-04-30 10:08:00,
2013-04-30 06:09:00,48.8,47.7,30.22,ESE,106,3.0,4.0,96,0.00,,,0.01,VWS V14.01,2013-04-30 10:09:00,
2013-04-30 06:10:00,48.8,47.7,30.22,ESE,107,2.0,4.0,96,0.00,,,0.01,VWS V14.01,2013-04-30 10:10:00,
2013-04-30 06:11:00,48.8,47.7,30.22,ESE,107,2.0,2.0,96,0.00,,,0.01,VWS V14.01,2013-04-30 10:11:00,
2013-04-30 06:12:00,48.8,47.7,30.22,ESE,106,1.0,3.0,96,0.00,,,0.01,VWS V14.01,2013-04-30 10:12:00,
2013-04-30 06:13:00,48.8,47.7,30.22,ESE,107,1.0,3.0,96,0.00,,,0.01,VWS V14.01,2013-04-30 10:13:00,
2013-04-30 06:14:00,48.8,47.7,30.22,ESE,106,3.0,3.0,96,0.00,,,0.01,VWS V14.01,2013-04-30 10:14:00,
2013-04-30 06:15:00,48.8,47.7,30.22,ESE,106,1.0,3.0,96,0.00,,,0.01,VWS V14.01,2013-04-30 10:15:00,
2013-04-30 06:16:00,48.8,47.7,30.22,ESE,106,0.0,3.0,96,0.00,,,0.01,VWS V14.01,2013-04-30 10:16:00,
2013-04-30 06:17:00,48.8,47.7,30.22,ESE,106,0.0,3.0,96,0.00,,,0.01,VWS V14.01,2013-04-30 10:17:00,
2013-04-30 06:18:00,48.8,47.7,30.22,ESE,106,0.0,3.0,96,0.00,,,0.01,VWS V14.01,2013-04-30 10:18:00,
2013-04-30 06:19:00,48.9,47.8,30.22,ESE,106,2.0,3.0,96,0.00,,,0.01,VWS V14.01,2013-04-30 10:19:00,
2013-04-30 06:20:00,48.8,47.7,30.22,ESE,107,4.0,4.0,96,0.00,,,0.01,VWS V14.01,2013-04-30 10:20:00,
2013-04-30 06:21:00,48.9,47.8,30.22,ESE,107,2.0,4.0,96,0.00,,,0.01,VWS V14.01,2013-04-30 10:21:00,
2013-04-30 06:22:00,48.9,47.8,30.22,ESE,107,0.0,4.0,96,0.00,,,0.01,VWS V14.01,2013-04-30 10:22:00,
2013-04-30 06:23:00,48.9,47.8,30.22,ESE,107,0.0,4.0,96,0.00,,,0.01,VWS V14.01,2013-04-30 10:23:00,
2013-04-30 06:24:00,48.9,47.8,30.22,ESE,107,2.0,4.0,96,0.00,,,0.01,VWS V14.01,2013-04-30 10:24:00,
2013-04-30 06:25:00,48.9,47.8,30.22,ESE,107,1.0,4.0,96,0.00,,,0.01,VWS V14.01,2013-04-30 10:25:00,
2013-04-30 06:26:00,48.9,47.8,30.22,East,92,2.0,6.0,96,0.00,,,0.01,VWS V14.01,2013-04-30 10:26:00,
2013-04-30 06:27:00,48.9,47.8,30.22,East,92,0.0,6.0,96,0.00,,,0.01,VWS V14.01,2013-04-30 10:27:00,
2013-04-30 06:28:00,48.9,47.8,30.22,East,92,0.0,6.0,96,0.00,,,0.01,VWS V14.01,2013-04-30 10:28:00,
2013-04-30 06:29:00,49.0,47.9,30.22,East,92,1.0,6.0,96,0.00,,,0.01,VWS V14.01,2013-04-30 10:29:00,
2013-04-30 06:30:00,49.0,47.9,30.23,East,92,1.0,6.0,96,0.00,,,0.01,VWS V14.01,2013-04-30 10:30:00,
2013-04-30 06:31:00,49.0,47.9,30.23,East,92,0.0,1.0,96,0.00,,,0.01,VWS V14.01,2013-04-30 10:31:00,
2013-04-30 06:32:00,49.0,47.9,30.23,East,92,0.0,1.0,96,0.00,,,0.01,VWS V14.01,2013-04-30 10:32:00,
2013-04-30 06:33:00,49.0,47.9,30.23,East,92,0.0,1.0,96,0.00,,,0.01,VWS V14.01,2013-04-30 10:33:00,
2013-04-30 06:34:00,49.0,47.9,30.23,East,92,2.0,2.0,96,0.00,,,0.01,VWS V14.01,2013-04-30 10:34:00,
2013-04-30 06:35:00,49.0,47.9,30.23,East,100,2.0,5.0,96,0.00,,,0.01,VWS V14.01,2013-04-30 10:35:00,
2013-04-30 06:36:00,49.0,47.9,30.23,East,100,0.0,5.0,96,0.00,,,0.01,VWS V14.01,2013-04-30 10:36:00,
2013-04-30 06:37:00,49.0,47.9,30.23,East,100,0.0,5.0,96,0.00,,,0.01,VWS V14.01,2013-04-30 10:37:00,
2013-04-30 06:38:00,49.0,47.9,30.23,East,100,0.0,5.0,96,0.00,,,0.01,VWS V14.01,2013-04-30 10:38:00,
2013-04-30 06:39:00,49.0,47.9,30.23,East,100,0.0,5.0,96,0.00,,,0.01,VWS V14.01,2013-04-30 10:39:00,
2013-04-30 06:40:00,49.1,48.0,30.23,East,100,0.0,5.0,96,0.00,,,0.01,VWS V14.01,2013-04-30 10:40:00,
2013-04-30 06:41:00,49.1,48.0,30.23,East,100,1.0,1.0,96,0.00,,,0.01,VWS V14.01,2013-04-30 10:41:00,
2013-04-30 06:42:00,49.1,48.0,30.23,East,100,1.0,2.0,96,0.00,,,0.01,VWS V14.01,2013-04-30 10:42:00,
2013-04-30 06:43:00,49.1,48.0,30.23,East,101,2.0,3.0,96,0.00,,,0.01,VWS V14.01,2013-04-30 10:43:00,
2013-04-30 06:44:00,49.1,48.0,30.23,East,101,0.0,3.0,96,0.00,,,0.01,VWS V14.01,2013-04-30 10:44:00,
2013-04-30 06:45:00,49.1,48.0,30.24,East,101,2.0,3.0,96,0.00,,,0.01,VWS V14.01,2013-04-30 10:45:00,
2013-04-30 06:46:00,49.2,48.1,30.24,East,101,1.0,3.0,96,0.00,,,0.01,VWS V14.01,2013-04-30 10:46:00,
2013-04-30 06:47:00,49.2,48.1,30.24,East,101,0.0,3.0,96,0.00,,,0.01,VWS V14.01,2013-04-30 10:47:00,
2013-04-30 06:48:00,49.2,48.1,30.24,East,101,0.0,3.0,96,0.00,,,0.01,VWS V14.01,2013-04-30 10:48:00,
2013-04-30 06:49:00,49.2,48.1,30.24,East,101,0.0,3.0,96,0.00,,,0.01,VWS V14.01,2013-04-30 10:49:00,
2013-04-30 06:50:00,49.2,48.1,30.24,East,101,2.0,3.0,96,0.00,,,0.01,VWS V14.01,2013-04-30 10:50:00,
2013-04-30 06:51:00,49.2,48.1,30.24,ESE,105,0.0,3.0,96,0.00,,,0.01,VWS V14.01,2013-04-30 10:51:00,
2013-04-30 06:52:00,49.2,48.1,30.24,ESE,105,2.0,3.0,96,0.00,,,0.01,VWS V14.01,2013-04-30 10:52:00,
2013-04-30 06:53:00,49.2,48.1,30.24,ESE,105,1.0,3.0,96,0.00,,,0.01,VWS V14.01,2013-04-30 10:53:00,
2013-04-30 06:54:00,49.2,48.1,30.24,ESE,104,1.0,3.0,96,0.00,,,0.01,VWS V14.01,2013-04-30 10:54:00,
2013-04-30 06:55:00,49.3,48.2,30.24,ESE,104,0.0,3.0,96,0.00,,,0.01,VWS V14.01,2013-04-30 10:55:00,
2013-04-30 06:56:00,49.2,48.1,30.24,ESE,104,1.0,3.0,96,0.00,,,0.01,VWS V14.01,2013-04-30 10:56:00,
2013-04-30 06:57:00,49.3,48.2,30.24,East,94,3.0,3.0,96,0.00,,,0.01,VWS V14.01,2013-04-30 10:57:00,
2013-04-30 06:58:00,49.3,48.2,30.24,East,94,0.0,3.0,96,0.00,,,0.01,VWS V14.01,2013-04-30 10:58:00,
2013-04-30 06:59:00,49.3,48.2,30.24,East,94,2.0,3.0,96,0.00,,,0.01,VWS V14.01,2013-04-30 10:59:00,
2013-04-30 07:00:00,49.3,48.2,30.24,East,94,0.0,3.0,96,0.00,,,0.01,VWS V14.01,2013-04-30 11:00:00,
2013-04-30 07:01:00,49.4,48.3,30.24,East,94,0.0,1.0,96,0.00,,,0.01,VWS V14.01,2013-04-30 11:01:00,
2013-04-30 07:02:00,49.4,48.3,30.24,SE,130,4.0,6.0,96,0.00,,,0.01,VWS V14.01,2013-04-30 11:02:00,
2013-04-30 07:03:00,49.4,48.3,30.24,SE,130,1.0,6.0,96,0.00,,,0.01,VWS V14.01,2013-04-30 11:03:00,
2013-04-30 07:04:00,49.4,48.3,30.24,SE,128,0.0,6.0,96,0.00,,,0.01,VWS V14.01,2013-04-30 11:04:00,
2013-04-30 07:05:00,49.4,48.3,30.24,SE,128,0.0,6.0,96,0.00,,,0.01,VWS V14.01,2013-04-30 11:05:00,
2013-04-30 07:06:00,49.4,48.3,30.24,SE,128,2.0,6.0,96,0.00,,,0.01,VWS V14.01,2013-04-30 11:06:00,
2013-04-30 07:07:00,49.4,48.3,30.24,SE,127,0.0,6.0,96,0.00,,,0.01,VWS V14.01,2013-04-30 11:07:00,
2013-04-30 07:08:00,49.4,48.3,30.24,SE,127,1.0,6.0,96,0.00,,,0.01,VWS V14.01,2013-04-30 11:08:00,
2013-04-30 07:09:00,49.4,48.3,30.24,SE,127,0.0,6.0,96,0.00,,,0.01,VWS V14.01,2013-04-30 11:09:00,
2013-04-30 07:10:00,49.4,48.3,30.24,SE,127,2.0,6.0,96,0.00,,,0.01,VWS V14.01,2013-04-30 11:10:00,
2013-04-30 07:11:00,49.4,48.3,30.24,SE,127,0.0,3.0,96,0.00,,,0.01,VWS V14.01,2013-04-30 11:11:00,
2013-04-30 07:12:00,49.4,48.3,30.24,ESE,122,4.0,4.0,96,0.00,,,0.01,VWS V14.01,2013-04-30 11:12:00,
2013-04-30 07:13:00,49.4,48.3,30.24,SSE,152,0.0,4.0,96,0.00,,,0.01,VWS V14.01,2013-04-30 11:13:00,
2013-04-30 07:14:00,49.4,48.3,30.24,SSE,152,0.0,4.0,96,0.00,,,0.01,VWS V14.01,2013-04-30 11:14:00,
2013-04-30 07:15:00,49.4,48.3,30.24,SSE,151,0.0,4.0,96,0.00,,,0.01,VWS V14.01,2013-04-30 11:15:00,
2013-04-30 07:16:00,49.4,48.3,30.24,SSE,152,2.0,4.0,96,0.00,,,0.01,VWS V14.01,2013-04-30 11:16:00,
2013-04-30 07:17:00,49.4,48.3,30.24,SSE,151,2.0,4.0,96,0.00,,,0.01,VWS V14.01,2013-04-30 11:17:00,
2013-04-30 07:18:00,49.4,48.3,30.24,SSE,151,1.0,4.0,96,0.00,,,0.01,VWS V14.01,2013-04-30 11:18:00,
2013-04-30 07:19:00,49.4,48.3,30.24,SSE,151,0.0,4.0,96,0.00,,,0.01,VWS V14.01,2013-04-30 11:19:00,
2013-04-30 07:20:00,49.4,48.3,30.24,SSE,151,1.0,4.0,96,0.00,,,0.01,VWS V14.01,2013-04-30 11:20:00,
2013-04-30 07:21:00,49.4,48.3,30.24,SSE,151,0.0,1.0,96,0.00,,,0.01,VWS V14.01,2013-04-30 11:21:00,
2013-04-30 07:22:00,49.4,48.3,30.24,SSE,151,0.0,1.0,96,0.00,,,0.01,VWS V14.01,2013-04-30 11:22:00,
2013-04-30 07:23:00,49.4,48.3,30.24,SSE,151,2.0,2.0,96,0.00,,,0.01,VWS V14.01,2013-04-30 11:23:00,
2013-04-30 07:24:00,49.4,48.3,30.24,SSE,151,1.0,3.0,96,0.00,,,0.01,VWS V14.01,2013-04-30 11:24:00,
2013-04-30 07:25:00,49.4,48.3,30.24,SSE,151,2.0,3.0,96,0.00,,,0.01,VWS V14.01,2013-04-30 11:25:00,
2013-04-30 07:26:00,49.4,48.3,30.24,SE,146,2.0,3.0,96,0.00,,,0.01,VWS V14.01,2013-04-30 11:26:00,
2013-04-30 07:27:00,49.4,48.3,30.24,SE,146,0.0,3.0,96,0.00,,,0.01,VWS V14.01,2013-04-30 11:27:00,
2013-04-30 07:28:00,49.4,48.3,30.24,SE,146,0.0,3.0,96,0.00,,,0.01,VWS V14.01,2013-04-30 11:28:00,
2013-04-30 07:29:00,49.4,48.3,30.24,SE,145,2.0,3.0,96,0.00,,,0.01,VWS V14.01,2013-04-30 11:29:00,
2013-04-30 07:30:00,49.4,48.3,30.25,SE,145,0.0,3.0,96,0.00,,,0.01,VWS V14.01,2013-04-30 11:30:00,
2013-04-30 07:31:00,49.4,48.3,30.25,ENE,57,3.0,3.0,96,0.00,,,0.01,VWS V14.01,2013-04-30 11:31:00,
2013-04-30 07:32:00,49.4,48.3,30.25,ESE,103,3.0,4.0,96,0.00,,,0.01,VWS V14.01,2013-04-30 11:32:00,
2013-04-30 07:33:00,49.4,48.3,30.25,ESE,102,3.0,4.0,96,0.00,,,0.01,VWS V14.01,2013-04-30 11:33:00,
2013-04-30 07:34:00,49.4,48.3,30.25,East,85,2.0,4.0,96,0.00,,,0.01,VWS V14.01,2013-04-30 11:34:00,
2013-04-30 07:35:00,49.4,48.3,30.25,East,82,3.0,4.0,96,0.00,,,0.01,VWS V14.01,2013-04-30 11:35:00,
2013-04-30 07:36:00,49.4,48.3,30.25,East,82,2.0,5.0,96,0.00,,,0.01,VWS V14.01,2013-04-30 11:36:00,
2013-04-30 07:37:00,49.4,48.3,30.25,East,82,3.0,5.0,96,0.00,,,0.01,VWS V14.01,2013-04-30 11:37:00,
2013-04-30 07:38:00,49.4,48.3,30.25,East,81,0.0,5.0,96,0.00,,,0.01,VWS V14.01,2013-04-30 11:38:00,
2013-04-30 07:39:00,49.4,48.3,30.25,East,82,0.0,5.0,96,0.00,,,0.01,VWS V14.01,2013-04-30 11:39:00,
2013-04-30 07:40:00,49.4,48.3,30.25,East,81,0.0,5.0,96,0.00,,,0.01,VWS V14.01,2013-04-30 11:40:00,
2013-04-30 07:41:00,49.4,48.3,30.25,East,81,0.0,0.0,96,0.00,,,0.01,VWS V14.01,2013-04-30 11:41:00,
2013-04-30 07:42:00,49.4,48.3,30.25,East,81,0.0,0.0,96,0.00,,,0.01,VWS V14.01,2013-04-30 11:42:00,
2013-04-30 07:43:00,49.4,48.3,30.25,East,81,0.0,0.0,96,0.00,,,0.01,VWS V14.01,2013-04-30 11:43:00,
2013-04-30 07:44:00,49.4,48.3,30.25,East,81,0.0,0.0,96,0.00,,,0.01,VWS V14.01,2013-04-30 11:44:00,
2013-04-30 07:45:00,49.5,48.4,30.25,East,81,1.0,2.0,96,0.00,,,0.01,VWS V14.01,2013-04-30 11:45:00,
2013-04-30 07:46:00,49.5,48.4,30.25,East,81,0.0,2.0,96,0.00,,,0.01,VWS V14.01,2013-04-30 11:46:00,
2013-04-30 07:47:00,49.5,48.4,30.25,East,81,3.0,3.0,96,0.00,,,0.01,VWS V14.01,2013-04-30 11:47:00,
2013-04-30 07:48:00,49.5,48.4,30.25,East,81,3.0,5.0,96,0.00,,,0.01,VWS V14.01,2013-04-30 11:48:00,
2013-04-30 07:49:00,49.5,48.4,30.25,East,81,0.0,5.0,96,0.00,,,0.01,VWS V14.01,2013-04-30 11:49:00,
2013-04-30 07:50:00,49.5,48.4,30.25,East,81,1.0,5.0,96,0.00,,,0.01,VWS V14.01,2013-04-30 11:50:00,
2013-04-30 07:51:00,49.5,48.4,30.25,East,81,0.0,2.0,96,0.00,,,0.01,VWS V14.01,2013-04-30 11:51:00,
2013-04-30 07:52:00,49.5,48.4,30.25,East,81,0.0,2.0,96,0.00,,,0.01,VWS V14.01,2013-04-30 11:52:00,
2013-04-30 07:53:00,49.5,48.1,30.25,East,81,0.0,2.0,95,0.00,,,0.01,VWS V14.01,2013-04-30 11:53:00,
2013-04-30 07:54:00,49.5,48.1,30.25,East,81,0.0,2.0,95,0.00,,,0.01,VWS V14.01,2013-04-30 11:54:00,
2013-04-30 07:55:00,49.5,48.4,30.25,East,81,0.0,2.0,96,0.00,,,0.01,VWS V14.01,2013-04-30 11:55:00,
2013-04-30 07:56:00,49.6,48.5,30.25,East,81,0.0,3.0,96,0.00,,,0.01,VWS V14.01,2013-04-30 11:56:00,
2013-04-30 07:57:00,49.6,48.5,30.25,East,81,3.0,3.0,96,0.00,,,0.01,VWS V14.01,2013-04-30 11:57:00,
2013-04-30 07:58:00,49.6,48.5,30.25,East,81,0.0,3.0,96,0.00,,,0.01,VWS V14.01,2013-04-30 11:58:00,
2013-04-30 07:59:00,49.6,48.2,30.25,East,81,0.0,3.0,95,0.00,,,0.01,VWS V14.01,2013-04-30 11:59:00,
2013-04-30 08:00:00,49.6,48.5,30.26,East,81,0.0,3.0,96,0.00,,,0.01,VWS V14.01,2013-04-30 12:00:00,
2013-04-30 08:01:00,49.7,48.6,30.26,East,81,0.0,2.0,96,0.00,,,0.01,VWS V14.01,2013-04-30 12:01:00,
2013-04-30 08:02:00,49.7,48.6,30.26,East,81,0.0,2.0,96,0.00,,,0.01,VWS V14.01,2013-04-30 12:02:00,
2013-04-30 08:03:00,49.7,48.6,30.26,East,81,0.0,2.0,96,0.00,,,0.01,VWS V14.01,2013-04-30 12:03:00,
2013-04-30 08:04:00,49.8,48.7,30.26,East,81,1.0,2.0,96,0.00,,,0.01,VWS V14.01,2013-04-30 12:04:00,
2013-04-30 08:05:00,49.8,48.7,30.26,NE,50,5.0,5.0,96,0.00,,,0.01,VWS V14.01,2013-04-30 12:05:00,
2013-04-30 08:06:00,49.8,48.7,30.26,NE,50,2.0,5.0,96,0.00,,,0.01,VWS V14.01,2013-04-30 12:06:00,
2013-04-30 08:07:00,49.8,48.7,30.26,NE,50,0.0,5.0,96,0.00,,,0.01,VWS V14.01,2013-04-30 12:07:00,
2013-04-30 08:08:00,49.8,48.7,30.26,NE,50,0.0,5.0,96,0.00,,,0.01,VWS V14.01,2013-04-30 12:08:00,
2013-04-30 08:09:00,49.8,48.7,30.26,NE,50,0.0,5.0,96,0.00,,,0.01,VWS V14.01,2013-04-30 12:09:00,
2013-04-30 08:10:00,49.9,48.5,30.26,NE,50,0.0,5.0,95,0.00,,,0.01,VWS V14.01,2013-04-30 12:10:00,
2013-04-30 08:11:00,49.8,48.4,30.26,NE,50,0.0,1.0,95,0.00,,,0.01,VWS V14.01,2013-04-30 12:11:00,
2013-04-30 08:12:00,49.8,48.4,30.26,NE,50,0.0,1.0,95,0.00,,,0.01,VWS V14.01,2013-04-30 12:12:00,
2013-04-30 08:13:00,49.9,48.5,30.26,NE,50,0.0,1.0,95,0.00,,,0.01,VWS V14.01,2013-04-30 12:13:00,
2013-04-30 08:14:00,49.9,48.5,30.26,NE,50,0.0,1.0,95,0.00,,,0.01,VWS V14.01,2013-04-30 12:14:00,
2013-04-30 08:15:00,49.9,48.5,30.26,NE,50,2.0,3.0,95,0.00,,,0.01,VWS V14.01,2013-04-30 12:15:00,
2013-04-30 08:16:00,49.9,48.5,30.26,NE,50,1.0,3.0,95,0.00,,,0.01,VWS V14.01,2013-04-30 12:16:00,
2013-04-30 08:17:00,49.9,48.5,30.26,NE,49,4.0,4.0,95,0.00,,,0.01,VWS V14.01,2013-04-30 12:17:00,
2013-04-30 08:18:00,49.9,48.5,30.26,NE,49,2.0,4.0,95,0.00,,,0.01,VWS V14.01,2013-04-30 12:18:00,
2013-04-30 08:19:00,50.0,48.6,30.26,NE,49,0.0,4.0,95,0.00,,,0.01,VWS V14.01,2013-04-30 12:19:00,
2013-04-30 08:20:00,50.0,48.6,30.26,NE,49,0.0,4.0,95,0.00,,,0.01,VWS V14.01,2013-04-30 12:20:00,
2013-04-30 08:21:00,50.0,48.6,30.26,NE,49,2.0,2.0,95,0.00,,,0.01,VWS V14.01,2013-04-30 12:21:00,
2013-04-30 08:22:00,50.0,48.6,30.26,NE,49,0.0,2.0,95,0.00,,,0.01,VWS V14.01,2013-04-30 12:22:00,
2013-04-30 08:23:00,50.0,48.6,30.26,NE,49,0.0,3.0,95,0.00,,,0.01,VWS V14.01,2013-04-30 12:23:00,
2013-04-30 08:24:00,50.1,48.7,30.26,NE,49,0.0,3.0,95,0.00,,,0.01,VWS V14.01,2013-04-30 12:24:00,
2013-04-30 08:25:00,50.1,48.7,30.26,NE,49,1.0,3.0,95,0.00,,,0.01,VWS V14.01,2013-04-30 12:25:00,
2013-04-30 08:26:00,50.1,48.7,30.26,NE,49,0.0,3.0,95,0.00,,,0.01,VWS V14.01,2013-04-30 12:26:00,
2013-04-30 08:27:00,50.2,48.8,30.26,NE,51,1.0,5.0,95,0.00,,,0.01,VWS V14.01,2013-04-30 12:27:00,
2013-04-30 08:28:00,50.2,48.8,30.26,NE,38,0.0,5.0,95,0.00,,,0.01,VWS V14.01,2013-04-30 12:28:00,
2013-04-30 08:29:00,50.3,48.9,30.26,NE,38,0.0,5.0,95,0.00,,,0.01,VWS V14.01,2013-04-30 12:29:00,
2013-04-30 08:30:00,50.3,48.9,30.26,NE,38,0.0,5.0,95,0.00,,,0.01,VWS V14.01,2013-04-30 12:30:00,
2013-04-30 08:31:00,50.4,49.0,30.26,NE,38,2.0,2.0,95,0.00,,,0.01,VWS V14.01,2013-04-30 12:31:00,
2013-04-30 08:32:00,50.4,49.0,30.26,NE,38,0.0,2.0,95,0.00,,,0.01,VWS V14.01,2013-04-30 12:32:00,
2013-04-30 08:33:00,50.4,49.0,30.26,NE,38,0.0,2.0,95,0.00,,,0.01,VWS V14.01,2013-04-30 12:33:00,
2013-04-30 08:34:00,50.5,49.1,30.26,NE,38,2.0,2.0,95,0.00,,,0.01,VWS V14.01,2013-04-30 12:34:00,
2013-04-30 08:35:00,50.6,49.2,30.26,NE,38,0.0,3.0,95,0.00,,,0.01,VWS V14.01,2013-04-30 12:35:00,
2013-04-30 08:36:00,50.6,49.2,30.26,NE,38,0.0,3.0,95,0.00,,,0.01,VWS V14.01,2013-04-30 12:36:00,
2013-04-30 08:37:00,50.6,49.2,30.26,NE,38,0.0,3.0,95,0.00,,,0.01,VWS V14.01,2013-04-30 12:37:00,
2013-04-30 08:38:00,50.7,49.3,30.26,NE,47,4.0,4.0,95,0.00,,,0.01,VWS V14.01,2013-04-30 12:38:00,
2013-04-30 08:39:00,50.7,49.3,30.26,NE,47,2.0,4.0,95,0.00,,,0.01,VWS V14.01,2013-04-30 12:39:00,
2013-04-30 08:40:00,50.7,49.3,30.26,NE,47,0.0,4.0,95,0.00,,,0.01,VWS V14.01,2013-04-30 12:40:00,
2013-04-30 08:41:00,50.7,49.3,30.26,NE,47,0.0,4.0,95,0.00,,,0.01,VWS V14.01,2013-04-30 12:41:00,
2013-04-30 08:42:00,50.7,49.3,30.26,NE,47,0.0,4.0,95,0.00,,,0.01,VWS V14.01,2013-04-30 12:42:00,
2013-04-30 08:43:00,50.8,49.4,30.26,NE,47,0.0,0.0,95,0.00,,,0.01,VWS V14.01,2013-04-30 12:43:00,
2013-04-30 08:44:00,50.9,49.5,30.26,NE,46,3.0,3.0,95,0.00,,,0.01,VWS V14.01,2013-04-30 12:44:00,
2013-04-30 08:45:00,51.0,49.6,30.27,NE,47,0.0,3.0,95,0.00,,,0.01,VWS V14.01,2013-04-30 12:45:00,
2013-04-30 08:46:00,51.0,49.6,30.27,NE,47,0.0,3.0,95,0.00,,,0.01,VWS V14.01,2013-04-30 12:46:00,
2013-04-30 08:47:00,51.0,49.6,30.27,NE,47,0.0,3.0,95,0.00,,,0.01,VWS V14.01,2013-04-30 12:47:00,
2013-04-30 08:48:00,51.2,49.8,30.27,NE,44,3.0,5.0,95,0.00,,,0.01,VWS V14.01,2013-04-30 12:48:00,
2013-04-30 08:49:00,51.2,49.8,30.27,NE,41,2.0,5.0,95,0.00,,,0.01,VWS V14.01,2013-04-30 12:49:00,
2013-04-30 08:50:00,51.2,49.8,30.27,NE,41,0.0,5.0,95,0.00,,,0.01,VWS V14.01,2013-04-30 12:50:00,
2013-04-30 08:51:00,51.2,49.8,30.27,NE,41,0.0,5.0,95,0.00,,,0.01,VWS V14.01,2013-04-30 12:51:00,
2013-04-30 08:52:00,51.2,49.8,30.27,NE,41,0.0,5.0,95,0.00,,,0.01,VWS V14.01,2013-04-30 12:52:00,
2013-04-30 08:53:00,51.2,49.8,30.27,NE,41,0.0,0.0,95,0.00,,,0.01,VWS V14.01,2013-04-30 12:53:00,
2013-04-30 08:54:00,51.3,49.9,30.27,NE,41,0.0,2.0,95,0.00,,,0.01,VWS V14.01,2013-04-30 12:54:00,
2013-04-30 08:55:00,51.3,49.9,30.27,NE,42,2.0,3.0,95,0.00,,,0.01,VWS V14.01,2013-04-30 12:55:00,
2013-04-30 08:56:00,51.3,49.9,30.27,NE,42,1.0,3.0,95,0.00,,,0.01,VWS V14.01,2013-04-30 12:56:00,
2013-04-30 08:57:00,51.3,49.9,30.27,NE,42,1.0,3.0,95,0.00,,,0.01,VWS V14.01,2013-04-30 12:57:00,
2013-04-30 08:58:00,51.3,49.9,30.27,NE,42,2.0,3.0,95,0.00,,,0.01,VWS V14.01,2013-04-30 12:58:00,
2013-04-30 08:59:00,51.4,50.0,30.27,NE,42,0.0,4.0,95,0.00,,,0.01,VWS V14.01,2013-04-30 12:59:00,
2013-04-30 09:00:00,51.4,50.0,30.27,NE,42,0.0,4.0,95,0.00,,,0.01,VWS V14.01,2013-04-30 13:00:00,
2013-04-30 09:01:00,51.4,50.0,30.27,NE,42,0.0,4.0,95,0.00,,,0.01,VWS V14.01,2013-04-30 13:01:00,
2013-04-30 09:02:00,51.6,49.9,30.27,NE,42,1.0,3.0,94,0.00,,,0.01,VWS V14.01,2013-04-30 13:02:00,
2013-04-30 09:03:00,51.6,49.9,30.27,NE,42,0.0,3.0,94,0.00,,,0.01,VWS V14.01,2013-04-30 13:03:00,
2013-04-30 09:04:00,51.7,50.0,30.27,NE,42,2.0,3.0,94,0.00,,,0.01,VWS V14.01,2013-04-30 13:04:00,
2013-04-30 09:05:00,51.8,50.1,30.27,NE,42,2.0,3.0,94,0.00,,,0.01,VWS V14.01,2013-04-30 13:05:00,
2013-04-30 09:06:00,51.8,50.1,30.27,NE,42,2.0,3.0,94,0.00,,,0.01,VWS V14.01,2013-04-30 13:06:00,
2013-04-30 09:07:00,51.8,50.1,30.27,NE,42,2.0,3.0,94,0.00,,,0.01,VWS V14.01,2013-04-30 13:07:00,
2013-04-30 09:08:00,51.9,50.2,30.27,NE,42,0.0,3.0,94,0.00,,,0.01,VWS V14.01,2013-04-30 13:08:00,
2013-04-30 09:09:00,51.9,49.9,30.27,NE,42,0.0,3.0,93,0.00,,,0.01,VWS V14.01,2013-04-30 13:09:00,
2013-04-30 09:10:00,51.9,49.9,30.27,NE,42,0.0,3.0,93,0.00,,,0.01,VWS V14.01,2013-04-30 13:10:00,
2013-04-30 09:11:00,51.9,49.9,30.27,NE,42,0.0,3.0,93,0.00,,,0.01,VWS V14.01,2013-04-30 13:11:00,
2013-04-30 09:12:00,51.9,49.9,30.27,NE,42,0.0,3.0,93,0.00,,,0.01,VWS V14.01,2013-04-30 13:12:00,
2013-04-30 09:13:00,52.1,50.1,30.27,NE,40,0.0,0.0,93,0.00,,,0.01,VWS V14.01,2013-04-30 13:13:00,
2013-04-30 09:14:00,52.2,50.2,30.27,NE,40,0.0,2.0,93,0.00,,,0.01,VWS V14.01,2013-04-30 13:14:00,
2013-04-30 09:15:00,52.3,50.3,30.27,NE,40,2.0,2.0,93,0.00,,,0.01,VWS V14.01,2013-04-30 13:15:00,
2013-04-30 09:16:00,52.3,50.3,30.27,NE,40,2.0,2.0,93,0.00,,,0.01,VWS V14.01,2013-04-30 13:16:00,
2013-04-30 09:17:00,52.3,50.3,30.27,NE,40,2.0,2.0,93,0.00,,,0.01,VWS V14.01,2013-04-30 13:17:00,
2013-04-30 09:18:00,52.3,50.3,30.27,NE,40,2.0,2.0,93,0.00,,,0.01,VWS V14.01,2013-04-30 13:18:00,
2013-04-30 09:19:00,52.5,50.2,30.27,ENE,58,0.0,2.0,92,0.00,,,0.01,VWS V14.01,2013-04-30 13:19:00,
2013-04-30 09:20:00,52.5,50.2,30.27,ENE,58,3.0,4.0,92,0.00,,,0.01,VWS V14.01,2013-04-30 13:20:00,
2013-04-30 09:21:00,52.5,50.2,30.27,ENE,58,3.0,4.0,92,0.00,,,0.01,VWS V14.01,2013-04-30 13:21:00,
2013-04-30 09:22:00,52.6,50.0,30.27,NE,49,1.0,3.0,91,0.00,,,0.01,VWS V14.01,2013-04-30 13:22:00,
2013-04-30 09:23:00,52.7,50.2,30.27,NE,49,0.0,3.0,91,0.00,,,0.01,VWS V14.01,2013-04-30 13:23:00,
2013-04-30 09:24:00,52.7,50.2,30.27,NE,49,0.0,3.0,91,0.00,,,0.01,VWS V14.01,2013-04-30 13:24:00,
2013-04-30 09:25:00,52.8,50.2,30.27,NE,49,4.0,4.0,91,0.00,,,0.01,VWS V14.01,2013-04-30 13:25:00,
2013-04-30 09:26:00,52.8,50.2,30.27,NE,49,4.0,4.0,91,0.00,,,0.01,VWS V14.01,2013-04-30 13:26:00,
2013-04-30 09:27:00,52.8,50.2,30.27,NE,49,4.0,4.0,91,0.00,,,0.01,VWS V14.01,2013-04-30 13:27:00,
2013-04-30 09:28:00,52.9,50.0,30.27,SE,128,1.0,4.0,90,0.00,,,0.01,VWS V14.01,2013-04-30 13:28:00,
2013-04-30 09:29:00,52.9,50.0,30.27,SE,128,1.0,4.0,90,0.00,,,0.01,VWS V14.01,2013-04-30 13:29:00,
2013-04-30 09:30:00,53.0,49.8,30.27,ESE,105,2.0,4.0,89,0.00,,,0.01,VWS V14.01,2013-04-30 13:30:00,
2013-04-30 09:31:00,53.0,49.8,30.27,ESE,105,2.0,4.0,89,0.00,,,0.01,VWS V14.01,2013-04-30 13:31:00,
2013-04-30 09:32:00,53.0,49.5,30.27,East,83,3.0,3.0,88,0.00,,,0.01,VWS V14.01,2013-04-30 13:32:00,
2013-04-30 09:33:00,53.0,49.5,30.27,NE,42,0.0,3.0,88,0.00,,,0.01,VWS V14.01,2013-04-30 13:33:00,
2013-04-30 09:34:00,53.1,49.7,30.27,SSE,150,6.0,9.0,88,0.00,,,0.01,VWS V14.01,2013-04-30 13:34:00,
2013-04-30 09:35:00,53.1,49.7,30.27,ENE,71,2.0,9.0,88,0.00,,,0.01,VWS V14.01,2013-04-30 13:35:00,
2013-04-30 09:36:00,53.1,49.7,30.27,ENE,63,4.0,9.0,88,0.00,,,0.01,VWS V14.01,2013-04-30 13:36:00,
2013-04-30 09:37:00,53.1,49.7,30.27,ENE,63,4.0,9.0,88,0.00,,,0.01,VWS V14.01,2013-04-30 13:37:00,
2013-04-30 09:38:00,53.2,49.4,30.27,ENE,69,1.0,9.0,87,0.00,,,0.01,VWS V14.01,2013-04-30 13:38:00,
2013-04-30 09:39:00,53.2,49.4,30.27,ENE,65,0.0,9.0,87,0.00,,,0.01,VWS V14.01,2013-04-30 13:39:00,
2013-04-30 09:40:00,53.3,49.5,30.27,ENE,66,3.0,9.0,87,0.00,,,0.01,VWS V14.01,2013-04-30 13:40:00,
2013-04-30 09:41:00,53.3,49.5,30.27,ENE,66,3.0,9.0,87,0.00,,,0.01,VWS V14.01,2013-04-30 13:41:00,
2013-04-30 09:42:00,53.4,49.6,30.27,SSE,148,1.0,3.0,87,0.00,,,0.01,VWS V14.01,2013-04-30 13:42:00,
2013-04-30 09:43:00,53.5,49.7,30.27,SSE,148,0.0,3.0,87,0.00,,,0.01,VWS V14.01,2013-04-30 13:43:00,
2013-04-30 09:44:00,53.5,49.7,30.27,SSE,155,3.0,8.0,87,0.00,,,0.01,VWS V14.01,2013-04-30 13:44:00,
2013-04-30 09:45:00,53.6,49.5,30.27,SE,139,1.0,8.0,86,0.00,,,0.01,VWS V14.01,2013-04-30 13:45:00,
2013-04-30 09:46:00,53.6,49.5,30.27,SE,139,1.0,8.0,86,0.00,,,0.01,VWS V14.01,2013-04-30 13:46:00,
2013-04-30 09:47:00,53.7,49.6,30.27,ESE,114,5.0,8.0,86,0.00,,,0.01,VWS V14.01,2013-04-30 13:47:00,
2013-04-30 09:48:00,53.7,49.6,30.27,NNE,23,0.0,8.0,86,0.00,,,0.01,VWS V14.01,2013-04-30 13:48:00,
2013-04-30 09:49:00,53.8,49.7,30.27,ESE,105,3.0,8.0,86,0.00,,,0.01,VWS V14.01,2013-04-30 13:49:00,
2013-04-30 09:50:00,53.8,49.7,30.27,SE,130,2.0,8.0,86,0.00,,,0.01,VWS V14.01,2013-04-30 13:50:00,
2013-04-30 09:51:00,53.8,49.7,30.27,SE,130,2.0,8.0,86,0.00,,,0.01,VWS V14.01,2013-04-30 13:51:00,
2013-04-30 09:52:00,53.8,49.7,30.27,SE,130,2.0,8.0,86,0.00,,,0.01,VWS V14.01,2013-04-30 13:52:00,
2013-04-30 09:53:00,53.9,49.5,30.27,SSE,153,1.0,5.0,85,0.00,,,0.01,VWS V14.01,2013-04-30 13:53:00,
2013-04-30 09:54:00,53.9,49.5,30.27,South,173,7.0,10.0,85,0.00,,,0.01,VWS V14.01,2013-04-30 13:54:00,
2013-04-30 09:55:00,53.9,49.5,30.27,ESE,119,4.0,10.0,85,0.00,,,0.01,VWS V14.01,2013-04-30 13:55:00,
2013-04-30 09:56:00,53.9,49.2,30.27,ESE,117,3.0,10.0,84,0.00,,,0.01,VWS V14.01,2013-04-30 13:56:00,
2013-04-30 09:57:00,54.0,49.3,30.27,South,190,3.0,10.0,84,0.00,,,0.01,VWS V14.01,2013-04-30 13:57:00,
2013-04-30 09:58:00,54.1,49.4,30.27,South,180,0.0,10.0,84,0.00,,,0.01,VWS V14.01,2013-04-30 13:58:00,
2013-04-30 09:59:00,54.1,49.4,30.27,NE,56,4.0,10.0,84,0.00,,,0.01,VWS V14.01,2013-04-30 13:59:00,
2013-04-30 10:00:00,54.1,49.4,30.27,NE,51,3.0,10.0,84,0.00,,,0.01,VWS V14.01,2013-04-30 14:00:00,
2013-04-30 10:01:00,54.1,49.4,30.27,NE,52,3.0,10.0,84,0.00,,,0.01,VWS V14.01,2013-04-30 14:01:00,
2013-04-30 10:02:00,54.2,48.8,30.27,ESE,110,2.0,3.0,82,0.00,,,0.01,VWS V14.01,2013-04-30 14:02:00,
2013-04-30 10:03:00,54.2,48.8,30.27,NE,52,4.0,5.0,82,0.00,,,0.01,VWS V14.01,2013-04-30 14:03:00,
2013-04-30 10:04:00,54.3,48.6,30.27,East,92,7.0,7.0,81,0.00,,,0.01,VWS V14.01,2013-04-30 14:04:00,
2013-04-30 10:05:00,54.3,48.6,30.27,ENE,64,2.0,7.0,81,0.00,,,0.01,VWS V14.01,2013-04-30 14:05:00,
2013-04-30 10:06:00,54.3,48.6,30.27,ENE,64,0.0,7.0,81,0.00,,,0.01,VWS V14.01,2013-04-30 14:06:00,
2013-04-30 10:07:00,54.4,48.0,30.27,East,84,5.0,7.0,79,0.00,,,0.01,VWS V14.01,2013-04-30 14:07:00,
2013-04-30 10:08:00,54.5,47.8,30.27,East,101,0.0,7.0,78,0.00,,,0.01,VWS V14.01,2013-04-30 14:08:00,
2013-04-30 10:09:00,54.5,47.8,30.27,SSE,161,2.0,7.0,78,0.00,,,0.01,VWS V14.01,2013-04-30 14:09:00,
2013-04-30 10:10:00,54.6,47.5,30.27,South,173,6.0,7.0,77,0.00,,,0.01,VWS V14.01,2013-04-30 14:10:00,
2013-04-30 10:11:00,54.6,47.5,30.27,South,173,4.0,7.0,77,0.00,,,0.01,VWS V14.01,2013-04-30 14:11:00,
2013-04-30 10:12:00,54.6,47.5,30.27,South,173,4.0,7.0,77,0.00,,,0.01,VWS V14.01,2013-04-30 14:12:00,
2013-04-30 10:13:00,54.8,47.7,30.27,ENE,71,5.0,5.0,77,0.00,,,0.01,VWS V14.01,2013-04-30 14:13:00,
2013-04-30 10:14:00,54.9,47.8,30.27,East,80,5.0,9.0,77,0.00,,,0.01,VWS V14.01,2013-04-30 14:14:00,
2013-04-30 10:15:00,54.9,47.5,30.27,ENE,59,1.0,9.0,76,0.00,,,0.01,VWS V14.01,2013-04-30 14:15:00,
2013-04-30 10:16:00,54.9,47.5,30.27,ENE,59,1.0,9.0,76,0.00,,,0.01,VWS V14.01,2013-04-30 14:16:00,
2013-04-30 10:17:00,54.9,47.5,30.27,ENE,59,1.0,9.0,76,0.00,,,0.01,VWS V14.01,2013-04-30 14:17:00,
2013-04-30 10:18:00,54.9,47.1,30.27,NE,44,4.0,9.0,75,0.00,,,0.01,VWS V14.01,2013-04-30 14:18:00,
2013-04-30 10:19:00,54.9,46.4,30.27,SSE,164,4.0,9.0,73,0.00,,,0.01,VWS V14.01,2013-04-30 14:19:00,
2013-04-30 10:20:00,55.0,46.5,30.27,ENE,72,5.0,9.0,73,0.00,,,0.01,VWS V14.01,2013-04-30 14:20:00,
2013-04-30 10:21:00,54.9,46.8,30.27,ENE,66,5.0,9.0,74,0.00,,,0.01,VWS V14.01,2013-04-30 14:21:00,
2013-04-30 10:22:00,54.9,46.8,30.27,ENE,66,5.0,9.0,74,0.00,,,0.01,VWS V14.01,2013-04-30 14:22:00,
2013-04-30 10:23:00,54.9,46.8,30.27,ENE,66,5.0,9.0,74,0.00,,,0.01,VWS V14.01,2013-04-30 14:23:00,
2013-04-30 10:24:00,55.1,46.6,30.27,South,174,5.0,6.0,73,0.00,,,0.01,VWS V14.01,2013-04-30 14:24:00,
2013-04-30 10:25:00,55.2,47.1,30.27,SE,134,3.0,8.0,74,0.00,,,0.01,VWS V14.01,2013-04-30 14:25:00,
2013-04-30 10:26:00,55.2,47.1,30.27,SE,134,3.0,8.0,74,0.00,,,0.01,VWS V14.01,2013-04-30 14:26:00,
2013-04-30 10:27:00,55.3,46.8,30.27,East,92,5.0,8.0,73,0.00,,,0.01,VWS V14.01,2013-04-30 14:27:00,
2013-04-30 10:28:00,55.4,46.9,30.27,SSE,155,6.0,8.0,73,0.00,,,0.01,VWS V14.01,2013-04-30 14:28:00,
2013-04-30 10:29:00,55.4,46.9,30.27,SE,128,5.0,8.0,73,0.00,,,0.01,VWS V14.01,2013-04-30 14:29:00,
2013-04-30 10:30:00,55.5,47.0,30.27,East,97,3.0,8.0,73,0.00,,,0.01,VWS V14.01,2013-04-30 14:30:00,
2013-04-30 10:31:00,55.5,46.6,30.27,East,97,2.0,8.0,72,0.00,,,0.01,VWS V14.01,2013-04-30 14:31:00,
2013-04-30 10:32:00,55.5,46.6,30.27,East,97,2.0,8.0,72,0.00,,,0.01,VWS V14.01,2013-04-30 14:32:00,
2013-04-30 10:33:00,55.7,46.8,30.27,SSE,159,2.0,2.0,72,0.00,,,0.01,VWS V14.01,2013-04-30 14:33:00,
2013-04-30 10:34:00,55.7,46.8,30.27,NE,48,2.0,6.0,72,0.00,,,0.01,VWS V14.01,2013-04-30 14:34:00,
2013-04-30 10:35:00,55.8,46.9,30.27,SSE,164,1.0,6.0,72,0.00,,,0.01,VWS V14.01,2013-04-30 14:35:00,
2013-04-30 10:36:00,55.8,46.9,30.27,SSE,164,1.0,6.0,72,0.00,,,0.01,VWS V14.01,2013-04-30 14:36:00,
2013-04-30 10:37:00,55.8,46.9,30.27,SSE,164,1.0,6.0,72,0.00,,,0.01,VWS V14.01,2013-04-30 14:37:00,
2013-04-30 10:38:00,56.2,47.7,30.27,East,95,2.0,6.0,73,0.00,,,0.01,VWS V14.01,2013-04-30 14:38:00,
2013-04-30 10:39:00,56.3,47.8,30.27,ENE,59,8.0,8.0,73,0.00,,,0.01,VWS V14.01,2013-04-30 14:39:00,
2013-04-30 10:40:00,56.3,47.0,30.27,ENE,61,5.0,8.0,71,0.00,,,0.01,VWS V14.01,2013-04-30 14:40:00,
2013-04-30 10:41:00,56.3,47.0,30.27,ENE,61,5.0,8.0,71,0.00,,,0.01,VWS V14.01,2013-04-30 14:41:00,
2013-04-30 10:42:00,56.3,47.0,30.27,ENE,61,5.0,8.0,71,0.00,,,0.01,VWS V14.01,2013-04-30 14:42:00,
2013-04-30 10:43:00,56.3,47.0,30.27,ENE,61,5.0,8.0,71,0.00,,,0.01,VWS V14.01,2013-04-30 14:43:00,
2013-04-30 10:44:00,56.6,46.6,30.27,NE,55,1.0,5.0,69,0.00,,,0.01,VWS V14.01,2013-04-30 14:44:00,
2013-04-30 10:45:00,56.6,46.6,30.27,NE,55,0.0,5.0,69,0.00,,,0.01,VWS V14.01,2013-04-30 14:45:00,
2013-04-30 10:46:00,56.6,46.6,30.27,NE,55,0.0,5.0,69,0.00,,,0.01,VWS V14.01,2013-04-30 14:46:00,
2013-04-30 10:47:00,56.8,46.4,30.27,ENE,72,3.0,5.0,68,0.00,,,0.01,VWS V14.01,2013-04-30 14:47:00,
2013-04-30 10:48:00,56.8,46.4,30.27,SSE,163,3.0,5.0,68,0.00,,,0.01,VWS V14.01,2013-04-30 14:48:00,
2013-04-30 10:49:00,56.9,46.5,30.27,SSE,150,8.0,11.0,68,0.00,,,0.01,VWS V14.01,2013-04-30 14:49:00,
2013-04-30 10:50:00,56.9,46.1,30.27,SSE,150,7.0,11.0,67,0.00,,,0.01,VWS V14.01,2013-04-30 14:50:00,
2013-04-30 10:51:00,56.9,46.1,30.27,SSE,150,7.0,11.0,67,0.00,,,0.01,VWS V14.01,2013-04-30 14:51:00,
2013-04-30 10:52:00,56.9,46.1,30.27,SSE,150,7.0,11.0,67,0.00,,,0.01,VWS V14.01,2013-04-30 14:52:00,
2013-04-30 10:53:00,57.1,46.3,30.27,SSE,158,5.0,7.0,67,0.00,,,0.01,VWS V14.01,2013-04-30 14:53:00,
2013-04-30 10:54:00,57.1,46.3,30.27,SSE,155,3.0,7.0,67,0.00,,,0.01,VWS V14.01,2013-04-30 14:54:00,
2013-04-30 10:55:00,57.2,46.0,30.27,SSE,161,2.0,7.0,66,0.00,,,0.01,VWS V14.01,2013-04-30 14:55:00,
2013-04-30 10:56:00,57.2,46.0,30.27,SE,131,4.0,7.0,66,0.00,,,0.01,VWS V14.01,2013-04-30 14:56:00,
2013-04-30 10:57:00,57.2,46.0,30.27,SE,131,4.0,7.0,66,0.00,,,0.01,VWS V14.01,2013-04-30 14:57:00,
2013-04-30 10:58:00,57.2,45.6,30.27,ENE,74,5.0,7.0,65,0.00,,,0.01,VWS V14.01,2013-04-30 14:58:00,
2013-04-30 10:59:00,57.1,45.0,30.27,NE,46,2.0,7.0,64,0.00,,,0.01,VWS V14.01,2013-04-30 14:59:00,
2013-04-30 11:00:00,57.1,45.9,30.27,NE,46,1.0,7.0,66,0.00,,,0.01,VWS V14.01,2013-04-30 15:00:00,
2013-04-30 11:01:00,57.1,45.9,30.27,NE,46,0.0,7.0,66,0.00,,,0.01,VWS V14.01,2013-04-30 15:01:00,
2013-04-30 11:02:00,57.3,46.8,30.27,ESE,111,5.0,5.0,68,0.00,,,0.01,VWS V14.01,2013-04-30 15:02:00,
2013-04-30 11:03:00,57.4,46.2,30.27,ESE,106,5.0,5.0,66,0.00,,,0.01,VWS V14.01,2013-04-30 15:03:00,
2013-04-30 11:04:00,57.5,45.0,30.27,ESE,103,3.0,5.0,63,0.00,,,0.01,VWS V14.01,2013-04-30 15:04:00,
2013-04-30 11:05:00,57.5,44.6,30.27,East,101,3.0,5.0,62,0.00,,,0.01,VWS V14.01,2013-04-30 15:05:00,
2013-04-30 11:06:00,57.5,44.6,30.27,East,101,2.0,5.0,62,0.00,,,0.01,VWS V14.01,2013-04-30 15:06:00,
2013-04-30 11:07:00,57.5,44.6,30.27,East,101,2.0,5.0,62,0.00,,,0.01,VWS V14.01,2013-04-30 15:07:00,
2013-04-30 11:08:00,57.5,44.2,30.27,SSE,154,8.0,9.0,61,0.00,,,0.01,VWS V14.01,2013-04-30 15:08:00,
2013-04-30 11:09:00,57.5,43.7,30.27,SSE,154,1.0,9.0,60,0.00,,,0.01,VWS V14.01,2013-04-30 15:09:00,
2013-04-30 11:10:00,57.5,44.2,30.27,South,169,0.0,9.0,61,0.00,,,0.01,VWS V14.01,2013-04-30 15:10:00,
2013-04-30 11:11:00,57.5,44.2,30.27,South,169,0.0,9.0,61,0.00,,,0.01,VWS V14.01,2013-04-30 15:11:00,
2013-04-30 11:12:00,57.5,44.2,30.27,South,169,0.0,9.0,61,0.00,,,0.01,VWS V14.01,2013-04-30 15:12:00,
2013-04-30 11:13:00,57.5,43.7,30.27,ENE,74,2.0,2.0,60,0.00,,,0.01,VWS V14.01,2013-04-30 15:13:00,
2013-04-30 11:14:00,57.5,43.3,30.27,ENE,74,1.0,2.0,59,0.00,,,0.01,VWS V14.01,2013-04-30 15:14:00,
2013-04-30 11:15:00,57.5,43.3,30.27,NE,53,2.0,5.0,59,0.00,,,0.01,VWS V14.01,2013-04-30 15:15:00,
2013-04-30 11:16:00,57.5,43.3,30.27,ENE,72,3.0,5.0,59,0.00,,,0.01,VWS V14.01,2013-04-30 15:16:00,
2013-04-30 11:17:00,57.5,43.3,30.27,ENE,72,3.0,5.0,59,0.00,,,0.01,VWS V14.01,2013-04-30 15:17:00,
2013-04-30 11:18:00,57.5,43.3,30.27,ENE,72,3.0,5.0,59,0.00,,,0.01,VWS V14.01,2013-04-30 15:18:00,
2013-04-30 11:19:00,57.6,43.4,30.27,NE,34,1.0,5.0,59,0.00,,,0.01,VWS V14.01,2013-04-30 15:19:00,
2013-04-30 11:20:00,57.8,44.0,30.27,NE,34,0.0,5.0,60,0.00,,,0.01,VWS V14.01,2013-04-30 15:20:00,
2013-04-30 11:21:00,57.8,44.0,30.27,NE,34,0.0,5.0,60,0.00,,,0.01,VWS V14.01,2013-04-30 15:21:00,
2013-04-30 11:22:00,58.0,43.3,30.27,SSE,154,3.0,5.0,58,0.00,,,0.01,VWS V14.01,2013-04-30 15:22:00,
2013-04-30 11:23:00,58.1,43.4,30.27,SSE,152,2.0,5.0,58,0.00,,,0.01,VWS V14.01,2013-04-30 15:23:00,
2013-04-30 11:24:00,58.2,43.1,30.27,ENE,66,5.0,5.0,57,0.00,,,0.01,VWS V14.01,2013-04-30 15:24:00,
2013-04-30 11:25:00,58.4,42.8,30.27,East,100,3.0,7.0,56,0.00,,,0.01,VWS V14.01,2013-04-30 15:25:00,
2013-04-30 11:26:00,58.4,42.8,30.27,East,100,3.0,7.0,56,0.00,,,0.01,VWS V14.01,2013-04-30 15:26:00,
2013-04-30 11:27:00,58.4,42.8,30.27,East,100,3.0,7.0,56,0.00,,,0.01,VWS V14.01,2013-04-30 15:27:00,
2013-04-30 11:28:00,58.6,43.0,30.27,ENE,60,1.0,7.0,56,0.00,,,0.01,VWS V14.01,2013-04-30 15:28:00,
2013-04-30 11:29:00,58.7,43.5,30.27,WSW,248,1.0,7.0,57,0.00,,,0.01,VWS V14.01,2013-04-30 15:29:00,
2013-04-30 11:30:00,58.8,43.2,30.27,ENE,71,2.0,7.0,56,0.00,,,0.01,VWS V14.01,2013-04-30 15:30:00,
2013-04-30 11:31:00,58.8,43.2,30.27,ENE,68,2.0,7.0,56,0.00,,,0.01,VWS V14.01,2013-04-30 15:31:00,
2013-04-30 11:32:00,58.9,43.7,30.27,ENE,57,0.0,2.0,57,0.00,,,0.01,VWS V14.01,2013-04-30 15:32:00,
2013-04-30 11:33:00,59.0,43.8,30.27,ENE,76,4.0,7.0,57,0.00,,,0.01,VWS V14.01,2013-04-30 15:33:00,
2013-04-30 11:34:00,59.2,44.0,30.27,South,172,3.0,9.0,57,0.00,,,0.01,VWS V14.01,2013-04-30 15:34:00,
2013-04-30 11:35:00,59.2,42.6,30.27,ESE,123,2.0,9.0,54,0.00,,,0.01,VWS V14.01,2013-04-30 15:35:00,
2013-04-30 11:36:00,59.2,42.6,30.27,ESE,121,1.0,9.0,54,0.00,,,0.01,VWS V14.01,2013-04-30 15:36:00,
2013-04-30 11:37:00,59.3,42.7,30.27,South,179,2.0,9.0,54,0.00,,,0.01,VWS V14.01,2013-04-30 15:37:00,
2013-04-30 11:38:00,59.4,42.8,30.27,East,80,3.0,9.0,54,0.00,,,0.01,VWS V14.01,2013-04-30 15:38:00,
2013-04-30 11:39:00,59.4,42.3,30.27,NE,40,3.0,9.0,53,0.00,,,0.01,VWS V14.01,2013-04-30 15:39:00,
2013-04-30 11:40:00,59.4,42.8,30.27,NE,40,3.0,9.0,54,0.00,,,0.01,VWS V14.01,2013-04-30 15:40:00,
2013-04-30 11:41:00,59.4,42.3,30.27,NE,40,2.0,9.0,53,0.00,,,0.01,VWS V14.01,2013-04-30 15:41:00,
2013-04-30 11:42:00,59.4,42.3,30.27,ENE,58,4.0,4.0,53,0.00,,,0.01,VWS V14.01,2013-04-30 15:42:00,
2013-04-30 11:43:00,59.4,42.8,30.27,NE,50,4.0,5.0,54,0.00,,,0.01,VWS V14.01,2013-04-30 15:43:00,
2013-04-30 11:44:00,59.4,42.8,30.27,East,92,1.0,5.0,54,0.00,,,0.01,VWS V14.01,2013-04-30 15:44:00,
2013-04-30 11:45:00,59.4,43.2,30.27,East,97,6.0,9.0,55,0.00,,,0.01,VWS V14.01,2013-04-30 15:45:00,
2013-04-30 11:46:00,59.4,43.2,30.27,East,97,6.0,9.0,55,0.00,,,0.01,VWS V14.01,2013-04-30 15:46:00,
2013-04-30 11:47:00,59.6,43.0,30.27,SE,134,9.0,9.0,54,0.00,,,0.01,VWS V14.01,2013-04-30 15:47:00,
2013-04-30 11:48:00,59.6,42.0,30.27,South,180,6.0,9.0,52,0.00,,,0.01,VWS V14.01,2013-04-30 15:48:00,
2013-04-30 11:49:00,59.7,42.6,30.27,SSE,166,4.0,9.0,53,0.00,,,0.01,VWS V14.01,2013-04-30 15:49:00,
2013-04-30 11:50:00,59.8,43.1,30.27,SSE,166,1.0,9.0,54,0.00,,,0.01,VWS V14.01,2013-04-30 15:50:00,
2013-04-30 11:51:00,59.8,43.1,30.27,SSE,167,4.0,9.0,54,0.00,,,0.01,VWS V14.01,2013-04-30 15:51:00,
2013-04-30 11:52:00,60.0,43.3,30.27,South,171,0.0,4.0,54,0.00,,,0.01,VWS V14.01,2013-04-30 15:52:00,
2013-04-30 11:53:00,60.1,43.4,30.27,SSE,167,5.0,5.0,54,0.00,,,0.01,VWS V14.01,2013-04-30 15:53:00,
2013-04-30 11:54:00,60.2,43.0,30.27,ENE,67,7.0,7.0,53,0.00,,,0.01,VWS V14.01,2013-04-30 15:54:00,
2013-04-30 11:55:00,60.3,43.1,30.27,NNE,27,4.0,8.0,53,0.00,,,0.01,VWS V14.01,2013-04-30 15:55:00,
2013-04-30 11:56:00,60.3,43.1,30.27,NNE,27,4.0,8.0,53,0.00,,,0.01,VWS V14.01,2013-04-30 15:56:00,
2013-04-30 11:57:00,60.3,42.6,30.27,SE,145,1.0,8.0,52,0.00,,,0.01,VWS V14.01,2013-04-30 15:57:00,
2013-04-30 11:58:00,60.4,42.7,30.27,NNE,20,0.0,8.0,52,0.00,,,0.01,VWS V14.01,2013-04-30 15:58:00,
2013-04-30 11:59:00,60.4,43.2,30.27,SE,141,6.0,8.0,53,0.00,,,0.01,VWS V14.01,2013-04-30 15:59:00,
2013-04-30 12:00:00,60.4,42.7,30.27,East,88,5.0,8.0,52,0.00,,,0.01,VWS V14.01,2013-04-30 16:00:00,
2013-04-30 12:01:00,60.5,42.8,30.27,SE,144,4.0,8.0,52,0.00,,,0.01,VWS V14.01,2013-04-30 16:01:00,
2013-04-30 12:02:00,60.6,42.9,30.27,East,88,2.0,4.0,52,0.01,,,0.02,VWS V14.01,2013-04-30 16:02:00,
2013-04-30 12:03:00,60.7,44.0,30.27,ENE,57,4.0,8.0,54,0.01,,,0.02,VWS V14.01,2013-04-30 16:03:00,
2013-04-30 12:04:00,60.8,42.6,30.27,East,87,2.0,8.0,51,0.01,,,0.02,VWS V14.01,2013-04-30 16:04:00,
2013-04-30 12:05:00,60.8,43.1,30.27,ESE,103,3.0,9.0,52,0.01,,,0.02,VWS V14.01,2013-04-30 16:05:00,
2013-04-30 12:06:00,60.8,43.1,30.27,ESE,103,3.0,9.0,52,0.01,,,0.02,VWS V14.01,2013-04-30 16:06:00,
2013-04-30 12:07:00,60.8,43.1,30.27,ESE,103,3.0,9.0,52,0.01,,,0.02,VWS V14.01,2013-04-30 16:07:00,
2013-04-30 12:08:00,60.9,42.7,30.27,ENE,72,2.0,9.0,51,0.01,,,0.02,VWS V14.01,2013-04-30 16:08:00,
2013-04-30 12:09:00,60.9,43.2,30.27,ENE,73,3.0,9.0,52,0.01,,,0.02,VWS V14.01,2013-04-30 16:09:00,
2013-04-30 12:10:00,60.9,43.2,30.27,SE,143,3.0,9.0,52,0.01,,,0.02,VWS V14.01,2013-04-30 16:10:00,
2013-04-30 12:11:00,60.9,43.7,30.27,SE,138,4.0,9.0,53,0.01,,,0.02,VWS V14.01,2013-04-30 16:11:00,
2013-04-30 12:12:00,60.9,43.7,30.27,SE,138,4.0,9.0,53,0.01,,,0.02,VWS V14.01,2013-04-30 16:12:00,
2013-04-30 12:13:00,60.9,43.7,30.27,SE,138,4.0,9.0,53,0.01,,,0.02,VWS V14.01,2013-04-30 16:13:00,
2013-04-30 12:14:00,61.1,42.8,30.27,NE,55,4.0,7.0,51,0.01,,,0.02,VWS V14.01,2013-04-30 16:14:00,
2013-04-30 12:15:00,61.0,42.8,30.26,ENE,68,2.0,7.0,51,0.01,,,0.02,VWS V14.01,2013-04-30 16:15:00,
2013-04-30 12:16:00,61.0,42.8,30.26,ENE,68,2.0,7.0,51,0.01,,,0.02,VWS V14.01,2013-04-30 16:16:00,
2013-04-30 12:17:00,61.0,42.8,30.26,ENE,68,2.0,7.0,51,0.01,,,0.02,VWS V14.01,2013-04-30 16:17:00,
2013-04-30 12:18:00,61.0,42.8,30.26,ENE,68,2.0,7.0,51,0.01,,,0.02,VWS V14.01,2013-04-30 16:18:00,
2013-04-30 12:19:00,61.0,42.8,30.26,SSE,164,2.0,7.0,51,0.01,,,0.02,VWS V14.01,2013-04-30 16:19:00,
2013-04-30 12:20:00,61.1,43.4,30.26,ENE,74,1.0,7.0,52,0.01,,,0.02,VWS V14.01,2013-04-30 16:20:00,
2013-04-30 12:21:00,61.1,43.4,30.26,ENE,74,0.0,7.0,52,0.01,,,0.02,VWS V14.01,2013-04-30 16:21:00,
2013-04-30 12:22:00,61.1,43.4,30.26,ENE,74,0.0,7.0,52,0.01,,,0.02,VWS V14.01,2013-04-30 16:22:00,
2013-04-30 12:23:00,61.5,44.2,30.26,SSE,153,9.0,9.0,53,0.01,,,0.02,VWS V14.01,2013-04-30 16:23:00,
2013-04-30 12:24:00,61.6,43.3,30.26,East,92,3.0,11.0,51,0.01,,,0.02,VWS V14.01,2013-04-30 16:24:00,
2013-04-30 12:25:00,61.6,42.8,30.26,East,80,2.0,11.0,50,0.01,,,0.02,VWS V14.01,2013-04-30 16:25:00,
2013-04-30 12:26:00,61.6,42.8,30.26,East,80,1.0,11.0,50,0.01,,,0.02,VWS V14.01,2013-04-30 16:26:00,
2013-04-30 12:27:00,61.6,42.8,30.26,East,80,1.0,11.0,50,0.01,,,0.02,VWS V14.01,2013-04-30 16:27:00,
2013-04-30 12:28:00,61.8,43.5,30.26,SSE,151,3.0,11.0,51,0.01,,,0.02,VWS V14.01,2013-04-30 16:28:00,
2013-04-30 12:29:00,61.8,43.5,30.26,SSE,165,5.0,11.0,51,0.01,,,0.02,VWS V14.01,2013-04-30 16:29:00,
2013-04-30 12:30:00,61.9,43.6,30.26,SE,135,7.0,11.0,51,0.01,,,0.02,VWS V14.01,2013-04-30 16:30:00,
2013-04-30 12:31:00,61.9,43.6,30.26,SSE,148,6.0,7.0,51,0.01,,,0.02,VWS V14.01,2013-04-30 16:31:00,
2013-04-30 12:32:00,61.8,42.5,30.26,SSE,163,8.0,8.0,49,0.01,,,0.02,VWS V14.01,2013-04-30 16:32:00,
2013-04-30 12:33:00,61.8,43.0,30.26,SE,130,1.0,8.0,50,0.01,,,0.02,VWS V14.01,2013-04-30 16:33:00,
2013-04-30 12:34:00,61.9,43.6,30.26,SW,215,8.0,8.0,51,0.01,,,0.02,VWS V14.01,2013-04-30 16:34:00,
2013-04-30 12:35:00,61.9,43.1,30.26,SW,215,4.0,8.0,50,0.01,,,0.02,VWS V14.01,2013-04-30 16:35:00,
2013-04-30 12:36:00,61.9,43.1,30.26,SW,215,3.0,8.0,50,0.01,,,0.02,VWS V14.01,2013-04-30 16:36:00,
2013-04-30 12:37:00,61.9,43.1,30.26,SW,215,3.0,8.0,50,0.01,,,0.02,VWS V14.01,2013-04-30 16:37:00,
2013-04-30 12:38:00,62.1,44.3,30.26,SSE,153,1.0,8.0,52,0.01,,,0.02,VWS V14.01,2013-04-30 16:38:00,
2013-04-30 12:39:00,62.2,44.4,30.26,SSE,153,1.0,8.0,52,0.01,,,0.02,VWS V14.01,2013-04-30 16:39:00,
2013-04-30 12:40:00,62.4,45.1,30.26,SSE,148,4.0,8.0,53,0.01,,,0.02,VWS V14.01,2013-04-30 16:40:00,
2013-04-30 12:41:00,62.4,45.1,30.26,SE,146,4.0,8.0,53,0.01,,,0.02,VWS V14.01,2013-04-30 16:41:00,
2013-04-30 12:42:00,62.4,45.1,30.26,SE,146,4.0,8.0,53,0.01,,,0.02,VWS V14.01,2013-04-30 16:42:00,
2013-04-30 12:43:00,62.6,43.7,30.26,SSW,196,4.0,4.0,50,0.01,,,0.02,VWS V14.01,2013-04-30 16:43:00,
2013-04-30 12:44:00,62.7,43.8,30.26,SSE,147,3.0,5.0,50,0.01,,,0.02,VWS V14.01,2013-04-30 16:44:00,
2013-04-30 12:45:00,62.8,44.9,30.26,SE,128,3.0,5.0,52,0.01,,,0.02,VWS V14.01,2013-04-30 16:45:00,
2013-04-30 12:46:00,62.8,44.9,30.26,SE,128,3.0,5.0,52,0.01,,,0.02,VWS V14.01,2013-04-30 16:46:00,
2013-04-30 12:47:00,62.8,44.9,30.26,SE,128,3.0,5.0,52,0.01,,,0.02,VWS V14.01,2013-04-30 16:47:00,
2013-04-30 12:48:00,62.8,44.9,30.26,SE,128,3.0,5.0,52,0.01,,,0.02,VWS V14.01,2013-04-30 16:48:00,
2013-04-30 12:49:00,63.1,44.7,30.26,South,171,5.0,10.0,51,0.01,,,0.02,VWS V14.01,2013-04-30 16:49:00,
2013-04-30 12:50:00,63.2,44.3,30.26,SE,146,2.0,10.0,50,0.01,,,0.02,VWS V14.01,2013-04-30 16:50:00,
2013-04-30 12:51:00,63.2,44.3,30.26,SE,146,2.0,10.0,50,0.01,,,0.02,VWS V14.01,2013-04-30 16:51:00,
2013-04-30 12:52:00,63.2,44.3,30.26,SE,146,2.0,10.0,50,0.01,,,0.02,VWS V14.01,2013-04-30 16:52:00,
2013-04-30 12:53:00,63.1,44.2,30.26,ENE,74,1.0,7.0,50,0.01,,,0.02,VWS V14.01,2013-04-30 16:53:00,
2013-04-30 12:54:00,63.1,44.2,30.26,SSE,157,5.0,7.0,50,0.01,,,0.02,VWS V14.01,2013-04-30 16:54:00,
2013-04-30 12:55:00,63.2,43.7,30.26,SE,144,3.0,7.0,49,0.01,,,0.02,VWS V14.01,2013-04-30 16:55:00,
2013-04-30 12:56:00,63.2,43.7,30.26,SE,144,3.0,7.0,49,0.01,,,0.02,VWS V14.01,2013-04-30 16:56:00,
2013-04-30 12:57:00,63.2,43.7,30.26,SE,144,3.0,7.0,49,0.01,,,0.02,VWS V14.01,2013-04-30 16:57:00,
2013-04-30 12:58:00,63.2,44.3,30.26,ESE,115,3.0,7.0,50,0.01,,,0.02,VWS V14.01,2013-04-30 16:58:00,
2013-04-30 12:59:00,63.2,43.2,30.26,ESE,115,1.0,7.0,48,0.01,,,0.02,VWS V14.01,2013-04-30 16:59:00,
2013-04-30 13:00:00,63.2,43.2,30.26,SSW,208,7.0,7.0,48,0.01,,,0.02,VWS V14.01,2013-04-30 17:00:00,
2013-04-30 13:01:00,63.2,43.2,30.26,SSW,208,4.0,7.0,48,0.01,,,0.02,VWS V14.01,2013-04-30 17:01:00,
2013-04-30 13:02:00,63.2,43.2,30.26,ESE,104,1.0,4.0,48,0.01,,,0.02,VWS V14.01,2013-04-30 17:02:00,
2013-04-30 13:03:00,63.2,43.7,30.26,SE,142,2.0,4.0,49,0.01,,,0.02,VWS V14.01,2013-04-30 17:03:00,
2013-04-30 13:04:00,63.2,43.2,30.26,SSE,155,6.0,6.0,48,0.01,,,0.02,VWS V14.01,2013-04-30 17:04:00,
2013-04-30 13:05:00,63.2,43.2,30.26,SSE,163,4.0,8.0,48,0.01,,,0.02,VWS V14.01,2013-04-30 17:05:00,
2013-04-30 13:06:00,63.2,43.2,30.26,South,182,3.0,8.0,48,0.01,,,0.02,VWS V14.01,2013-04-30 17:06:00,
2013-04-30 13:07:00,63.2,43.2,30.26,South,182,3.0,8.0,48,0.01,,,0.02,VWS V14.01,2013-04-30 17:07:00,
2013-04-30 13:08:00,63.3,43.8,30.26,SW,222,3.0,8.0,49,0.01,,,0.02,VWS V14.01,2013-04-30 17:08:00,
2013-04-30 13:09:00,63.3,43.8,30.26,SSE,155,4.0,8.0,49,0.01,,,0.02,VWS V14.01,2013-04-30 17:09:00,
2013-04-30 13:10:00,63.3,42.8,30.26,SSE,159,4.0,8.0,47,0.01,,,0.02,VWS V14.01,2013-04-30 17:10:00,
2013-04-30 13:11:00,63.3,42.8,30.26,SSE,160,6.0,8.0,47,0.01,,,0.02,VWS V14.01,2013-04-30 17:11:00,
2013-04-30 13:12:00,63.3,43.8,30.26,SSE,160,1.0,6.0,49,0.00,,,0.02,VWS V14.01,2013-04-30 17:12:00,
2013-04-30 13:13:00,63.4,43.9,30.26,SSE,160,0.0,6.0,49,0.00,,,0.02,VWS V14.01,2013-04-30 17:13:00,
2013-04-30 13:14:00,63.4,44.5,30.26,ENE,76,0.0,6.0,50,0.00,,,0.02,VWS V14.01,2013-04-30 17:14:00,
2013-04-30 13:15:00,63.4,45.0,30.26,SW,229,0.0,6.0,51,0.00,,,0.02,VWS V14.01,2013-04-30 17:15:00,
2013-04-30 13:16:00,63.5,44.0,30.26,SW,229,0.0,6.0,49,0.00,,,0.02,VWS V14.01,2013-04-30 17:16:00,
2013-04-30 13:17:00,63.6,43.6,30.26,SW,227,2.0,6.0,48,0.00,,,0.02,VWS V14.01,2013-04-30 17:17:00,
2013-04-30 13:18:00,63.6,44.1,30.26,SW,227,2.0,6.0,49,0.00,,,0.02,VWS V14.01,2013-04-30 17:18:00,
2013-04-30 13:19:00,63.7,44.2,30.26,SE,139,3.0,6.0,49,0.00,,,0.02,VWS V14.01,2013-04-30 17:19:00,
2013-04-30 13:20:00,63.8,43.8,30.26,SSE,155,4.0,6.0,48,0.00,,,0.02,VWS V14.01,2013-04-30 17:20:00,
2013-04-30 13:21:00,63.8,43.8,30.26,SSE,155,4.0,6.0,48,0.00,,,0.02,VWS V14.01,2013-04-30 17:21:00,
2013-04-30 13:22:00,63.8,43.2,30.26,East,85,3.0,4.0,47,0.00,,,0.02,VWS V14.01,2013-04-30 17:22:00,
2013-04-30 13:23:00,63.8,43.2,30.26,East,88,0.0,5.0,47,0.00,,,0.02,VWS V14.01,2013-04-30 17:23:00,
2013-04-30 13:24:00,63.7,43.1,30.26,East,88,2.0,5.0,47,0.00,,,0.02,VWS V14.01,2013-04-30 17:24:00,
2013-04-30 13:25:00,63.6,43.0,30.26,ENE,70,5.0,5.0,47,0.00,,,0.02,VWS V14.01,2013-04-30 17:25:00,
2013-04-30 13:26:00,63.6,43.0,30.26,ENE,70,5.0,5.0,47,0.00,,,0.02,VWS V14.01,2013-04-30 17:26:00,
2013-04-30 13:27:00,63.6,43.0,30.26,ENE,70,5.0,5.0,47,0.00,,,0.02,VWS V14.01,2013-04-30 17:27:00,
2013-04-30 13:28:00,63.1,43.1,30.26,ENE,69,0.0,5.0,48,0.00,,,0.02,VWS V14.01,2013-04-30 17:28:00,
2013-04-30 13:29:00,63.1,43.1,30.26,ENE,69,1.0,5.0,48,0.00,,,0.02,VWS V14.01,2013-04-30 17:29:00,
2013-04-30 13:30:00,63.1,43.7,30.26,SSE,163,4.0,7.0,49,0.00,,,0.02,VWS V14.01,2013-04-30 17:30:00,
2013-04-30 13:31:00,63.1,43.7,30.26,SSE,163,4.0,7.0,49,0.00,,,0.02,VWS V14.01,2013-04-30 17:31:00,
2013-04-30 13:32:00,63.1,43.7,30.26,SSE,163,4.0,7.0,49,0.00,,,0.02,VWS V14.01,2013-04-30 17:32:00,
2013-04-30 13:33:00,63.1,43.7,30.26,SSE,163,4.0,7.0,49,0.00,,,0.02,VWS V14.01,2013-04-30 17:33:00,
2013-04-30 13:34:00,63.2,42.7,30.26,SSW,202,7.0,7.0,47,0.00,,,0.02,VWS V14.01,2013-04-30 17:34:00,
2013-04-30 13:35:00,63.3,41.0,30.26,SSW,202,3.0,7.0,44,0.00,,,0.02,VWS V14.01,2013-04-30 17:35:00,
2013-04-30 13:36:00,63.3,41.0,30.26,SSW,200,4.0,7.0,44,0.00,,,0.02,VWS V14.01,2013-04-30 17:36:00,
2013-04-30 13:37:00,63.3,41.0,30.26,SSW,200,4.0,7.0,44,0.00,,,0.02,VWS V14.01,2013-04-30 17:37:00,
2013-04-30 13:38:00,63.3,41.0,30.26,SSW,200,4.0,7.0,44,0.00,,,0.02,VWS V14.01,2013-04-30 17:38:00,
2013-04-30 13:39:00,63.4,42.3,30.26,SE,140,8.0,8.0,46,0.00,,,0.02,VWS V14.01,2013-04-30 17:39:00,
2013-04-30 13:40:00,63.5,41.2,30.26,South,184,5.0,8.0,44,0.00,,,0.02,VWS V14.01,2013-04-30 17:40:00,
2013-04-30 13:41:00,63.5,41.2,30.26,SW,217,2.0,8.0,44,0.00,,,0.02,VWS V14.01,2013-04-30 17:41:00,
2013-04-30 13:42:00,63.5,40.6,30.26,SSE,160,3.0,3.0,43,0.00,,,0.02,VWS V14.01,2013-04-30 17:42:00,
2013-04-30 13:43:00,63.5,40.6,30.26,SE,143,3.0,8.0,43,0.00,,,0.02,VWS V14.01,2013-04-30 17:43:00,
2013-04-30 13:44:00,63.5,40.0,30.26,ESE,103,5.0,8.0,42,0.00,,,0.02,VWS V14.01,2013-04-30 17:44:00,
2013-04-30 13:45:00,63.5,40.6,30.25,SSE,161,7.0,8.0,43,0.00,,,0.02,VWS V14.01,2013-04-30 17:45:00,
2013-04-30 13:46:00,63.5,40.6,30.25,South,169,7.0,8.0,43,0.00,,,0.02,VWS V14.01,2013-04-30 17:46:00,
2013-04-30 13:47:00,63.5,40.6,30.25,South,169,7.0,8.0,43,0.00,,,0.02,VWS V14.01,2013-04-30 17:47:00,
2013-04-30 13:48:00,63.6,40.7,30.25,ESE,120,2.0,8.0,43,0.00,,,0.02,VWS V14.01,2013-04-30 17:48:00,
2013-04-30 13:49:00,63.6,40.7,30.25,SE,134,3.0,8.0,43,0.00,,,0.02,VWS V14.01,2013-04-30 17:49:00,
2013-04-30 13:50:00,63.6,39.5,30.25,East,98,1.0,8.0,41,0.00,,,0.02,VWS V14.01,2013-04-30 17:50:00,
2013-04-30 13:51:00,63.6,39.5,30.25,East,97,3.0,3.0,41,0.00,,,0.02,VWS V14.01,2013-04-30 17:51:00,
2013-04-30 13:52:00,63.6,39.5,30.25,East,97,3.0,3.0,41,0.00,,,0.02,VWS V14.01,2013-04-30 17:52:00,
2013-04-30 13:53:00,63.6,40.7,30.25,SSE,150,9.0,9.0,43,0.00,,,0.02,VWS V14.01,2013-04-30 17:53:00,
2013-04-30 13:54:00,63.6,39.5,30.25,SSE,163,8.0,10.0,41,0.00,,,0.02,VWS V14.01,2013-04-30 17:54:00,
2013-04-30 13:55:00,63.6,39.5,30.25,ESE,107,5.0,10.0,41,0.00,,,0.02,VWS V14.01,2013-04-30 17:55:00,
2013-04-30 13:56:00,63.6,39.5,30.25,ESE,111,4.0,10.0,41,0.00,,,0.02,VWS V14.01,2013-04-30 17:56:00,
2013-04-30 13:57:00,63.7,39.6,30.25,NE,46,2.0,10.0,41,0.00,,,0.02,VWS V14.01,2013-04-30 17:57:00,
2013-04-30 13:58:00,63.7,40.2,30.25,SSW,202,3.0,10.0,42,0.00,,,0.02,VWS V14.01,2013-04-30 17:58:00,
2013-04-30 13:59:00,63.7,40.2,30.25,SSE,148,4.0,10.0,42,0.00,,,0.02,VWS V14.01,2013-04-30 17:59:00,
2013-04-30 14:00:00,63.7,39.0,30.26,SSE,150,3.0,10.0,40,0.00,,,0.02,VWS V14.01,2013-04-30 18:00:00,
2013-04-30 14:01:00,63.7,39.0,30.26,SSE,147,2.0,10.0,40,0.00,,,0.02,VWS V14.01,2013-04-30 18:01:00,
2013-04-30 14:02:00,63.6,39.5,30.26,SSE,168,5.0,5.0,41,0.00,,,0.02,VWS V14.01,2013-04-30 18:02:00,
2013-04-30 14:03:00,63.6,38.9,30.26,SE,142,8.0,8.0,40,0.00,,,0.02,VWS V14.01,2013-04-30 18:03:00,
2013-04-30 14:04:00,63.6,38.9,30.26,South,169,4.0,9.0,40,0.00,,,0.02,VWS V14.01,2013-04-30 18:04:00,
2013-04-30 14:05:00,63.6,38.9,30.26,SSW,196,0.0,9.0,40,0.00,,,0.02,VWS V14.01,2013-04-30 18:05:00,
2013-04-30 14:06:00,63.6,38.9,30.26,ENE,69,0.0,9.0,40,0.00,,,0.02,VWS V14.01,2013-04-30 18:06:00,
2013-04-30 14:07:00,63.6,38.2,30.26,North,360,5.0,9.0,39,0.00,,,0.02,VWS V14.01,2013-04-30 18:07:00,
2013-04-30 14:08:00,63.5,38.1,30.26,East,93,6.0,9.0,39,0.00,,,0.02,VWS V14.01,2013-04-30 18:08:00,
2013-04-30 14:09:00,63.6,39.5,30.26,SSE,151,5.0,9.0,41,0.00,,,0.02,VWS V14.01,2013-04-30 18:09:00,
2013-04-30 14:10:00,63.6,38.2,30.26,SSW,211,5.0,9.0,39,0.00,,,0.02,VWS V14.01,2013-04-30 18:10:00,
2013-04-30 14:11:00,63.6,38.2,30.26,SSW,211,2.0,9.0,39,0.00,,,0.02,VWS V14.01,2013-04-30 18:11:00,
2013-04-30 14:12:00,63.6,38.2,30.26,SSW,211,2.0,9.0,39,0.00,,,0.02,VWS V14.01,2013-04-30 18:12:00,
2013-04-30 14:13:00,63.7,37.0,30.26,SE,140,6.0,9.0,37,0.00,,,0.02,VWS V14.01,2013-04-30 18:13:00,
2013-04-30 14:14:00,63.7,36.3,30.26,South,182,3.0,9.0,36,0.00,,,0.02,VWS V14.01,2013-04-30 18:14:00,
2013-04-30 14:15:00,63.7,36.3,30.25,SSE,155,5.0,9.0,36,0.00,,,0.02,VWS V14.01,2013-04-30 18:15:00,
2013-04-30 14:16:00,63.7,36.3,30.25,SE,146,7.0,9.0,36,0.00,,,0.02,VWS V14.01,2013-04-30 18:16:00,
2013-04-30 14:17:00,63.8,37.7,30.25,SSW,200,6.0,9.0,38,0.00,,,0.02,VWS V14.01,2013-04-30 18:17:00,
2013-04-30 14:18:00,63.8,38.4,30.25,SSE,160,5.0,9.0,39,0.00,,,0.02,VWS V14.01,2013-04-30 18:18:00,
2013-04-30 14:19:00,63.9,37.8,30.25,NE,45,2.0,9.0,38,0.00,,,0.02,VWS V14.01,2013-04-30 18:19:00,
2013-04-30 14:20:00,64.0,39.2,30.25,ENE,60,7.0,9.0,40,0.00,,,0.02,VWS V14.01,2013-04-30 18:20:00,
2013-04-30 14:21:00,64.0,39.2,30.25,ENE,60,7.0,9.0,40,0.00,,,0.02,VWS V14.01,2013-04-30 18:21:00,
2013-04-30 14:22:00,64.1,38.7,30.25,NE,49,3.0,7.0,39,0.00,,,0.02,VWS V14.01,2013-04-30 18:22:00,
2013-04-30 14:23:00,64.1,38.0,30.25,SE,129,3.0,7.0,38,0.00,,,0.02,VWS V14.01,2013-04-30 18:23:00,
2013-04-30 14:24:00,64.1,38.0,30.25,ESE,123,3.0,7.0,38,0.00,,,0.02,VWS V14.01,2013-04-30 18:24:00,
2013-04-30 14:25:00,64.1,37.3,30.25,SSE,161,5.0,7.0,37,0.00,,,0.02,VWS V14.01,2013-04-30 18:25:00,
2013-04-30 14:26:00,64.1,37.3,30.25,SSE,161,5.0,7.0,37,0.00,,,0.02,VWS V14.01,2013-04-30 18:26:00,
2013-04-30 14:27:00,64.1,38.0,30.25,SSE,156,6.0,7.0,38,0.00,,,0.02,VWS V14.01,2013-04-30 18:27:00,
2013-04-30 14:28:00,64.1,37.3,30.25,SE,145,1.0,7.0,37,0.00,,,0.02,VWS V14.01,2013-04-30 18:28:00,
2013-04-30 14:29:00,64.1,37.3,30.25,NE,48,1.0,7.0,37,0.00,,,0.02,VWS V14.01,2013-04-30 18:29:00,
2013-04-30 14:30:00,64.1,38.7,30.25,NE,38,0.0,7.0,39,0.00,,,0.02,VWS V14.01,2013-04-30 18:30:00,
2013-04-30 14:31:00,64.1,38.7,30.25,NE,38,0.0,7.0,39,0.00,,,0.02,VWS V14.01,2013-04-30 18:31:00,
2013-04-30 14:32:00,64.2,37.4,30.25,East,83,5.0,5.0,37,0.00,,,0.02,VWS V14.01,2013-04-30 18:32:00,
2013-04-30 14:33:00,64.1,37.3,30.25,NE,44,4.0,5.0,37,0.00,,,0.02,VWS V14.01,2013-04-30 18:33:00,
2013-04-30 14:34:00,64.1,37.3,30.25,East,88,2.0,5.0,37,0.00,,,0.02,VWS V14.01,2013-04-30 18:34:00,
2013-04-30 14:35:00,64.1,38.0,30.25,East,94,3.0,5.0,38,0.00,,,0.02,VWS V14.01,2013-04-30 18:35:00,
2013-04-30 14:36:00,64.1,38.0,30.25,ESE,103,3.0,5.0,38,0.00,,,0.02,VWS V14.01,2013-04-30 18:36:00,
2013-04-30 14:37:00,64.2,36.7,30.25,SSW,194,1.0,5.0,36,0.00,,,0.02,VWS V14.01,2013-04-30 18:37:00,
2013-04-30 14:38:00,64.3,37.5,30.25,SW,215,3.0,6.0,37,0.00,,,0.02,VWS V14.01,2013-04-30 18:38:00,
2013-04-30 14:39:00,64.3,37.5,30.25,ESE,121,8.0,8.0,37,0.00,,,0.02,VWS V14.01,2013-04-30 18:39:00,
2013-04-30 14:40:00,64.3,37.5,30.25,SSW,199,2.0,8.0,37,0.00,,,0.02,VWS V14.01,2013-04-30 18:40:00,
2013-04-30 14:41:00,64.4,37.6,30.25,SSW,199,5.0,8.0,37,0.00,,,0.02,VWS V14.01,2013-04-30 18:41:00,
2013-04-30 14:42:00,64.4,38.3,30.25,WSW,250,2.0,5.0,38,0.00,,,0.02,VWS V14.01,2013-04-30 18:42:00,
2013-04-30 14:43:00,64.4,38.3,30.25,SW,227,2.0,5.0,38,0.00,,,0.02,VWS V14.01,2013-04-30 18:43:00,
2013-04-30 14:44:00,64.5,37.7,30.25,SW,219,3.0,5.0,37,0.00,,,0.02,VWS V14.01,2013-04-30 18:44:00,
2013-04-30 14:45:00,64.5,38.3,30.26,SE,140,3.0,8.0,38,0.00,,,0.02,VWS V14.01,2013-04-30 18:45:00,
2013-04-30 14:46:00,64.5,38.3,30.26,South,186,5.0,8.0,38,0.00,,,0.02,VWS V14.01,2013-04-30 18:46:00,
2013-04-30 14:47:00,64.5,39.7,30.26,SSW,194,4.0,8.0,40,0.00,,,0.02,VWS V14.01,2013-04-30 18:47:00,
2013-04-30 14:48:00,64.6,39.8,30.26,SSW,202,6.0,8.0,40,0.00,,,0.02,VWS V14.01,2013-04-30 18:48:00,
2013-04-30 14:49:00,64.6,38.4,30.26,SSW,206,4.0,8.0,38,0.00,,,0.02,VWS V14.01,2013-04-30 18:49:00,
2013-04-30 14:50:00,64.6,38.4,30.26,SSW,206,4.0,8.0,38,0.00,,,0.02,VWS V14.01,2013-04-30 18:50:00,
2013-04-30 14:51:00,64.6,38.4,30.26,SSW,207,4.0,8.0,38,0.00,,,0.02,VWS V14.01,2013-04-30 18:51:00,
2013-04-30 14:52:00,64.6,38.4,30.26,SSW,207,4.0,8.0,38,0.00,,,0.02,VWS V14.01,2013-04-30 18:52:00,
2013-04-30 14:53:00,64.5,37.7,30.26,SSE,167,3.0,4.0,37,0.00,,,0.02,VWS V14.01,2013-04-30 18:53:00,
2013-04-30 14:54:00,64.5,38.3,30.26,SSE,167,2.0,5.0,38,0.00,,,0.02,VWS V14.01,2013-04-30 18:54:00,
2013-04-30 14:55:00,64.4,37.6,30.26,SSE,167,2.0,5.0,37,0.00,,,0.02,VWS V14.01,2013-04-30 18:55:00,
2013-04-30 14:56:00,64.4,37.6,30.26,SSE,167,2.0,5.0,37,0.00,,,0.02,VWS V14.01,2013-04-30 18:56:00,
2013-04-30 14:57:00,64.3,38.2,30.26,SSE,167,0.0,5.0,38,0.00,,,0.02,VWS V14.01,2013-04-30 18:57:00,
2013-04-30 14:58:00,64.3,38.2,30.26,SSE,167,0.0,5.0,38,0.00,,,0.02,VWS V14.01,2013-04-30 18:58:00,
2013-04-30 14:59:00,64.3,38.2,30.26,SSE,167,1.0,5.0,38,0.00,,,0.02,VWS V14.01,2013-04-30 18:59:00,
2013-04-30 15:00:00,64.3,37.5,30.25,SSE,167,0.0,5.0,37,0.00,,,0.02,VWS V14.01,2013-04-30 19:00:00,
2013-04-30 15:01:00,64.3,37.5,30.25,SSE,167,0.0,5.0,37,0.00,,,0.02,VWS V14.01,2013-04-30 19:01:00,
2013-04-30 15:02:00,64.2,37.4,30.25,SSE,167,0.0,5.0,37,0.00,,,0.02,VWS V14.01,2013-04-30 19:02:00,
2013-04-30 15:03:00,64.2,38.1,30.25,SSE,165,4.0,5.0,38,0.00,,,0.02,VWS V14.01,2013-04-30 19:03:00,
2013-04-30 15:04:00,64.2,38.1,30.25,SSE,159,0.0,6.0,38,0.00,,,0.02,VWS V14.01,2013-04-30 19:04:00,
2013-04-30 15:05:00,64.2,38.1,30.25,SSE,161,0.0,6.0,38,0.00,,,0.02,VWS V14.01,2013-04-30 19:05:00,
2013-04-30 15:06:00,64.2,38.1,30.25,SSE,161,0.0,6.0,38,0.00,,,0.02,VWS V14.01,2013-04-30 19:06:00,
2013-04-30 15:07:00,64.2,38.1,30.25,South,170,4.0,6.0,38,0.00,,,0.02,VWS V14.01,2013-04-30 19:07:00,
2013-04-30 15:08:00,64.2,38.8,30.25,South,171,0.0,6.0,39,0.00,,,0.02,VWS V14.01,2013-04-30 19:08:00,
2013-04-30 15:09:00,64.2,39.4,30.25,South,171,1.0,6.0,40,0.00,,,0.02,VWS V14.01,2013-04-30 19:09:00,
2013-04-30 15:10:00,64.2,39.4,30.25,South,171,2.0,6.0,40,0.00,,,0.02,VWS V14.01,2013-04-30 19:10:00,
2013-04-30 15:11:00,64.2,39.4,30.25,South,171,2.0,6.0,40,0.00,,,0.02,VWS V14.01,2013-04-30 19:11:00,
2013-04-30 15:12:00,64.2,39.4,30.25,South,171,2.0,6.0,40,0.00,,,0.02,VWS V14.01,2013-04-30 19:12:00,
2013-04-30 15:13:00,64.5,39.0,30.25,NNE,32,2.0,3.0,39,0.00,,,0.02,VWS V14.01,2013-04-30 19:13:00,
2013-04-30 15:14:00,64.5,38.3,30.25,ENE,74,4.0,4.0,38,0.00,,,0.02,VWS V14.01,2013-04-30 19:14:00,
2013-04-30 15:15:00,64.5,38.3,30.26,SE,136,6.0,9.0,38,0.00,,,0.02,VWS V14.01,2013-04-30 19:15:00,
2013-04-30 15:16:00,64.5,38.3,30.26,South,182,3.0,9.0,38,0.00,,,0.02,VWS V14.01,2013-04-30 19:16:00,
2013-04-30 15:17:00,64.5,38.3,30.26,South,182,3.0,9.0,38,0.00,,,0.02,VWS V14.01,2013-04-30 19:17:00,
2013-04-30 15:18:00,64.4,37.6,30.26,East,90,2.0,9.0,37,0.00,,,0.02,VWS V14.01,2013-04-30 19:18:00,
2013-04-30 15:19:00,64.4,38.3,30.26,East,90,1.0,9.0,38,0.00,,,0.02,VWS V14.01,2013-04-30 19:19:00,
2013-04-30 15:20:00,64.4,38.3,30.26,East,96,1.0,9.0,38,0.00,,,0.02,VWS V14.01,2013-04-30 19:20:00,
2013-04-30 15:21:00,64.4,38.3,30.26,East,96,1.0,9.0,38,0.00,,,0.02,VWS V14.01,2013-04-30 19:21:00,
2013-04-30 15:22:00,64.3,38.2,30.26,East,96,2.0,2.0,38,0.00,,,0.02,VWS V14.01,2013-04-30 19:22:00,
2013-04-30 15:23:00,64.3,38.2,30.26,SSE,159,2.0,4.0,38,0.00,,,0.02,VWS V14.01,2013-04-30 19:23:00,
2013-04-30 15:24:00,64.3,38.2,30.26,ESE,111,1.0,4.0,38,0.00,,,0.02,VWS V14.01,2013-04-30 19:24:00,
2013-04-30 15:25:00,64.2,38.1,30.26,SSE,161,5.0,8.0,38,0.00,,,0.02,VWS V14.01,2013-04-30 19:25:00,
2013-04-30 15:26:00,64.2,38.1,30.26,SSE,161,2.0,8.0,38,0.00,,,0.02,VWS V14.01,2013-04-30 19:26:00,
2013-04-30 15:27:00,64.1,38.0,30.26,SSE,162,2.0,8.0,38,0.00,,,0.02,VWS V14.01,2013-04-30 19:27:00,
2013-04-30 15:28:00,64.1,38.0,30.26,SSW,200,4.0,8.0,38,0.00,,,0.02,VWS V14.01,2013-04-30 19:28:00,
2013-04-30 15:29:00,64.0,37.2,30.26,South,178,5.0,8.0,37,0.00,,,0.02,VWS V14.01,2013-04-30 19:29:00,
2013-04-30 15:30:00,63.9,37.1,30.26,ESE,121,3.0,8.0,37,0.00,,,0.02,VWS V14.01,2013-04-30 19:30:00,
2013-04-30 15:31:00,63.8,37.7,30.26,ESE,121,3.0,3.0,38,0.00,,,0.02,VWS V14.01,2013-04-30 19:31:00,
2013-04-30 15:32:00,63.8,37.7,30.26,SE,137,4.0,5.0,38,0.00,,,0.02,VWS V14.01,2013-04-30 19:32:00,
2013-04-30 15:33:00,63.7,37.6,30.26,SSE,153,2.0,5.0,38,0.00,,,0.02,VWS V14.01,2013-04-30 19:33:00,
2013-04-30 15:34:00,63.6,37.5,30.26,SSE,148,2.0,5.0,38,0.00,,,0.02,VWS V14.01,2013-04-30 19:34:00,
2013-04-30 15:35:00,63.5,38.1,30.26,SE,145,0.0,5.0,39,0.00,,,0.02,VWS V14.01,2013-04-30 19:35:00,
2013-04-30 15:36:00,63.4,37.4,30.26,SSE,156,5.0,5.0,38,0.00,,,0.02,VWS V14.01,2013-04-30 19:36:00,
2013-04-30 15:37:00,63.4,37.4,30.26,SSE,163,5.0,5.0,38,0.00,,,0.02,VWS V14.01,2013-04-30 19:37:00,
2013-04-30 15:38:00,63.3,37.3,30.26,SSE,165,0.0,5.0,38,0.00,,,0.02,VWS V14.01,2013-04-30 19:38:00,
2013-04-30 15:39:00,63.2,37.2,30.26,ENE,61,1.0,5.0,38,0.00,,,0.02,VWS V14.01,2013-04-30 19:39:00,
2013-04-30 15:40:00,63.1,37.1,30.26,ENE,59,2.0,5.0,38,0.00,,,0.02,VWS V14.01,2013-04-30 19:40:00,
2013-04-30 15:41:00,63.0,37.0,30.26,ENE,59,0.0,2.0,38,0.00,,,0.02,VWS V14.01,2013-04-30 19:41:00,
2013-04-30 15:42:00,62.9,36.9,30.26,ENE,59,0.0,2.0,38,0.00,,,0.02,VWS V14.01,2013-04-30 19:42:00,
2013-04-30 15:43:00,62.9,36.9,30.26,SE,140,6.0,6.0,38,0.00,,,0.02,VWS V14.01,2013-04-30 19:43:00,
2013-04-30 15:44:00,62.9,36.9,30.26,SSE,159,4.0,9.0,38,0.00,,,0.02,VWS V14.01,2013-04-30 19:44:00,
2013-04-30 15:45:00,62.8,36.2,30.27,SSE,167,3.0,9.0,37,0.00,,,0.02,VWS V14.01,2013-04-30 19:45:00,
2013-04-30 15:46:00,62.7,36.1,30.27,SSE,156,5.0,9.0,37,0.00,,,0.02,VWS V14.01,2013-04-30 19:46:00,
2013-04-30 15:47:00,62.7,36.1,30.27,SE,128,3.0,9.0,37,0.00,,,0.02,VWS V14.01,2013-04-30 19:47:00,
2013-04-30 15:48:00,62.7,36.8,30.27,SE,128,1.0,9.0,38,0.00,,,0.02,VWS V14.01,2013-04-30 19:48:00,
2013-04-30 15:49:00,62.6,36.7,30.27,SE,127,0.0,9.0,38,0.00,,,0.02,VWS V14.01,2013-04-30 19:49:00,
2013-04-30 15:50:00,62.6,36.0,30.27,NE,38,5.0,9.0,37,0.00,,,0.02,VWS V14.01,2013-04-30 19:50:00,
2013-04-30 15:51:00,62.6,36.0,30.27,NE,51,2.0,6.0,37,0.00,,,0.02,VWS V14.01,2013-04-30 19:51:00,
2013-04-30 15:52:00,62.6,36.0,30.27,SE,136,5.0,6.0,37,0.00,,,0.02,VWS V14.01,2013-04-30 19:52:00,
2013-04-30 15:53:00,62.6,36.0,30.27,WSW,256,4.0,6.0,37,0.00,,,0.02,VWS V14.01,2013-04-30 19:53:00,
2013-04-30 15:54:00,62.6,35.3,30.27,SSW,212,1.0,6.0,36,0.00,,,0.02,VWS V14.01,2013-04-30 19:54:00,
2013-04-30 15:55:00,62.6,36.0,30.27,SE,130,2.0,7.0,37,0.00,,,0.02,VWS V14.01,2013-04-30 19:55:00,
2013-04-30 15:56:00,62.6,36.0,30.27,SE,128,2.0,7.0,37,0.00,,,0.02,VWS V14.01,2013-04-30 19:56:00,
2013-04-30 15:57:00,62.7,35.4,30.27,ESE,117,5.0,7.0,36,0.00,,,0.02,VWS V14.01,2013-04-30 19:57:00,
2013-04-30 15:58:00,62.7,35.4,30.27,SSE,167,4.0,7.0,36,0.00,,,0.02,VWS V14.01,2013-04-30 19:58:00,
2013-04-30 15:59:00,62.8,34.0,30.27,SSE,155,4.0,7.0,34,0.00,,,0.02,VWS V14.01,2013-04-30 19:59:00,
2013-04-30 16:00:00,62.9,33.4,30.27,ENE,57,2.0,7.0,33,0.00,,,0.02,VWS V14.01,2013-04-30 20:00:00,
2013-04-30 16:01:00,62.9,34.1,30.27,ENE,61,3.0,3.0,34,0.00,,,0.02,VWS V14.01,2013-04-30 20:01:00,
2013-04-30 16:02:00,63.0,34.2,30.27,East,94,2.0,5.0,34,0.00,,,0.02,VWS V14.01,2013-04-30 20:02:00,
2013-04-30 16:03:00,63.1,33.6,30.27,SSE,153,1.0,5.0,33,0.00,,,0.02,VWS V14.01,2013-04-30 20:03:00,
2013-04-30 16:04:00,63.1,33.6,30.27,SW,219,2.0,5.0,33,0.00,,,0.02,VWS V14.01,2013-04-30 20:04:00,
2013-04-30 16:05:00,63.2,35.1,30.27,SW,218,1.0,5.0,35,0.00,,,0.02,VWS V14.01,2013-04-30 20:05:00,
2013-04-30 16:06:00,63.4,35.3,30.27,SSE,155,2.0,7.0,35,0.00,,,0.02,VWS V14.01,2013-04-30 20:06:00,
2013-04-30 16:07:00,63.5,35.4,30.27,SW,230,4.0,7.0,35,0.00,,,0.02,VWS V14.01,2013-04-30 20:07:00,
2013-04-30 16:08:00,63.6,34.7,30.27,South,172,5.0,7.0,34,0.00,,,0.02,VWS V14.01,2013-04-30 20:08:00,
2013-04-30 16:09:00,63.7,33.3,30.27,South,186,9.0,9.0,32,0.00,,,0.02,VWS V14.01,2013-04-30 20:09:00,
2013-04-30 16:10:00,63.8,33.4,30.27,SSE,147,11.0,11.0,32,0.00,,,0.02,VWS V14.01,2013-04-30 20:10:00,
2013-04-30 16:11:00,63.8,32.6,30.27,SE,132,4.0,11.0,31,0.00,,,0.02,VWS V14.01,2013-04-30 20:11:00,
2013-04-30 16:12:00,63.8,31.8,30.27,South,173,3.0,11.0,30,0.00,,,0.02,VWS V14.01,2013-04-30 20:12:00,
2013-04-30 16:13:00,63.8,32.6,30.27,South,169,8.0,11.0,31,0.00,,,0.02,VWS V14.01,2013-04-30 20:13:00,
2013-04-30 16:14:00,63.8,32.6,30.27,SE,146,8.0,11.0,31,0.00,,,0.02,VWS V14.01,2013-04-30 20:14:00,
2013-04-30 16:15:00,63.8,31.8,30.27,SSW,200,6.0,11.0,30,0.00,,,0.02,VWS V14.01,2013-04-30 20:15:00,
2013-04-30 16:16:00,63.8,31.8,30.27,SSW,207,5.0,11.0,30,0.00,,,0.02,VWS V14.01,2013-04-30 20:16:00,
2013-04-30 16:17:00,63.9,32.7,30.27,SSE,155,4.0,11.0,31,0.00,,,0.02,VWS V14.01,2013-04-30 20:17:00,
2013-04-30 16:18:00,63.9,32.7,30.27,SSE,152,2.0,11.0,31,0.00,,,0.02,VWS V14.01,2013-04-30 20:18:00,
2013-04-30 16:19:00,64.0,32.8,30.27,ESE,109,3.0,11.0,31,0.00,,,0.02,VWS V14.01,2013-04-30 20:19:00,
2013-04-30 16:20:00,64.0,31.1,30.27,South,177,3.0,11.0,29,0.00,,,0.02,VWS V14.01,2013-04-30 20:20:00,
2013-04-30 16:21:00,64.1,32.1,30.27,SSE,156,3.0,5.0,30,0.00,,,0.02,VWS V14.01,2013-04-30 20:21:00,
2013-04-30 16:22:00,64.1,32.1,30.27,East,86,2.0,5.0,30,0.00,,,0.02,VWS V14.01,2013-04-30 20:22:00,
2013-04-30 16:23:00,64.2,33.0,30.27,East,91,1.0,5.0,31,0.00,,,0.02,VWS V14.01,2013-04-30 20:23:00,
2013-04-30 16:24:00,64.2,31.3,30.27,East,100,5.0,5.0,29,0.00,,,0.02,VWS V14.01,2013-04-30 20:24:00,
2013-04-30 16:25:00,64.2,31.3,30.27,East,98,1.0,5.0,29,0.00,,,0.02,VWS V14.01,2013-04-30 20:25:00,
2013-04-30 16:26:00,64.2,31.3,30.27,East,94,6.0,7.0,29,0.00,,,0.02,VWS V14.01,2013-04-30 20:26:00,
2013-04-30 16:27:00,64.2,31.3,30.27,ENE,76,3.0,7.0,29,0.00,,,0.02,VWS V14.01,2013-04-30 20:27:00,
2013-04-30 16:28:00,64.1,30.4,30.27,East,82,3.0,7.0,28,0.00,,,0.02,VWS V14.01,2013-04-30 20:28:00,
2013-04-30 16:29:00,64.1,30.4,30.27,SE,134,7.0,7.0,28,0.00,,,0.02,VWS V14.01,2013-04-30 20:29:00,
2013-04-30 16:30:00,64.0,30.3,30.28,South,169,4.0,7.0,28,0.00,,,0.02,VWS V14.01,2013-04-30 20:30:00,
2013-04-30 16:31:00,64.0,31.1,30.28,SE,126,5.0,8.0,29,0.00,,,0.02,VWS V14.01,2013-04-30 20:31:00,
2013-04-30 16:32:00,63.9,30.2,30.28,ESE,121,1.0,8.0,28,0.00,,,0.02,VWS V14.01,2013-04-30 20:32:00,
2013-04-30 16:33:00,63.9,31.0,30.28,ENE,65,1.0,8.0,29,0.00,,,0.02,VWS V14.01,2013-04-30 20:33:00,
2013-04-30 16:34:00,63.9,30.2,30.28,East,84,5.0,8.0,28,0.00,,,0.02,VWS V14.01,2013-04-30 20:34:00,
2013-04-30 16:35:00,63.8,30.1,30.28,ESE,113,5.0,8.0,28,0.00,,,0.02,VWS V14.01,2013-04-30 20:35:00,
2013-04-30 16:36:00,63.7,30.0,30.28,ENE,61,7.0,8.0,28,0.00,,,0.02,VWS V14.01,2013-04-30 20:36:00,
2013-04-30 16:37:00,63.6,29.9,30.28,ENE,59,4.0,8.0,28,0.00,,,0.02,VWS V14.01,2013-04-30 20:37:00,
2013-04-30 16:38:00,63.5,30.7,30.28,NE,56,2.0,8.0,29,0.00,,,0.02,VWS V14.01,2013-04-30 20:38:00,
2013-04-30 16:39:00,63.4,29.8,30.28,NE,56,1.0,8.0,28,0.00,,,0.02,VWS V14.01,2013-04-30 20:39:00,
2013-04-30 16:40:00,63.4,30.6,30.28,NE,56,1.0,8.0,29,0.00,,,0.02,VWS V14.01,2013-04-30 20:40:00,
2013-04-30 16:41:00,63.4,30.6,30.28,NE,56,1.0,8.0,29,0.00,,,0.02,VWS V14.01,2013-04-30 20:41:00,
2013-04-30 16:42:00,63.3,30.5,30.28,WSW,239,4.0,4.0,29,0.00,,,0.02,VWS V14.01,2013-04-30 20:42:00,
2013-04-30 16:43:00,63.3,29.7,30.28,South,186,2.0,4.0,28,0.00,,,0.02,VWS V14.01,2013-04-30 20:43:00,
2013-04-30 16:44:00,63.3,29.7,30.28,South,186,2.0,4.0,28,0.00,,,0.02,VWS V14.01,2013-04-30 20:44:00,
2013-04-30 16:45:00,63.3,30.5,30.28,South,186,0.0,4.0,29,0.00,,,0.02,VWS V14.01,2013-04-30 20:45:00,
2013-04-30 16:46:00,63.3,30.5,30.28,South,171,2.0,4.0,29,0.00,,,0.02,VWS V14.01,2013-04-30 20:46:00,
2013-04-30 16:47:00,63.3,29.7,30.28,SSE,153,5.0,9.0,28,0.00,,,0.02,VWS V14.01,2013-04-30 20:47:00,
2013-04-30 16:48:00,63.3,29.7,30.28,ESE,107,3.0,9.0,28,0.00,,,0.02,VWS V14.01,2013-04-30 20:48:00,
2013-04-30 16:49:00,63.3,29.7,30.28,SSE,148,4.0,9.0,28,0.00,,,0.02,VWS V14.01,2013-04-30 20:49:00,
2013-04-30 16:50:00,63.2,28.7,30.28,SSE,149,1.0,9.0,27,0.00,,,0.02,VWS V14.01,2013-04-30 20:50:00,
2013-04-30 16:51:00,63.2,28.7,30.28,SE,144,3.0,4.0,27,0.00,,,0.02,VWS V14.01,2013-04-30 20:51:00,
2013-04-30 16:52:00,63.2,28.7,30.28,ESE,116,2.0,4.0,27,0.00,,,0.02,VWS V14.01,2013-04-30 20:52:00,
2013-04-30 16:53:00,63.2,28.7,30.28,SSE,148,2.0,4.0,27,0.00,,,0.02,VWS V14.01,2013-04-30 20:53:00,
2013-04-30 16:54:00,63.2,28.7,30.28,ENE,68,1.0,4.0,27,0.00,,,0.02,VWS V14.01,2013-04-30 20:54:00,
2013-04-30 16:55:00,63.1,29.5,30.28,ENE,76,0.0,4.0,28,0.00,,,0.02,VWS V14.01,2013-04-30 20:55:00,
2013-04-30 16:56:00,63.1,31.2,30.28,ENE,75,2.0,4.0,30,0.00,,,0.02,VWS V14.01,2013-04-30 20:56:00,
2013-04-30 16:57:00,63.1,30.4,30.28,East,90,6.0,6.0,29,0.00,,,0.02,VWS V14.01,2013-04-30 20:57:00,
2013-04-30 16:58:00,63.1,28.6,30.28,ENE,71,1.0,6.0,27,0.00,,,0.02,VWS V14.01,2013-04-30 20:58:00,
2013-04-30 16:59:00,63.0,29.4,30.28,ESE,115,5.0,6.0,28,0.00,,,0.02,VWS V14.01,2013-04-30 20:59:00,
2013-04-30 17:00:00,63.0,29.4,30.28,SE,124,3.0,6.0,28,0.00,,,0.02,VWS V14.01,2013-04-30 21:00:00,
2013-04-30 17:01:00,62.9,29.3,30.28,SE,127,3.0,9.0,28,0.00,,,0.02,VWS V14.01,2013-04-30 21:01:00,
2013-04-30 17:02:00,62.9,29.3,30.28,ESE,113,1.0,9.0,28,0.00,,,0.02,VWS V14.01,2013-04-30 21:02:00,
2013-04-30 17:03:00,62.9,30.2,30.28,SE,146,4.0,9.0,29,0.00,,,0.02,VWS V14.01,2013-04-30 21:03:00,
2013-04-30 17:04:00,62.9,29.3,30.28,SSE,157,4.0,9.0,28,0.00,,,0.02,VWS V14.01,2013-04-30 21:04:00,
2013-04-30 17:05:00,62.8,29.2,30.28,South,171,1.0,9.0,28,0.00,,,0.02,VWS V14.01,2013-04-30 21:05:00,
2013-04-30 17:06:00,62.7,29.1,30.28,SE,127,0.0,9.0,28,0.00,,,0.02,VWS V14.01,2013-04-30 21:06:00,
2013-04-30 17:07:00,62.7,30.0,30.28,ESE,113,2.0,9.0,29,0.00,,,0.02,VWS V14.01,2013-04-30 21:07:00,
2013-04-30 17:08:00,62.7,29.1,30.28,NE,44,4.0,9.0,28,0.00,,,0.02,VWS V14.01,2013-04-30 21:08:00,
2013-04-30 17:09:00,62.7,29.1,30.28,SSE,157,3.0,9.0,28,0.00,,,0.02,VWS V14.01,2013-04-30 21:09:00,
2013-04-30 17:10:00,62.6,28.2,30.28,SE,146,1.0,9.0,27,0.00,,,0.02,VWS V14.01,2013-04-30 21:10:00,
2013-04-30 17:11:00,62.6,28.2,30.28,SE,146,0.0,1.0,27,0.00,,,0.02,VWS V14.01,2013-04-30 21:11:00,
2013-04-30 17:12:00,62.5,29.8,30.28,SSE,167,2.0,4.0,29,0.00,,,0.02,VWS V14.01,2013-04-30 21:12:00,
2013-04-30 17:13:00,62.5,29.8,30.28,SSE,150,11.0,11.0,29,0.00,,,0.02,VWS V14.01,2013-04-30 21:13:00,
2013-04-30 17:14:00,62.5,28.1,30.28,SSE,153,8.0,11.0,27,0.00,,,0.02,VWS V14.01,2013-04-30 21:14:00,
2013-04-30 17:15:00,62.5,28.1,30.28,ESE,109,4.0,11.0,27,0.00,,,0.02,VWS V14.01,2013-04-30 21:15:00,
2013-04-30 17:16:00,62.5,28.1,30.28,NE,47,6.0,11.0,27,0.00,,,0.02,VWS V14.01,2013-04-30 21:16:00,
2013-04-30 17:17:00,62.4,28.0,30.28,SSE,152,6.0,11.0,27,0.00,,,0.02,VWS V14.01,2013-04-30 21:17:00,
2013-04-30 17:18:00,62.3,27.9,30.28,SSE,160,4.0,11.0,27,0.00,,,0.02,VWS V14.01,2013-04-30 21:18:00,
2013-04-30 17:19:00,62.3,28.8,30.28,SE,146,3.0,11.0,28,0.00,,,0.02,VWS V14.01,2013-04-30 21:19:00,
2013-04-30 17:20:00,62.3,28.8,30.28,SE,137,2.0,11.0,28,0.00,,,0.02,VWS V14.01,2013-04-30 21:20:00,
2013-04-30 17:21:00,62.3,28.8,30.28,East,101,3.0,3.0,28,0.00,,,0.02,VWS V14.01,2013-04-30 21:21:00,
2013-04-30 17:22:00,62.2,29.6,30.28,ESE,102,0.0,3.0,29,0.00,,,0.02,VWS V14.01,2013-04-30 21:22:00,
2013-04-30 17:23:00,62.3,29.7,30.28,ESE,102,1.0,3.0,29,0.00,,,0.02,VWS V14.01,2013-04-30 21:23:00,
2013-04-30 17:24:00,62.2,29.6,30.28,SSE,150,3.0,3.0,29,0.00,,,0.02,VWS V14.01,2013-04-30 21:24:00,
2013-04-30 17:25:00,62.2,29.6,30.28,East,80,2.0,3.0,29,0.00,,,0.02,VWS V14.01,2013-04-30 21:25:00,
2013-04-30 17:26:00,62.2,28.7,30.28,SE,134,3.0,3.0,28,0.00,,,0.02,VWS V14.01,2013-04-30 21:26:00,
2013-04-30 17:27:00,62.2,29.6,30.28,ESE,107,1.0,3.0,29,0.00,,,0.02,VWS V14.01,2013-04-30 21:27:00,
2013-04-30 17:28:00,62.2,28.7,30.28,East,86,2.0,5.0,28,0.00,,,0.02,VWS V14.01,2013-04-30 21:28:00,
2013-04-30 17:29:00,62.1,28.6,30.28,East,86,1.0,5.0,28,0.00,,,0.02,VWS V14.01,2013-04-30 21:29:00,
2013-04-30 17:30:00,62.1,29.5,30.28,SSE,154,5.0,5.0,29,0.00,,,0.02,VWS V14.01,2013-04-30 21:30:00,
2013-04-30 17:31:00,62.0,28.5,30.28,SSE,153,2.0,5.0,28,0.00,,,0.02,VWS V14.01,2013-04-30 21:31:00,
2013-04-30 17:32:00,62.0,29.4,30.28,SSE,162,6.0,6.0,29,0.00,,,0.02,VWS V14.01,2013-04-30 21:32:00,
2013-04-30 17:33:00,62.0,29.4,30.28,SE,133,4.0,10.0,29,0.00,,,0.02,VWS V14.01,2013-04-30 21:33:00,
2013-04-30 17:34:00,61.9,28.5,30.28,ESE,109,5.0,10.0,28,0.00,,,0.02,VWS V14.01,2013-04-30 21:34:00,
2013-04-30 17:35:00,61.9,27.6,30.28,ESE,115,1.0,10.0,27,0.00,,,0.02,VWS V14.01,2013-04-30 21:35:00,
2013-04-30 17:36:00,61.8,27.5,30.28,ESE,115,3.0,10.0,27,0.00,,,0.02,VWS V14.01,2013-04-30 21:36:00,
2013-04-30 17:37:00,61.8,28.4,30.28,SSE,150,3.0,10.0,28,0.00,,,0.02,VWS V14.01,2013-04-30 21:37:00,
2013-04-30 17:38:00,61.8,29.2,30.28,East,98,3.0,10.0,29,0.00,,,0.02,VWS V14.01,2013-04-30 21:38:00,
2013-04-30 17:39:00,61.7,28.3,30.28,SE,126,4.0,10.0,28,0.00,,,0.02,VWS V14.01,2013-04-30 21:39:00,
2013-04-30 17:40:00,61.7,29.1,30.28,ESE,123,1.0,10.0,29,0.00,,,0.02,VWS V14.01,2013-04-30 21:40:00,
2013-04-30 17:41:00,61.6,29.1,30.28,ESE,123,1.0,10.0,29,0.00,,,0.02,VWS V14.01,2013-04-30 21:41:00,
2013-04-30 17:42:00,61.6,28.2,30.28,NE,52,2.0,3.0,28,0.00,,,0.02,VWS V14.01,2013-04-30 21:42:00,
2013-04-30 17:43:00,61.6,29.1,30.28,ESE,117,1.0,3.0,29,0.00,,,0.02,VWS V14.01,2013-04-30 21:43:00,
2013-04-30 17:44:00,61.5,29.0,30.28,SE,140,7.0,7.0,29,0.00,,,0.02,VWS V14.01,2013-04-30 21:44:00,
2013-04-30 17:45:00,61.5,28.1,30.28,NE,51,4.0,7.0,28,0.00,,,0.02,VWS V14.01,2013-04-30 21:45:00,
2013-04-30 17:46:00,61.4,28.9,30.28,NE,52,1.0,7.0,29,0.00,,,0.02,VWS V14.01,2013-04-30 21:46:00,
2013-04-30 17:47:00,61.4,28.9,30.28,NE,46,6.0,7.0,29,0.00,,,0.02,VWS V14.01,2013-04-30 21:47:00,
2013-04-30 17:48:00,61.3,28.8,30.28,ENE,59,3.0,7.0,29,0.00,,,0.02,VWS V14.01,2013-04-30 21:48:00,
2013-04-30 17:49:00,61.3,27.9,30.28,SE,126,0.0,7.0,28,0.00,,,0.02,VWS V14.01,2013-04-30 21:49:00,
2013-04-30 17:50:00,61.3,27.9,30.28,East,93,3.0,7.0,28,0.00,,,0.02,VWS V14.01,2013-04-30 21:50:00,
2013-04-30 17:51:00,61.2,28.7,30.28,NE,49,3.0,3.0,29,0.00,,,0.02,VWS V14.01,2013-04-30 21:51:00,
2013-04-30 17:52:00,61.2,27.9,30.28,SSE,165,2.0,4.0,28,0.00,,,0.02,VWS V14.01,2013-04-30 21:52:00,
2013-04-30 17:53:00,61.2,28.7,30.28,SE,131,5.0,10.0,29,0.00,,,0.02,VWS V14.01,2013-04-30 21:53:00,
2013-04-30 17:54:00,61.2,27.9,30.28,SE,137,0.0,10.0,28,0.00,,,0.02,VWS V14.01,2013-04-30 21:54:00,
2013-04-30 17:55:00,61.2,28.7,30.28,SE,137,1.0,10.0,29,0.00,,,0.02,VWS V14.01,2013-04-30 21:55:00,
2013-04-30 17:56:00,61.1,28.6,30.28,SE,136,3.0,10.0,29,0.00,,,0.02,VWS V14.01,2013-04-30 21:56:00,
2013-04-30 17:57:00,61.1,28.6,30.28,SE,144,4.0,10.0,29,0.00,,,0.02,VWS V14.01,2013-04-30 21:57:00,
2013-04-30 17:58:00,61.1,27.8,30.28,South,175,2.0,10.0,28,0.00,,,0.02,VWS V14.01,2013-04-30 21:58:00,
2013-04-30 17:59:00,61.1,27.8,30.28,SSW,202,2.0,10.0,28,0.00,,,0.02,VWS V14.01,2013-04-30 21:59:00,
2013-04-30 18:00:00,61.1,28.6,30.28,SSW,193,5.0,10.0,29,0.00,,,0.02,VWS V14.01,2013-04-30 22:00:00,
2013-04-30 18:01:00,61.1,28.6,30.28,SSE,147,6.0,6.0,29,0.00,,,0.02,VWS V14.01,2013-04-30 22:01:00,
2013-04-30 18:02:00,61.0,27.7,30.28,SSE,150,3.0,6.0,28,0.00,,,0.02,VWS V14.01,2013-04-30 22:02:00,
2013-04-30 18:03:00,61.0,27.7,30.28,South,191,0.0,6.0,28,0.00,,,0.02,VWS V14.01,2013-04-30 22:03:00,
2013-04-30 18:04:00,61.0,27.7,30.28,SSE,157,7.0,7.0,28,0.00,,,0.02,VWS V14.01,2013-04-30 22:04:00,
2013-04-30 18:05:00,60.9,27.6,30.28,SSE,154,0.0,7.0,28,0.00,,,0.02,VWS V14.01,2013-04-30 22:05:00,
2013-04-30 18:06:00,60.9,27.6,30.28,SW,223,2.0,7.0,28,0.00,,,0.02,VWS V14.01,2013-04-30 22:06:00,
2013-04-30 18:07:00,60.9,27.6,30.28,SW,232,4.0,7.0,28,0.00,,,0.02,VWS V14.01,2013-04-30 22:07:00,
2013-04-30 18:08:00,60.9,28.5,30.28,SW,232,2.0,7.0,29,0.00,,,0.02,VWS V14.01,2013-04-30 22:08:00,
2013-04-30 18:09:00,60.9,28.5,30.28,SSW,198,2.0,7.0,29,0.00,,,0.02,VWS V14.01,2013-04-30 22:09:00,
2013-04-30 18:10:00,60.9,27.6,30.28,SSE,164,5.0,7.0,28,0.00,,,0.02,VWS V14.01,2013-04-30 22:10:00,
2013-04-30 18:11:00,60.9,27.6,30.28,SE,138,5.0,7.0,28,0.00,,,0.02,VWS V14.01,2013-04-30 22:11:00,
2013-04-30 18:12:00,60.8,27.5,30.28,SSE,148,6.0,9.0,28,0.00,,,0.02,VWS V14.01,2013-04-30 22:12:00,
2013-04-30 18:13:00,60.8,27.5,30.28,SSE,165,3.0,9.0,28,0.00,,,0.02,VWS V14.01,2013-04-30 22:13:00,
2013-04-30 18:14:00,60.7,27.4,30.28,ESE,115,1.0,9.0,28,0.00,,,0.02,VWS V14.01,2013-04-30 22:14:00,
2013-04-30 18:15:00,60.7,27.4,30.28,South,181,0.0,9.0,28,0.00,,,0.02,VWS V14.01,2013-04-30 22:15:00,
2013-04-30 18:16:00,60.7,27.4,30.28,South,180,3.0,9.0,28,0.00,,,0.02,VWS V14.01,2013-04-30 22:16:00,
2013-04-30 18:17:00,60.6,27.3,30.28,South,180,3.0,9.0,28,0.00,,,0.02,VWS V14.01,2013-04-30 22:17:00,
2013-04-30 18:18:00,60.6,27.3,30.28,ESE,119,4.0,9.0,28,0.00,,,0.02,VWS V14.01,2013-04-30 22:18:00,
2013-04-30 18:19:00,60.5,27.3,30.28,SE,143,6.0,9.0,28,0.00,,,0.02,VWS V14.01,2013-04-30 22:19:00,
2013-04-30 18:20:00,60.5,27.3,30.28,SSE,153,3.0,9.0,28,0.00,,,0.02,VWS V14.01,2013-04-30 22:20:00,
2013-04-30 18:21:00,60.4,27.2,30.28,SSE,163,0.0,4.0,28,0.00,,,0.02,VWS V14.01,2013-04-30 22:21:00,
2013-04-30 18:22:00,60.4,27.2,30.28,South,172,4.0,4.0,28,0.00,,,0.02,VWS V14.01,2013-04-30 22:22:00,
2013-04-30 18:23:00,60.3,27.1,30.28,SE,130,3.0,5.0,28,0.00,,,0.02,VWS V14.01,2013-04-30 22:23:00,
2013-04-30 18:24:00,60.2,27.9,30.28,SE,142,6.0,6.0,29,0.00,,,0.02,VWS V14.01,2013-04-30 22:24:00,
2013-04-30 18:25:00,60.2,27.0,30.28,South,182,0.0,6.0,28,0.00,,,0.02,VWS V14.01,2013-04-30 22:25:00,
2013-04-30 18:26:00,60.2,27.0,30.28,ESE,113,2.0,6.0,28,0.00,,,0.02,VWS V14.01,2013-04-30 22:26:00,
2013-04-30 18:27:00,60.1,26.9,30.28,ENE,65,2.0,6.0,28,0.00,,,0.02,VWS V14.01,2013-04-30 22:27:00,
2013-04-30 18:28:00,60.0,27.7,30.28,WSW,252,2.0,6.0,29,0.00,,,0.02,VWS V14.01,2013-04-30 22:28:00,
2013-04-30 18:29:00,60.0,27.7,30.28,SE,138,1.0,10.0,29,0.00,,,0.02,VWS V14.01,2013-04-30 22:29:00,
2013-04-30 18:30:00,60.0,27.7,30.28,SE,138,0.0,10.0,29,0.00,,,0.02,VWS V14.01,2013-04-30 22:30:00,
2013-04-30 18:31:00,59.9,28.4,30.28,SSE,152,3.0,3.0,30,0.00,,,0.02,VWS V14.01,2013-04-30 22:31:00,
2013-04-30 18:32:00,59.9,28.4,30.28,SSE,147,0.0,5.0,30,0.00,,,0.02,VWS V14.01,2013-04-30 22:32:00,
2013-04-30 18:33:00,59.9,27.6,30.28,SSE,147,0.0,5.0,29,0.00,,,0.02,VWS V14.01,2013-04-30 22:33:00,
2013-04-30 18:34:00,59.9,28.4,30.28,ENE,74,3.0,5.0,30,0.00,,,0.02,VWS V14.01,2013-04-30 22:34:00,
2013-04-30 18:35:00,59.8,27.5,30.28,SSE,149,0.0,6.0,29,0.00,,,0.02,VWS V14.01,2013-04-30 22:35:00,
2013-04-30 18:36:00,59.8,27.5,30.28,SSE,167,3.0,6.0,29,0.00,,,0.02,VWS V14.01,2013-04-30 22:36:00,
2013-04-30 18:37:00,59.7,27.4,30.28,SW,216,3.0,6.0,29,0.00,,,0.02,VWS V14.01,2013-04-30 22:37:00,
2013-04-30 18:38:00,59.7,27.4,30.28,East,101,1.0,6.0,29,0.00,,,0.02,VWS V14.01,2013-04-30 22:38:00,
2013-04-30 18:39:00,59.6,28.1,30.28,East,100,0.0,6.0,30,0.00,,,0.02,VWS V14.01,2013-04-30 22:39:00,
2013-04-30 18:40:00,59.6,27.3,30.28,East,100,0.0,6.0,29,0.00,,,0.02,VWS V14.01,2013-04-30 22:40:00,
2013-04-30 18:41:00,59.6,27.3,30.28,East,85,3.0,3.0,29,0.00,,,0.02,VWS V14.01,2013-04-30 22:41:00,
2013-04-30 18:42:00,59.5,27.2,30.28,East,98,2.0,6.0,29,0.00,,,0.02,VWS V14.01,2013-04-30 22:42:00,
2013-04-30 18:43:00,59.5,27.2,30.28,ENE,59,2.0,6.0,29,0.00,,,0.02,VWS V14.01,2013-04-30 22:43:00,
2013-04-30 18:44:00,59.4,28.0,30.28,ENE,75,1.0,6.0,30,0.00,,,0.02,VWS V14.01,2013-04-30 22:44:00,
2013-04-30 18:45:00,59.4,28.0,30.28,South,180,4.0,6.0,30,0.00,,,0.02,VWS V14.01,2013-04-30 22:45:00,
2013-04-30 18:46:00,59.3,27.9,30.28,SE,127,4.0,7.0,30,0.00,,,0.02,VWS V14.01,2013-04-30 22:46:00,
2013-04-30 18:47:00,59.4,28.0,30.28,SE,127,3.0,7.0,30,0.00,,,0.02,VWS V14.01,2013-04-30 22:47:00,
2013-04-30 18:48:00,59.3,28.7,30.28,SSE,151,4.0,7.0,31,0.00,,,0.02,VWS V14.01,2013-04-30 22:48:00,
2013-04-30 18:49:00,59.2,27.8,30.28,SSE,153,4.0,7.0,30,0.00,,,0.02,VWS V14.01,2013-04-30 22:49:00,
2013-04-30 18:50:00,59.1,28.5,30.28,SSE,155,2.0,7.0,31,0.00,,,0.02,VWS V14.01,2013-04-30 22:50:00,
2013-04-30 18:51:00,59.1,28.5,30.28,East,97,0.0,4.0,31,0.00,,,0.02,VWS V14.01,2013-04-30 22:51:00,
2013-04-30 18:52:00,59.0,28.4,30.28,East,97,0.0,4.0,31,0.00,,,0.02,VWS V14.01,2013-04-30 22:52:00,
2013-04-30 18:53:00,59.0,28.4,30.28,East,97,0.0,4.0,31,0.00,,,0.02,VWS V14.01,2013-04-30 22:53:00,
2013-04-30 18:54:00,59.0,29.2,30.28,East,97,1.0,4.0,32,0.00,,,0.02,VWS V14.01,2013-04-30 22:54:00,
2013-04-30 18:55:00,59.0,29.2,30.28,ESE,117,3.0,4.0,32,0.00,,,0.02,VWS V14.01,2013-04-30 22:55:00,
2013-04-30 18:56:00,59.0,29.2,30.28,ESE,117,3.0,4.0,32,0.00,,,0.02,VWS V14.01,2013-04-30 22:56:00,
2013-04-30 18:57:00,59.0,29.2,30.28,ESE,117,3.0,4.0,32,0.00,,,0.02,VWS V14.01,2013-04-30 22:57:00,
2013-04-30 18:58:00,58.8,29.0,30.28,South,171,4.0,6.0,32,0.00,,,0.02,VWS V14.01,2013-04-30 22:58:00,
2013-04-30 18:59:00,58.8,28.3,30.28,SSW,199,4.0,7.0,31,0.00,,,0.02,VWS V14.01,2013-04-30 22:59:00,
2013-04-30 19:00:00,58.7,28.2,30.29,SE,138,6.0,7.0,31,0.00,,,0.02,VWS V14.01,2013-04-30 23:00:00,
2013-04-30 19:01:00,58.6,28.1,30.29,SSE,167,2.0,4.0,31,0.00,,,0.02,VWS V14.01,2013-04-30 23:01:00,
2013-04-30 19:02:00,58.5,28.8,30.29,SSW,192,6.0,6.0,32,0.00,,,0.02,VWS V14.01,2013-04-30 23:02:00,
2013-04-30 19:03:00,58.5,28.8,30.29,South,188,4.0,7.0,32,0.00,,,0.02,VWS V14.01,2013-04-30 23:03:00,
2013-04-30 19:04:00,58.4,28.7,30.29,SE,145,2.0,7.0,32,0.00,,,0.02,VWS V14.01,2013-04-30 23:04:00,
2013-04-30 19:05:00,58.3,28.6,30.29,ESE,109,2.0,7.0,32,0.00,,,0.02,VWS V14.01,2013-04-30 23:05:00,
2013-04-30 19:06:00,58.3,28.6,30.29,ESE,109,0.0,7.0,32,0.00,,,0.02,VWS V14.01,2013-04-30 23:06:00,
2013-04-30 19:07:00,58.1,29.2,30.29,SSE,153,5.0,7.0,33,0.00,,,0.02,VWS V14.01,2013-04-30 23:07:00,
2013-04-30 19:08:00,58.0,28.3,30.29,SSE,147,6.0,7.0,32,0.00,,,0.02,VWS V14.01,2013-04-30 23:08:00,
2013-04-30 19:09:00,57.9,28.2,30.29,SSE,163,4.0,7.0,32,0.00,,,0.02,VWS V14.01,2013-04-30 23:09:00,
2013-04-30 19:10:00,57.8,28.2,30.29,South,189,2.0,7.0,32,0.00,,,0.02,VWS V14.01,2013-04-30 23:10:00,
2013-04-30 19:11:00,57.8,28.2,30.29,South,189,3.0,7.0,32,0.00,,,0.02,VWS V14.01,2013-04-30 23:11:00,
2013-04-30 19:12:00,57.7,28.1,30.29,South,186,4.0,4.0,32,0.00,,,0.02,VWS V14.01,2013-04-30 23:12:00,
2013-04-30 19:13:00,57.7,28.1,30.29,South,186,4.0,4.0,32,0.00,,,0.02,VWS V14.01,2013-04-30 23:13:00,
2013-04-30 19:14:00,57.6,28.0,30.29,South,180,2.0,6.0,32,0.00,,,0.02,VWS V14.01,2013-04-30 23:14:00,
2013-04-30 19:15:00,57.5,27.9,30.29,South,186,1.0,6.0,32,0.00,,,0.02,VWS V14.01,2013-04-30 23:15:00,
2013-04-30 19:16:00,57.5,27.9,30.29,SSW,194,4.0,6.0,32,0.00,,,0.02,VWS V14.01,2013-04-30 23:16:00,
2013-04-30 19:17:00,57.4,27.8,30.29,SSW,194,1.0,6.0,32,0.00,,,0.02,VWS V14.01,2013-04-30 23:17:00,
2013-04-30 19:18:00,57.4,27.8,30.29,SSW,194,1.0,6.0,32,0.00,,,0.02,VWS V14.01,2013-04-30 23:18:00,
2013-04-30 19:19:00,57.3,27.7,30.29,South,181,2.0,6.0,32,0.00,,,0.02,VWS V14.01,2013-04-30 23:19:00,
2013-04-30 19:20:00,57.2,28.4,30.29,SSE,151,1.0,6.0,33,0.00,,,0.02,VWS V14.01,2013-04-30 23:20:00,
2013-04-30 19:21:00,57.2,28.4,30.29,SSE,151,0.0,6.0,33,0.00,,,0.02,VWS V14.01,2013-04-30 23:21:00,
2013-04-30 19:22:00,57.1,28.3,30.29,SSW,194,4.0,4.0,33,0.00,,,0.02,VWS V14.01,2013-04-30 23:22:00,
2013-04-30 19:23:00,57.1,28.3,30.29,South,182,3.0,4.0,33,0.00,,,0.02,VWS V14.01,2013-04-30 23:23:00,
2013-04-30 19:24:00,57.0,27.5,30.29,SE,145,2.0,5.0,32,0.00,,,0.02,VWS V14.01,2013-04-30 23:24:00,
2013-04-30 19:25:00,56.9,28.1,30.29,SE,141,2.0,8.0,33,0.00,,,0.02,VWS V14.01,2013-04-30 23:25:00,
2013-04-30 19:26:00,56.8,28.0,30.29,SE,141,1.0,8.0,33,0.00,,,0.02,VWS V14.01,2013-04-30 23:26:00,
2013-04-30 19:27:00,56.7,27.9,30.29,SSE,157,2.0,8.0,33,0.00,,,0.02,VWS V14.01,2013-04-30 23:27:00,
2013-04-30 19:28:00,56.7,27.9,30.29,SSE,157,2.0,8.0,33,0.00,,,0.02,VWS V14.01,2013-04-30 23:28:00,
2013-04-30 19:29:00,56.6,27.9,30.29,South,186,7.0,8.0,33,0.00,,,0.02,VWS V14.01,2013-04-30 23:29:00,
2013-04-30 19:30:00,56.5,27.8,30.30,SSE,165,4.0,8.0,33,0.00,,,0.02,VWS V14.01,2013-04-30 23:30:00,
2013-04-30 19:31:00,56.5,27.8,30.30,SSE,158,5.0,8.0,33,0.00,,,0.02,VWS V14.01,2013-04-30 23:31:00,
2013-04-30 19:32:00,56.3,27.6,30.30,SSE,163,4.0,6.0,33,0.00,,,0.02,VWS V14.01,2013-04-30 23:32:00,
2013-04-30 19:33:00,56.2,27.5,30.30,SSE,165,4.0,6.0,33,0.00,,,0.02,VWS V14.01,2013-04-30 23:33:00,
2013-04-30 19:34:00,56.1,27.4,30.30,SSE,163,4.0,6.0,33,0.00,,,0.02,VWS V14.01,2013-04-30 23:34:00,
2013-04-30 19:35:00,56.0,27.3,30.30,SSE,164,2.0,6.0,33,0.00,,,0.02,VWS V14.01,2013-04-30 23:35:00,
2013-04-30 19:36:00,56.0,27.3,30.30,SSE,164,2.0,6.0,33,0.00,,,0.02,VWS V14.01,2013-04-30 23:36:00,
2013-04-30 19:37:00,55.9,27.2,30.30,SSE,167,2.0,6.0,33,0.00,,,0.02,VWS V14.01,2013-04-30 23:37:00,
2013-04-30 19:38:00,55.8,27.1,30.30,South,176,0.0,6.0,33,0.00,,,0.02,VWS V14.01,2013-04-30 23:38:00,
2013-04-30 19:39:00,55.8,27.1,30.30,South,176,2.0,6.0,33,0.00,,,0.02,VWS V14.01,2013-04-30 23:39:00,
2013-04-30 19:40:00,55.7,27.1,30.30,South,169,5.0,7.0,33,0.00,,,0.02,VWS V14.01,2013-04-30 23:40:00,
2013-04-30 19:41:00,55.7,27.1,30.30,South,169,5.0,7.0,33,0.00,,,0.02,VWS V14.01,2013-04-30 23:41:00,
2013-04-30 19:42:00,55.5,26.1,30.30,SSW,208,2.0,5.0,32,0.00,,,0.02,VWS V14.01,2013-04-30 23:42:00,
2013-04-30 19:43:00,55.5,26.9,30.30,SSE,163,0.0,5.0,33,0.00,,,0.02,VWS V14.01,2013-04-30 23:43:00,
2013-04-30 19:44:00,55.4,26.8,30.30,SSE,163,2.0,5.0,33,0.00,,,0.02,VWS V14.01,2013-04-30 23:44:00,
2013-04-30 19:45:00,55.4,26.8,30.30,SSW,193,1.0,5.0,33,0.00,,,0.02,VWS V14.01,2013-04-30 23:45:00,
2013-04-30 19:46:00,55.3,26.7,30.30,SSW,209,4.0,5.0,33,0.00,,,0.02,VWS V14.01,2013-04-30 23:46:00,
2013-04-30 19:47:00,55.3,26.7,30.30,SSW,207,0.0,5.0,33,0.00,,,0.02,VWS V14.01,2013-04-30 23:47:00,
2013-04-30 19:48:00,55.2,26.6,30.30,SSE,155,3.0,5.0,33,0.00,,,0.02,VWS V14.01,2013-04-30 23:48:00,
2013-04-30 19:49:00,55.1,26.5,30.30,SE,146,7.0,8.0,33,0.00,,,0.02,VWS V14.01,2013-04-30 23:49:00,
2013-04-30 19:50:00,55.0,26.5,30.30,SSE,159,0.0,8.0,33,0.00,,,0.02,VWS V14.01,2013-04-30 23:50:00,
2013-04-30 19:51:00,55.0,26.5,30.30,SSE,160,5.0,5.0,33,0.00,,,0.02,VWS V14.01,2013-04-30 23:51:00,
2013-04-30 19:52:00,54.9,26.4,30.30,SSE,159,0.0,5.0,33,0.00,,,0.02,VWS V14.01,2013-04-30 23:52:00,
2013-04-30 19:53:00,54.9,26.4,30.30,SSE,159,0.0,5.0,33,0.00,,,0.02,VWS V14.01,2013-04-30 23:53:00,
2013-04-30 19:54:00,54.8,26.3,30.30,SSE,160,2.0,5.0,33,0.00,,,0.02,VWS V14.01,2013-04-30 23:54:00,
2013-04-30 19:55:00,54.8,26.3,30.30,SSE,157,0.0,5.0,33,0.00,,,0.02,VWS V14.01,2013-04-30 23:55:00,
2013-04-30 19:56:00,54.8,26.3,30.30,SSE,157,1.0,5.0,33,0.00,,,0.02,VWS V14.01,2013-04-30 23:56:00,
2013-04-30 19:57:00,54.7,26.2,30.30,SSE,157,1.0,5.0,33,0.00,,,0.02,VWS V14.01,2013-04-30 23:57:00,
2013-04-30 19:58:00,54.7,26.2,30.30,SSE,157,1.0,5.0,33,0.00,,,0.02,VWS V14.01,2013-04-30 23:58:00,
2013-04-30 19:59:00,54.7,26.9,30.30,SE,136,6.0,6.0,34,0.00,,,0.02,VWS V14.01,2013-04-30 23:59:00,
2013-04-30 20:00:00,54.6,26.1,30.30,SSE,157,1.0,6.0,33,0.00,,,0.02,VWS V14.01,2013-05-01 00:00:00,
2013-04-30 20:01:00,54.6,26.8,30.30,SSE,157,1.0,1.0,34,0.00,,,0.02,VWS V14.01,2013-05-01 00:01:00,
2013-04-30 20:02:00,54.5,26.7,30.30,SSE,157,0.0,2.0,34,0.00,,,0.02,VWS V14.01,2013-05-01 00:02:00,
2013-04-30 20:03:00,54.5,26.7,30.30,SE,138,4.0,4.0,34,0.00,,,0.02,VWS V14.01,2013-05-01 00:03:00,
2013-04-30 20:04:00,54.4,26.6,30.30,SSE,152,3.0,4.0,34,0.00,,,0.02,VWS V14.01,2013-05-01 00:04:00,
2013-04-30 20:05:00,54.4,25.9,30.30,SSE,152,2.0,4.0,33,0.00,,,0.02,VWS V14.01,2013-05-01 00:05:00,
2013-04-30 20:06:00,54.4,25.9,30.30,SSE,152,2.0,4.0,33,0.00,,,0.02,VWS V14.01,2013-05-01 00:06:00,
2013-04-30 20:07:00,54.3,25.8,30.30,South,171,2.0,4.0,33,0.00,,,0.02,VWS V14.01,2013-05-01 00:07:00,
2013-04-30 20:08:00,54.2,25.7,30.30,South,171,0.0,4.0,33,0.00,,,0.02,VWS V14.01,2013-05-01 00:08:00,
2013-04-30 20:09:00,54.2,25.7,30.30,South,171,0.0,4.0,33,0.00,,,0.02,VWS V14.01,2013-05-01 00:09:00,
2013-04-30 20:10:00,54.1,26.4,30.30,East,90,2.0,4.0,34,0.00,,,0.02,VWS V14.01,2013-05-01 00:10:00,
2013-04-30 20:11:00,54.1,26.4,30.30,East,90,2.0,4.0,34,0.00,,,0.02,VWS V14.01,2013-05-01 00:11:00,
2013-04-30 20:12:00,54.0,25.6,30.30,SSE,154,5.0,5.0,33,0.00,,,0.02,VWS V14.01,2013-05-01 00:12:00,
2013-04-30 20:13:00,54.0,25.6,30.30,SSE,154,5.0,5.0,33,0.00,,,0.02,VWS V14.01,2013-05-01 00:13:00,
2013-04-30 20:14:00,53.9,25.5,30.30,SSE,148,0.0,5.0,33,0.00,,,0.02,VWS V14.01,2013-05-01 00:14:00,
2013-04-30 20:15:00,53.9,25.5,30.30,SSE,148,1.0,5.0,33,0.00,,,0.02,VWS V14.01,2013-05-01 00:15:00,
2013-04-30 20:16:00,53.9,25.5,30.30,SSE,148,4.0,5.0,33,0.00,,,0.02,VWS V14.01,2013-05-01 00:16:00,
2013-04-30 20:17:00,53.8,26.1,30.30,South,171,2.0,5.0,34,0.00,,,0.02,VWS V14.01,2013-05-01 00:17:00,
2013-04-30 20:18:00,53.8,26.1,30.30,SE,141,5.0,5.0,34,0.00,,,0.02,VWS V14.01,2013-05-01 00:18:00,
2013-04-30 20:19:00,53.7,26.0,30.30,SSE,165,0.0,5.0,34,0.00,,,0.02,VWS V14.01,2013-05-01 00:19:00,
2013-04-30 20:20:00,53.7,26.0,30.30,SSE,165,0.0,5.0,34,0.00,,,0.02,VWS V14.01,2013-05-01 00:20:00,
2013-04-30 20:21:00,53.7,26.0,30.30,SSE,165,0.0,5.0,34,0.00,,,0.02,VWS V14.01,2013-05-01 00:21:00,
2013-04-30 20:22:00,53.6,26.6,30.30,SSE,159,6.0,6.0,35,0.00,,,0.02,VWS V14.01,2013-05-01 00:22:00,
2013-04-30 20:23:00,53.6,26.6,30.30,SSE,158,4.0,6.0,35,0.00,,,0.02,VWS V14.01,2013-05-01 00:23:00,
2013-04-30 20:24:00,53.5,25.8,30.30,SSE,158,1.0,6.0,34,0.00,,,0.02,VWS V14.01,2013-05-01 00:24:00,
2013-04-30 20:25:00,53.5,26.5,30.30,SSE,147,1.0,6.0,35,0.00,,,0.02,VWS V14.01,2013-05-01 00:25:00,
2013-04-30 20:26:00,53.5,26.5,30.30,SSE,147,0.0,6.0,35,0.00,,,0.02,VWS V14.01,2013-05-01 00:26:00,
2013-04-30 20:27:00,53.4,26.5,30.30,SE,142,2.0,6.0,35,0.00,,,0.02,VWS V14.01,2013-05-01 00:27:00,
2013-04-30 20:28:00,53.4,26.5,30.30,SE,143,0.0,6.0,35,0.00,,,0.02,VWS V14.01,2013-05-01 00:28:00,
2013-04-30 20:29:00,53.3,26.4,30.30,SE,140,0.0,6.0,35,0.00,,,0.02,VWS V14.01,2013-05-01 00:29:00,
2013-04-30 20:30:00,53.2,26.3,30.30,SE,140,0.0,6.0,35,0.00,,,0.02,VWS V14.01,2013-05-01 00:30:00,
2013-04-30 20:31:00,53.2,26.3,30.30,SE,140,0.0,0.0,35,0.00,,,0.02,VWS V14.01,2013-05-01 00:31:00,
2013-04-30 20:32:00,53.2,26.3,30.30,SE,140,0.0,0.0,35,0.00,,,0.02,VWS V14.01,2013-05-01 00:32:00,
2013-04-30 20:33:00,53.2,26.3,30.30,SE,140,0.0,0.0,35,0.00,,,0.02,VWS V14.01,2013-05-01 00:33:00,
2013-04-30 20:34:00,53.1,26.9,30.30,SE,140,0.0,1.0,36,0.00,,,0.02,VWS V14.01,2013-05-01 00:34:00,
2013-04-30 20:35:00,53.1,26.9,30.30,SE,140,0.0,1.0,36,0.00,,,0.02,VWS V14.01,2013-05-01 00:35:00,
2013-04-30 20:36:00,53.1,26.9,30.30,SE,140,0.0,1.0,36,0.00,,,0.02,VWS V14.01,2013-05-01 00:36:00,
2013-04-30 20:37:00,53.0,26.8,30.30,SE,142,0.0,1.0,36,0.00,,,0.02,VWS V14.01,2013-05-01 00:37:00,
2013-04-30 20:38:00,53.0,26.8,30.30,SE,142,0.0,1.0,36,0.00,,,0.02,VWS V14.01,2013-05-01 00:38:00,
2013-04-30 20:39:00,53.0,26.8,30.30,SE,142,2.0,2.0,36,0.00,,,0.02,VWS V14.01,2013-05-01 00:39:00,
2013-04-30 20:40:00,52.9,26.0,30.30,SSE,150,1.0,5.0,35,0.00,,,0.02,VWS V14.01,2013-05-01 00:40:00,
2013-04-30 20:41:00,52.9,26.0,30.30,SSE,150,0.0,1.0,35,0.00,,,0.02,VWS V14.01,2013-05-01 00:41:00,
2013-04-30 20:42:00,52.8,25.9,30.30,SE,144,2.0,2.0,35,0.00,,,0.02,VWS V14.01,2013-05-01 00:42:00,
2013-04-30 20:43:00,52.8,25.9,30.30,SE,144,4.0,5.0,35,0.00,,,0.02,VWS V14.01,2013-05-01 00:43:00,
2013-04-30 20:44:00,52.7,25.8,30.30,SE,144,0.0,5.0,35,0.00,,,0.02,VWS V14.01,2013-05-01 00:44:00,
2013-04-30 20:45:00,52.7,25.8,30.31,SE,142,5.0,5.0,35,0.00,,,0.02,VWS V14.01,2013-05-01 00:45:00,
2013-04-30 20:46:00,52.7,25.8,30.31,SE,142,5.0,5.0,35,0.00,,,0.02,VWS V14.01,2013-05-01 00:46:00,
2013-04-30 20:47:00,52.7,25.8,30.31,SE,141,0.0,5.0,35,0.00,,,0.02,VWS V14.01,2013-05-01 00:47:00,
2013-04-30 20:48:00,52.6,25.8,30.31,SE,141,0.0,5.0,35,0.00,,,0.02,VWS V14.01,2013-05-01 00:48:00,
2013-04-30 20:49:00,52.6,25.8,30.31,SE,141,0.0,5.0,35,0.00,,,0.02,VWS V14.01,2013-05-01 00:49:00,
2013-04-30 20:50:00,52.6,26.4,30.31,SE,141,3.0,5.0,36,0.00,,,0.02,VWS V14.01,2013-05-01 00:50:00,
2013-04-30 20:51:00,52.6,26.4,30.31,SE,141,3.0,5.0,36,0.00,,,0.02,VWS V14.01,2013-05-01 00:51:00,
2013-04-30 20:52:00,52.5,25.7,30.31,South,175,0.0,4.0,35,0.00,,,0.02,VWS V14.01,2013-05-01 00:52:00,
2013-04-30 20:53:00,52.5,25.7,30.31,South,175,1.0,4.0,35,0.00,,,0.02,VWS V14.01,2013-05-01 00:53:00,
2013-04-30 20:54:00,52.4,25.6,30.31,SSE,165,3.0,7.0,35,0.00,,,0.02,VWS V14.01,2013-05-01 00:54:00,
2013-04-30 20:55:00,52.4,25.6,30.31,SSE,153,1.0,7.0,35,0.00,,,0.02,VWS V14.01,2013-05-01 00:55:00,
2013-04-30 20:56:00,52.4,25.6,30.31,SSE,153,2.0,7.0,35,0.00,,,0.02,VWS V14.01,2013-05-01 00:56:00,
2013-04-30 20:57:00,52.3,25.5,30.31,SSE,155,4.0,7.0,35,0.00,,,0.02,VWS V14.01,2013-05-01 00:57:00,
2013-04-30 20:58:00,52.3,25.5,30.31,ESE,112,0.0,7.0,35,0.00,,,0.02,VWS V14.01,2013-05-01 00:58:00,
2013-04-30 20:59:00,52.3,26.2,30.31,ESE,112,0.0,7.0,36,0.00,,,0.02,VWS V14.01,2013-05-01 00:59:00,
2013-04-30 21:00:00,52.3,25.5,30.31,SE,128,1.0,7.0,35,0.00,,,0.02,VWS V14.01,2013-05-01 01:00:00,
2013-04-30 21:01:00,52.3,25.5,30.31,SE,128,0.0,7.0,35,0.00,,,0.02,VWS V14.01,2013-05-01 01:01:00,
2013-04-30 21:02:00,52.2,26.1,30.31,SSE,150,3.0,3.0,36,0.00,,,0.02,VWS V14.01,2013-05-01 01:02:00,
2013-04-30 21:03:00,52.2,26.1,30.31,SSE,150,1.0,4.0,36,0.00,,,0.02,VWS V14.01,2013-05-01 01:03:00,
2013-04-30 21:04:00,52.1,26.0,30.31,SSE,149,0.0,4.0,36,0.00,,,0.02,VWS V14.01,2013-05-01 01:04:00,
2013-04-30 21:05:00,52.1,26.0,30.31,SSE,149,1.0,4.0,36,0.00,,,0.02,VWS V14.01,2013-05-01 01:05:00,
2013-04-30 21:06:00,52.1,26.0,30.31,SSE,149,1.0,4.0,36,0.00,,,0.02,VWS V14.01,2013-05-01 01:06:00,
2013-04-30 21:07:00,52.1,26.0,30.31,SSE,149,2.0,4.0,36,0.00,,,0.02,VWS V14.01,2013-05-01 01:07:00,
2013-04-30 21:08:00,52.0,25.9,30.31,SSE,149,0.0,4.0,36,0.00,,,0.02,VWS V14.01,2013-05-01 01:08:00,
2013-04-30 21:09:00,52.0,25.9,30.31,SSE,149,1.0,4.0,36,0.00,,,0.02,VWS V14.01,2013-05-01 01:09:00,
2013-04-30 21:10:00,52.0,25.9,30.31,SSE,149,1.0,4.0,36,0.00,,,0.02,VWS V14.01,2013-05-01 01:10:00,
2013-04-30 21:11:00,51.9,26.5,30.31,SSE,157,6.0,6.0,37,0.00,,,0.02,VWS V14.01,2013-05-01 01:11:00,
2013-04-30 21:12:00,51.9,25.8,30.31,SSE,157,1.0,6.0,36,0.00,,,0.02,VWS V14.01,2013-05-01 01:12:00,
2013-04-30 21:13:00,51.8,25.7,30.31,SSE,159,2.0,6.0,36,0.00,,,0.02,VWS V14.01,2013-05-01 01:13:00,
2013-04-30 21:14:00,51.8,25.7,30.31,SSE,153,3.0,6.0,36,0.00,,,0.02,VWS V14.01,2013-05-01 01:14:00,
2013-04-30 21:15:00,51.8,25.7,30.31,SSE,153,2.0,6.0,36,0.00,,,0.02,VWS V14.01,2013-05-01 01:15:00,
2013-04-30 21:16:00,51.7,25.6,30.31,SSE,153,0.0,6.0,36,0.00,,,0.02,VWS V14.01,2013-05-01 01:16:00,
2013-04-30 21:17:00,51.7,25.6,30.31,SSE,159,6.0,7.0,36,0.00,,,0.02,VWS V14.01,2013-05-01 01:17:00,
2013-04-30 21:18:00,51.7,25.6,30.31,SE,132,3.0,7.0,36,0.00,,,0.02,VWS V14.01,2013-05-01 01:18:00,
2013-04-30 21:19:00,51.7,25.6,30.31,SE,132,0.0,7.0,36,0.00,,,0.02,VWS V14.01,2013-05-01 01:19:00,
2013-04-30 21:20:00,51.6,25.5,30.31,SE,138,1.0,7.0,36,0.00,,,0.02,VWS V14.01,2013-05-01 01:20:00,
2013-04-30 21:21:00,51.6,25.5,30.31,ESE,111,0.0,1.0,36,0.00,,,0.02,VWS V14.01,2013-05-01 01:21:00,
2013-04-30 21:22:00,51.6,25.5,30.31,ESE,121,2.0,3.0,36,0.00,,,0.02,VWS V14.01,2013-05-01 01:22:00,
2013-04-30 21:23:00,51.5,25.5,30.31,ESE,121,0.0,3.0,36,0.00,,,0.02,VWS V14.01,2013-05-01 01:23:00,
2013-04-30 21:24:00,51.5,25.5,30.31,ESE,121,0.0,3.0,36,0.00,,,0.02,VWS V14.01,2013-05-01 01:24:00,
2013-04-30 21:25:00,51.5,25.5,30.31,ESE,121,0.0,3.0,36,0.00,,,0.02,VWS V14.01,2013-05-01 01:25:00,
2013-04-30 21:26:00,51.5,25.5,30.31,South,180,2.0,3.0,36,0.00,,,0.02,VWS V14.01,2013-05-01 01:26:00,
2013-04-30 21:27:00,51.5,25.5,30.31,South,180,1.0,3.0,36,0.00,,,0.02,VWS V14.01,2013-05-01 01:27:00,
2013-04-30 21:28:00,51.4,25.4,30.31,South,180,1.0,3.0,36,0.00,,,0.02,VWS V14.01,2013-05-01 01:28:00,
2013-04-30 21:29:00,51.4,25.4,30.31,South,180,3.0,3.0,36,0.00,,,0.02,VWS V14.01,2013-05-01 01:29:00,
2013-04-30 21:30:00,51.4,25.4,30.31,South,180,2.0,3.0,36,0.00,,,0.02,VWS V14.01,2013-05-01 01:30:00,
2013-04-30 21:31:00,51.4,25.4,30.31,South,180,1.0,3.0,36,0.00,,,0.02,VWS V14.01,2013-05-01 01:31:00,
2013-04-30 21:32:00,51.3,25.3,30.31,South,180,0.0,0.0,36,0.00,,,0.02,VWS V14.01,2013-05-01 01:32:00,
2013-04-30 21:33:00,51.3,25.9,30.31,South,180,0.0,1.0,37,0.00,,,0.02,VWS V14.01,2013-05-01 01:33:00,
2013-04-30 21:34:00,51.3,25.3,30.31,South,180,2.0,2.0,36,0.00,,,0.02,VWS V14.01,2013-05-01 01:34:00,
2013-04-30 21:35:00,51.3,25.9,30.31,South,180,0.0,2.0,37,0.00,,,0.02,VWS V14.01,2013-05-01 01:35:00,
2013-04-30 21:36:00,51.3,25.9,30.31,South,180,0.0,2.0,37,0.00,,,0.02,VWS V14.01,2013-05-01 01:36:00,
2013-04-30 21:37:00,51.2,25.2,30.31,South,179,0.0,2.0,36,0.00,,,0.02,VWS V14.01,2013-05-01 01:37:00,
2013-04-30 21:38:00,51.2,25.2,30.31,South,180,0.0,2.0,36,0.00,,,0.02,VWS V14.01,2013-05-01 01:38:00,
2013-04-30 21:39:00,51.2,25.2,30.31,South,180,0.0,2.0,36,0.00,,,0.02,VWS V14.01,2013-05-01 01:39:00,
2013-04-30 21:40:00,51.2,25.8,30.31,South,180,0.0,2.0,37,0.00,,,0.02,VWS V14.01,2013-05-01 01:40:00,
2013-04-30 21:41:00,51.2,25.8,30.31,South,180,0.0,2.0,37,0.00,,,0.02,VWS V14.01,2013-05-01 01:41:00,
2013-04-30 21:42:00,51.1,25.8,30.31,South,180,0.0,0.0,37,0.00,,,0.02,VWS V14.01,2013-05-01 01:42:00,
2013-04-30 21:43:00,51.1,25.8,30.31,South,180,0.0,0.0,37,0.00,,,0.02,VWS V14.01,2013-05-01 01:43:00,
2013-04-30 21:44:00,51.0,25.7,30.31,SE,137,1.0,6.0,37,0.00,,,0.02,VWS V14.01,2013-05-01 01:44:00,
2013-04-30 21:45:00,51.0,25.7,30.31,SE,137,0.0,6.0,37,0.00,,,0.02,VWS V14.01,2013-05-01 01:45:00,
2013-04-30 21:46:00,51.0,25.7,30.31,SE,137,0.0,6.0,37,0.00,,,0.02,VWS V14.01,2013-05-01 01:46:00,
2013-04-30 21:47:00,51.0,25.7,30.31,SSE,148,1.0,6.0,37,0.00,,,0.02,VWS V14.01,2013-05-01 01:47:00,
2013-04-30 21:48:00,51.0,25.7,30.31,SSE,148,1.0,6.0,37,0.00,,,0.02,VWS V14.01,2013-05-01 01:48:00,
2013-04-30 21:49:00,50.9,25.6,30.31,SSE,148,0.0,6.0,37,0.00,,,0.02,VWS V14.01,2013-05-01 01:49:00,
2013-04-30 21:50:00,50.9,25.6,30.31,SSE,148,0.0,6.0,37,0.00,,,0.02,VWS V14.01,2013-05-01 01:50:00,
2013-04-30 21:51:00,50.9,25.6,30.31,SSE,148,0.0,6.0,37,0.00,,,0.02,VWS V14.01,2013-05-01 01:51:00,
2013-04-30 21:52:00,50.9,25.6,30.31,SSE,148,0.0,6.0,37,0.00,,,0.02,VWS V14.01,2013-05-01 01:52:00,
2013-04-30 21:53:00,50.8,25.5,30.31,SSE,148,0.0,6.0,37,0.00,,,0.02,VWS V14.01,2013-05-01 01:53:00,
2013-04-30 21:54:00,50.8,25.5,30.31,SSE,148,0.0,6.0,37,0.00,,,0.02,VWS V14.01,2013-05-01 01:54:00,
2013-04-30 21:55:00,50.8,25.5,30.31,SSE,148,0.0,6.0,37,0.00,,,0.02,VWS V14.01,2013-05-01 01:55:00,
2013-04-30 21:56:00,50.8,25.5,30.31,SSE,148,0.0,6.0,37,0.00,,,0.02,VWS V14.01,2013-05-01 01:56:00,
2013-04-30 21:57:00,50.7,25.4,30.31,SSE,148,0.0,6.0,37,0.00,,,0.02,VWS V14.01,2013-05-01 01:57:00,
2013-04-30 21:58:00,50.7,25.4,30.31,SSE,148,0.0,6.0,37,0.00,,,0.02,VWS V14.01,2013-05-01 01:58:00,
2013-04-30 21:59:00,50.7,26.0,30.31,SSE,148,0.0,6.0,38,0.00,,,0.02,VWS V14.01,2013-05-01 01:59:00,
2013-04-30 22:00:00,50.6,26.0,30.31,SSE,148,0.0,6.0,38,0.00,,,0.02,VWS V14.01,2013-05-01 02:00:00,
2013-04-30 22:01:00,50.6,26.0,30.31,SSE,148,0.0,6.0,38,0.00,,,0.02,VWS V14.01,2013-05-01 02:01:00,
2013-04-30 22:02:00,50.6,25.3,30.31,SSE,148,0.0,0.0,37,0.00,,,0.02,VWS V14.01,2013-05-01 02:02:00,
2013-04-30 22:03:00,50.6,25.3,30.31,SSE,148,0.0,0.0,37,0.00,,,0.02,VWS V14.01,2013-05-01 02:03:00,
2013-04-30 22:04:00,50.5,25.2,30.31,SSE,148,0.0,0.0,37,0.00,,,0.02,VWS V14.01,2013-05-01 02:04:00,
2013-04-30 22:05:00,50.5,25.9,30.31,SSE,148,0.0,1.0,38,0.00,,,0.02,VWS V14.01,2013-05-01 02:05:00,
2013-04-30 22:06:00,50.5,25.9,30.31,SSE,148,0.0,1.0,38,0.00,,,0.02,VWS V14.01,2013-05-01 02:06:00,
2013-04-30 22:07:00,50.5,25.9,30.31,SSE,148,0.0,1.0,38,0.00,,,0.02,VWS V14.01,2013-05-01 02:07:00,
2013-04-30 22:08:00,50.4,25.8,30.31,SSE,148,0.0,1.0,38,0.00,,,0.02,VWS V14.01,2013-05-01 02:08:00,
2013-04-30 22:09:00,50.4,25.8,30.31,SSE,148,0.0,1.0,38,0.00,,,0.02,VWS V14.01,2013-05-01 02:09:00,
2013-04-30 22:10:00,50.4,25.8,30.31,SSE,148,0.0,1.0,38,0.00,,,0.02,VWS V14.01,2013-05-01 02:10:00,
2013-04-30 22:11:00,50.4,25.8,30.31,SSE,148,0.0,1.0,38,0.00,,,0.02,VWS V14.01,2013-05-01 02:11:00,
2013-04-30 22:12:00,50.4,27.0,30.31,SSE,148,1.0,1.0,40,0.00,,,0.02,VWS V14.01,2013-05-01 02:12:00,
2013-04-30 22:13:00,50.3,26.9,30.31,SSE,151,0.0,1.0,40,0.00,,,0.02,VWS V14.01,2013-05-01 02:13:00,
2013-04-30 22:14:00,50.3,26.3,30.31,SSE,151,1.0,1.0,39,0.00,,,0.02,VWS V14.01,2013-05-01 02:14:00,
2013-04-30 22:15:00,50.3,26.3,30.31,SSE,151,1.0,1.0,39,0.00,,,0.02,VWS V14.01,2013-05-01 02:15:00,
2013-04-30 22:16:00,50.3,26.3,30.31,SSE,151,0.0,1.0,39,0.00,,,0.02,VWS V14.01,2013-05-01 02:16:00,
2013-04-30 22:17:00,50.2,27.4,30.31,SSE,151,0.0,1.0,41,0.00,,,0.02,VWS V14.01,2013-05-01 02:17:00,
2013-04-30 22:18:00,50.1,27.3,30.31,SSE,151,0.0,1.0,41,0.00,,,0.02,VWS V14.01,2013-05-01 02:18:00,
2013-04-30 22:19:00,50.1,27.9,30.31,SSE,151,0.0,1.0,42,0.00,,,0.02,VWS V14.01,2013-05-01 02:19:00,
2013-04-30 22:20:00,50.1,27.3,30.31,SSE,151,0.0,1.0,41,0.00,,,0.02,VWS V14.01,2013-05-01 02:20:00,
2013-04-30 22:21:00,50.1,27.3,30.31,SSE,151,0.0,0.0,41,0.00,,,0.02,VWS V14.01,2013-05-01 02:21:00,
2013-04-30 22:22:00,50.1,27.3,30.31,SSE,150,1.0,1.0,41,0.00,,,0.02,VWS V14.01,2013-05-01 02:22:00,
2013-04-30 22:23:00,50.0,26.6,30.31,SSE,151,0.0,1.0,40,0.00,,,0.02,VWS V14.01,2013-05-01 02:23:00,
2013-04-30 22:24:00,50.0,26.6,30.31,SSE,151,0.0,1.0,40,0.00,,,0.02,VWS V14.01,2013-05-01 02:24:00,
2013-04-30 22:25:00,49.9,26.6,30.31,SSE,151,0.0,1.0,40,0.00,,,0.02,VWS V14.01,2013-05-01 02:25:00,
2013-04-30 22:26:00,49.9,26.6,30.31,SSE,151,0.0,1.0,40,0.00,,,0.02,VWS V14.01,2013-05-01 02:26:00,
2013-04-30 22:27:00,49.8,27.6,30.31,SSE,150,0.0,1.0,42,0.00,,,0.02,VWS V14.01,2013-05-01 02:27:00,
2013-04-30 22:28:00,49.8,27.6,30.31,SSE,151,0.0,1.0,42,0.00,,,0.02,VWS V14.01,2013-05-01 02:28:00,
2013-04-30 22:29:00,49.7,27.6,30.31,SSE,151,0.0,1.0,42,0.00,,,0.02,VWS V14.01,2013-05-01 02:29:00,
2013-04-30 22:30:00,49.7,27.0,30.31,SSE,151,0.0,1.0,41,0.00,,,0.02,VWS V14.01,2013-05-01 02:30:00,
2013-04-30 22:31:00,49.7,26.4,30.31,SSE,151,0.0,0.0,40,0.00,,,0.02,VWS V14.01,2013-05-01 02:31:00,
2013-04-30 22:32:00,49.6,26.3,30.31,SSE,150,0.0,0.0,40,0.00,,,0.02,VWS V14.01,2013-05-01 02:32:00,
2013-04-30 22:33:00,49.6,28.0,30.31,SSE,151,0.0,0.0,43,0.00,,,0.02,VWS V14.01,2013-05-01 02:33:00,
2013-04-30 22:34:00,49.6,28.0,30.31,SSE,151,0.0,0.0,43,0.00,,,0.02,VWS V14.01,2013-05-01 02:34:00,
2013-04-30 22:35:00,49.5,26.8,30.31,SSE,151,0.0,0.0,41,0.00,,,0.02,VWS V14.01,2013-05-01 02:35:00,
2013-04-30 22:36:00,49.5,26.8,30.31,SSE,151,0.0,0.0,41,0.00,,,0.02,VWS V14.01,2013-05-01 02:36:00,
2013-04-30 22:37:00,49.5,26.8,30.31,SSE,151,0.0,0.0,41,0.00,,,0.02,VWS V14.01,2013-05-01 02:37:00,
2013-04-30 22:38:00,49.4,27.9,30.31,SSE,151,0.0,0.0,43,0.00,,,0.02,VWS V14.01,2013-05-01 02:38:00,
2013-04-30 22:39:00,49.4,27.3,30.31,SSE,151,0.0,0.0,42,0.00,,,0.02,VWS V14.01,2013-05-01 02:39:00,
2013-04-30 22:40:00,49.4,27.3,30.31,SSE,151,0.0,0.0,42,0.00,,,0.02,VWS V14.01,2013-05-01 02:40:00,
2013-04-30 22:41:00,49.4,27.3,30.31,SSE,151,0.0,0.0,42,0.00,,,0.02,VWS V14.01,2013-05-01 02:41:00,
2013-04-30 22:42:00,49.4,27.3,30.31,SSE,151,0.0,0.0,42,0.00,,,0.02,VWS V14.01,2013-05-01 02:42:00,
2013-04-30 22:43:00,49.2,27.7,30.31,SSE,151,0.0,0.0,43,0.00,,,0.02,VWS V14.01,2013-05-01 02:43:00,
2013-04-30 22:44:00,49.2,27.7,30.31,SSE,151,0.0,0.0,43,0.00,,,0.02,VWS V14.01,2013-05-01 02:44:00,
2013-04-30 22:45:00,49.2,27.1,30.31,SSE,151,0.0,0.0,42,0.00,,,0.02,VWS V14.01,2013-05-01 02:45:00,
2013-04-30 22:46:00,49.2,27.1,30.31,SSE,151,0.0,0.0,42,0.00,,,0.02,VWS V14.01,2013-05-01 02:46:00,
2013-04-30 22:47:00,49.1,28.7,30.31,SSE,151,0.0,0.0,45,0.00,,,0.02,VWS V14.01,2013-05-01 02:47:00,
2013-04-30 22:48:00,49.1,28.7,30.31,SSE,151,0.0,0.0,45,0.00,,,0.02,VWS V14.01,2013-05-01 02:48:00,
2013-04-30 22:49:00,49.0,28.6,30.31,SSE,151,0.0,0.0,45,0.00,,,0.02,VWS V14.01,2013-05-01 02:49:00,
2013-04-30 22:50:00,49.0,28.6,30.31,SSE,151,0.0,0.0,45,0.00,,,0.02,VWS V14.01,2013-05-01 02:50:00,
2013-04-30 22:51:00,49.0,28.6,30.31,SSE,151,0.0,0.0,45,0.00,,,0.02,VWS V14.01,2013-05-01 02:51:00,
2013-04-30 22:52:00,48.9,28.5,30.31,SSE,151,0.0,0.0,45,0.00,,,0.02,VWS V14.01,2013-05-01 02:52:00,
2013-04-30 22:53:00,48.9,28.0,30.31,SSE,151,0.0,0.0,44,0.00,,,0.02,VWS V14.01,2013-05-01 02:53:00,
2013-04-30 22:54:00,48.8,27.9,30.31,SSE,151,0.0,0.0,44,0.00,,,0.02,VWS V14.01,2013-05-01 02:54:00,
2013-04-30 22:55:00,48.8,27.9,30.31,SSE,151,0.0,0.0,44,0.00,,,0.02,VWS V14.01,2013-05-01 02:55:00,
2013-04-30 22:56:00,48.8,27.9,30.31,SSE,151,0.0,0.0,44,0.00,,,0.02,VWS V14.01,2013-05-01 02:56:00,
2013-04-30 22:57:00,48.7,28.9,30.31,SSE,151,0.0,0.0,46,0.00,,,0.02,VWS V14.01,2013-05-01 02:57:00,
2013-04-30 22:58:00,48.7,28.9,30.31,SSE,150,0.0,0.0,46,0.00,,,0.02,VWS V14.01,2013-05-01 02:58:00,
2013-04-30 22:59:00,48.7,29.4,30.31,SSE,151,0.0,0.0,47,0.00,,,0.02,VWS V14.01,2013-05-01 02:59:00,
2013-04-30 23:00:00,48.6,30.8,30.31,SSE,151,0.0,0.0,50,0.00,,,0.02,VWS V14.01,2013-05-01 03:00:00,
2013-04-30 23:01:00,48.6,31.3,30.31,SSE,151,0.0,0.0,51,0.00,,,0.02,VWS V14.01,2013-05-01 03:01:00,
2013-04-30 23:02:00,48.5,31.7,30.31,SSE,151,0.0,0.0,52,0.00,,,0.02,VWS V14.01,2013-05-01 03:02:00,
2013-04-30 23:03:00,48.5,31.7,30.31,SSE,151,0.0,0.0,52,0.00,,,0.02,VWS V14.01,2013-05-01 03:03:00,
2013-04-30 23:04:00,48.3,32.0,30.31,SSE,150,0.0,0.0,53,0.00,,,0.02,VWS V14.01,2013-05-01 03:04:00,
2013-04-30 23:05:00,48.2,31.9,30.31,SSE,151,0.0,0.0,53,0.00,,,0.02,VWS V14.01,2013-05-01 03:05:00,
2013-04-30 23:06:00,48.2,31.9,30.31,SSE,151,0.0,0.0,53,0.00,,,0.02,VWS V14.01,2013-05-01 03:06:00,
2013-04-30 23:07:00,48.1,31.8,30.31,SSE,151,0.0,0.0,53,0.00,,,0.02,VWS V14.01,2013-05-01 03:07:00,
2013-04-30 23:08:00,48.1,31.8,30.31,SSE,151,0.0,0.0,53,0.00,,,0.02,VWS V14.01,2013-05-01 03:08:00,
2013-04-30 23:09:00,48.0,30.8,30.31,SSE,151,0.0,0.0,51,0.00,,,0.02,VWS V14.01,2013-05-01 03:09:00,
2013-04-30 23:10:00,47.9,30.7,30.31,SSE,151,0.0,0.0,51,0.00,,,0.02,VWS V14.01,2013-05-01 03:10:00,
2013-04-30 23:11:00,47.9,30.7,30.31,SSE,151,0.0,0.0,51,0.00,,,0.02,VWS V14.01,2013-05-01 03:11:00,
2013-04-30 23:12:00,47.8,29.6,30.31,SSE,151,0.0,0.0,49,0.00,,,0.02,VWS V14.01,2013-05-01 03:12:00,
2013-04-30 23:13:00,47.8,29.1,30.31,SSE,151,0.0,0.0,48,0.00,,,0.02,VWS V14.01,2013-05-01 03:13:00,
2013-04-30 23:14:00,47.7,29.0,30.31,SSE,151,0.0,0.0,48,0.00,,,0.02,VWS V14.01,2013-05-01 03:14:00,
2013-04-30 23:15:00,47.7,29.0,30.31,SSE,151,0.0,0.0,48,0.00,,,0.02,VWS V14.01,2013-05-01 03:15:00,
2013-04-30 23:16:00,47.6,28.9,30.31,SSE,151,0.0,0.0,48,0.00,,,0.02,VWS V14.01,2013-05-01 03:16:00,
2013-04-30 23:17:00,47.6,30.4,30.31,SSE,151,0.0,0.0,51,0.00,,,0.02,VWS V14.01,2013-05-01 03:17:00,
2013-04-30 23:18:00,47.6,31.3,30.31,SSE,151,0.0,0.0,53,0.00,,,0.02,VWS V14.01,2013-05-01 03:18:00,
2013-04-30 23:19:00,47.5,31.7,30.31,SSE,151,0.0,0.0,54,0.00,,,0.02,VWS V14.01,2013-05-01 03:19:00,
2013-04-30 23:20:00,47.4,31.6,30.31,SSE,151,0.0,0.0,54,0.00,,,0.02,VWS V14.01,2013-05-01 03:20:00,
2013-04-30 23:21:00,47.4,31.6,30.31,SSE,151,0.0,0.0,54,0.00,,,0.02,VWS V14.01,2013-05-01 03:21:00,
2013-04-30 23:22:00,47.3,31.5,30.31,SSE,151,0.0,0.0,54,0.00,,,0.02,VWS V14.01,2013-05-01 03:22:00,
2013-04-30 23:23:00,47.2,31.4,30.31,SSE,151,0.0,0.0,54,0.00,,,0.02,VWS V14.01,2013-05-01 03:23:00,
2013-04-30 23:24:00,47.1,31.3,30.31,SSE,151,0.0,0.0,54,0.00,,,0.02,VWS V14.01,2013-05-01 03:24:00,
2013-04-30 23:25:00,47.0,31.7,30.31,SSE,151,0.0,0.0,55,0.00,,,0.02,VWS V14.01,2013-05-01 03:25:00,
2013-04-30 23:26:00,47.0,31.7,30.31,SSE,151,0.0,0.0,55,0.00,,,0.02,VWS V14.01,2013-05-01 03:26:00,
2013-04-30 23:27:00,46.9,31.6,30.31,SSE,151,0.0,0.0,55,0.00,,,0.02,VWS V14.01,2013-05-01 03:27:00,
2013-04-30 23:28:00,46.9,31.6,30.31,SSE,151,0.0,0.0,55,0.00,,,0.02,VWS V14.01,2013-05-01 03:28:00,
2013-04-30 23:29:00,46.8,31.5,30.31,SSE,151,0.0,0.0,55,0.00,,,0.02,VWS V14.01,2013-05-01 03:29:00,
2013-04-30 23:30:00,46.7,31.4,30.31,SSE,151,0.0,0.0,55,0.00,,,0.02,VWS V14.01,2013-05-01 03:30:00,
2013-04-30 23:31:00,46.7,31.4,30.31,SSE,151,0.0,0.0,55,0.00,,,0.02,VWS V14.01,2013-05-01 03:31:00,
2013-04-30 23:32:00,46.7,31.4,30.31,SSE,151,0.0,0.0,55,0.00,,,0.02,VWS V14.01,2013-05-01 03:32:00,
2013-04-30 23:33:00,46.6,31.3,30.31,SSE,151,0.0,0.0,55,0.00,,,0.02,VWS V14.01,2013-05-01 03:33:00,
2013-04-30 23:34:00,46.6,31.8,30.31,SSE,151,0.0,0.0,56,0.00,,,0.02,VWS V14.01,2013-05-01 03:34:00,
2013-04-30 23:35:00,46.5,31.7,30.31,SSE,151,0.0,0.0,56,0.00,,,0.02,VWS V14.01,2013-05-01 03:35:00,
2013-04-30 23:36:00,46.5,31.7,30.31,SSE,151,0.0,0.0,56,0.00,,,0.02,VWS V14.01,2013-05-01 03:36:00,
2013-04-30 23:37:00,46.4,31.6,30.31,SSE,151,0.0,0.0,56,0.00,,,0.02,VWS V14.01,2013-05-01 03:37:00,
2013-04-30 23:38:00,46.4,32.0,30.31,SSE,151,0.0,0.0,57,0.00,,,0.02,VWS V14.01,2013-05-01 03:38:00,
2013-04-30 23:39:00,46.3,32.3,30.31,SSE,151,0.0,0.0,58,0.00,,,0.02,VWS V14.01,2013-05-01 03:39:00,
2013-04-30 23:40:00,46.2,32.2,30.31,SSE,151,0.0,0.0,58,0.00,,,0.02,VWS V14.01,2013-05-01 03:40:00,
2013-04-30 23:41:00,46.1,32.2,30.31,SSE,151,0.0,0.0,58,0.00,,,0.02,VWS V14.01,2013-05-01 03:41:00,
2013-04-30 23:42:00,46.1,32.2,30.31,SSE,151,0.0,0.0,58,0.00,,,0.02,VWS V14.01,2013-05-01 03:42:00,
2013-04-30 23:43:00,46.0,32.1,30.31,SSE,151,0.0,0.0,58,0.00,,,0.02,VWS V14.01,2013-05-01 03:43:00,
2013-04-30 23:44:00,46.0,32.5,30.31,SSE,151,0.0,0.0,59,0.00,,,0.02,VWS V14.01,2013-05-01 03:44:00,
2013-04-30 23:45:00,45.9,32.4,30.31,SSE,151,0.0,0.0,59,0.00,,,0.02,VWS V14.01,2013-05-01 03:45:00,
2013-04-30 23:46:00,45.9,32.4,30.31,SSE,151,0.0,0.0,59,0.00,,,0.02,VWS V14.01,2013-05-01 03:46:00,
2013-04-30 23:47:00,45.9,32.4,30.31,SSE,151,0.0,0.0,59,0.00,,,0.02,VWS V14.01,2013-05-01 03:47:00,
2013-04-30 23:48:00,45.7,32.6,30.31,SSE,151,0.0,0.0,60,0.00,,,0.02,VWS V14.01,2013-05-01 03:48:00,
2013-04-30 23:49:00,45.7,32.6,30.31,SSE,150,0.0,0.0,60,0.00,,,0.02,VWS V14.01,2013-05-01 03:49:00,
2013-04-30 23:50:00,45.6,32.5,30.31,SSE,151,0.0,0.0,60,0.00,,,0.02,VWS V14.01,2013-05-01 03:50:00,
2013-04-30 23:51:00,45.6,32.5,30.31,SSE,151,0.0,0.0,60,0.00,,,0.02,VWS V14.01,2013-05-01 03:51:00,
2013-04-30 23:52:00,45.6,32.5,30.31,SSE,151,0.0,0.0,60,0.00,,,0.02,VWS V14.01,2013-05-01 03:52:00,
2013-04-30 23:53:00,45.4,31.9,30.31,SSE,151,0.0,0.0,59,0.00,,,0.02,VWS V14.01,2013-05-01 03:53:00,
2013-04-30 23:54:00,45.3,31.8,30.31,SSE,151,0.0,0.0,59,0.00,,,0.02,VWS V14.01,2013-05-01 03:54:00,
2013-04-30 23:55:00,45.3,31.8,30.31,SSE,151,0.0,0.0,59,0.00,,,0.02,VWS V14.01,2013-05-01 03:55:00,
2013-04-30 23:56:00,45.3,31.8,30.31,SSE,151,0.0,0.0,59,0.00,,,0.02,VWS V14.01,2013-05-01 03:56:00,
2013-04-30 23:57:00,45.3,31.8,30.31,SSE,151,0.0,0.0,59,0.00,,,0.02,VWS V14.01,2013-05-01 03:57:00,
2013-04-30 23:58:00,45.2,32.2,30.31,SSE,151,0.0,0.0,60,0.00,,,0.02,VWS V14.01,2013-05-01 03:58:00,
2013-04-30 23:59:00,45.1,32.1,30.31,SSE,151,0.0,0.0,60,0.00,,,0.02,VWS V14.01,2013-05-01 03:59:00,